GFSCGP_con_mlcape_000.txt.gz
CAPE
0 0 0 0 0 0 0 0 0 0 0 0 0 0 0 0 0 0 0 0 0 0 0 0 0 0 0 0 0 0 0 5 10 0 5 0 0 0 4 30 30 24 3 0
0 0 0 0 0 0 0 0 0 0 0 0 0 0 0 0 0 0 0 0 0 0 0 0 0 0 0 0 0 0 4 5 19 0 9 9 0 0 19 38 36 28 25 34
0 0 0 0 0 0 0 0 0 0 0 0 0 0 0 0 0 0 0 0 0 0 0 0 0 0 0 0 0 4 14 16 1 6 7 0 0 1 7 22 18 7 2 5
0 0 0 0 0 0 0 0 0 0 0 0 0 0 0 0 0 0 0 0 0 0 0 0 0 0 0 0 0 1 4 4 0 0 0 0 28 14 0 0 0 2 4 4
0 0 0 0 0 0 0 0 0 0 0 0 0 0 0 0 0 0 0 0 0 0 0 0 0 0 0 0 0 0 5 0 0 0 0 56 2 0 0 0 0 4 28 45
0 0 0 0 0 0 0 0 0 0 0 0 0 0 0 0 0 0 0 0 0 0 0 0 0 0 0 0 0 0 0 0 1 24 0 0 0 0 0 0 0 2 7 33
0 0 0 0 0 0 0 0 0 0 0 0 0 0 0 0 0 0 0 0 0 0 0 0 0 0 0 0 0 0 0 0 0 0 0 0 0 0 0 0 0 0 0 1
0 0 0 0 0 0 0 0 0 0 0 0 0 0 0 0 0 0 0 0 0 0 0 0 0 0 0 0 0 0 0 0 0 0 0 0 0 0 0 0 0 0 0 0
0 0 0 0 0 0 0 0 0 0 0 0 0 0 0 0 0 0 0 0 0 0 0 0 0 0 0 0 0 0 0 0 0 0 0 0 0 0 0 0 0 0 0 0
0 0 0 0 0 0 0 0 0 0 0 0 0 0 0 0 0 0 0 0 0 0 0 0 0 0 0 0 0 0 0 0 0 0 0 12 9 5 2 0 0 0 0 0
0 0 0 0 0 0 0 0 0 0 0 0 0 0 0 0 0 0 0 0 0 0 0 0 0 0 0 0 0 0 0 0 0 0 0 8 32 30 19 0 0 0 0 0
0 0 0 0 0 0 0 0 0 0 0 0 0 0 0 0 0 0 0 0 0 0 0 0 0 0 0 0 0 0 0 0 0 0 0 1 18 10 0 0 0 0 0 0
0 0 0 0 0 0 0 0 0 0 0 0 0 0 0 0 0 0 0 0 0 0 0 0 0 0 0 0 0 0 0 0 0 0 0 1 1 0 23 0 0 0 0 0
0 0 0 0 0 0 0 0 0 0 0 0 0 0 0 0 0 0 0 0 0 0 0 0 0 0 0 0 0 0 0 0 0 0 0 0 0 0 0 0 0 0 0 0
0 0 0 0 0 0 0 0 0 0 0 0 0 0 0 0 0 6 17 0 0 0 0 0 0 0 0 0 0 0 0 0 0 0 0 0 0 0 8 0 0 0 0 5
0 0 0 0 0 0 0 0 0 0 0 0 0 0 0 0 0 10 5 0 0 0 0 0 0 0 0 0 0 0 0 0 0 0 0 0 0 7 8 0 0 0 0 2
0 0 0 0 0 0 0 0 0 0 0 0 0 0 0 0 1 2 0 0 0 0 0 0 0 0 0 0 0 0 0 0 0 0 0 0 0 2 0 0 0 1 0 0
0 0 0 0 0 0 0 0 0 0 0 0 0 0 0 0 0 0 0 0 0 0 0 0 0 0 0 0 0 0 0 0 0 0 0 0 0 0 0 0 0 0 0 0
0 0 0 0 0 0 0 0 0 0 0 0 0 0 0 0 0 0 0 0 0 0 0 0 0 0 0 0 0 0 0 0 0 0 0 0 0 0 0 0 0 0 0 0
0 0 0 0 0 0 0 4 0 0 0 0 0 0 0 0 0 0 0 0 0 0 0 0 0 0 0 0 0 0 0 0 0 0 0 0 0 0 0 0 0 0 0 0
1 0 0 0 0 1 0 0 0 0 0 0 0 0 0 0 0 0 0 0 0 0 0 0 0 0 0 0 0 0 0 0 0 0 0 0 0 0 13 0 0 0 0 0
1 0 0 0 24 7 0 0 18 0 0 0 0 0 0 0 0 0 0 0 0 0 0 0 0 0 0 0 0 0 0 0 0 0 0 0 0 0 0 0 0 0 0 0
0 7 4 1 0 0 0 0 0 0 0 0 0 0 0 0 0 0 0 0 4 0 0 0 0 0 0 0 0 0 0 0 0 0 0 0 0 0 0 0 0 0 0 0
1 6 2 0 0 0 0 0 0 0 0 0 0 0 0 0 0 0 0 0 0 23 0 0 0 0 0 0 0 0 0 0 0 0 0 0 0 0 0 0 0 8 18 0
1 4 0 0 0 0 0 0 0 0 0 0 0 0 0 0 0 0 0 0 0 38 14 2 0 0 0 0 0 0 0 0 0 0 0 0 0 0 0 10 12 12 7 0
0 0 0 0 0 0 0 0 0 0 0 0 0 0 0 0 0 0 0 0 0 52 37 22 6 0 0 0 0 0 0 0 0 0 0 0 0 0 0 0 0 0 0 0

GFSCGP_con_mlcape_003.txt.gz
CAPE
0 0 0 0 0 0 0 0 0 0 0 0 0 0 0 0 0 0 0 0 0 0 0 0 0 0 0 0 0 0 0 0 7 14 0 0 0 0 0 1 18 18 8 0
0 0 0 0 0 0 0 0 0 0 0 0 0 0 0 0 0 0 0 0 0 0 0 0 0 0 0 0 0 0 0 0 5 0 0 0 0 0 0 0 31 41 18 6
0 0 0 0 0 0 0 0 0 0 0 0 0 0 0 0 0 0 0 0 0 0 0 0 0 0 0 0 0 0 0 0 0 0 0 0 0 0 0 0 0 5 0 0
0 0 0 0 0 0 0 0 0 0 0 0 0 0 0 0 0 0 0 0 0 0 0 0 0 0 0 0 0 0 0 0 0 0 0 0 0 0 0 0 0 2 2 23
0 0 0 0 0 0 0 0 0 0 0 0 0 0 0 0 0 0 0 0 0 0 0 0 0 0 0 0 0 0 0 0 0 0 0 0 0 0 0 0 0 0 8 21
0 0 0 0 0 0 0 0 0 0 0 0 0 0 0 0 0 0 0 0 0 0 0 0 0 0 0 0 0 0 0 0 0 0 0 0 0 0 0 0 0 0 0 34
0 0 0 0 0 0 0 0 0 0 0 0 0 0 0 0 0 0 0 0 0 0 0 0 0 0 0 0 0 0 0 0 0 5 0 0 0 0 0 0 0 0 0 1
0 0 0 0 0 0 0 0 0 0 0 0 0 0 0 0 0 0 0 0 0 0 0 0 0 0 0 0 0 0 0 0 0 0 0 0 0 0 0 0 0 0 0 0
0 0 0 0 0 0 0 0 0 0 0 0 0 0 0 0 0 0 0 0 0 0 0 0 0 0 0 0 0 0 0 0 0 0 0 0 0 0 0 0 0 0 0 0
0 0 0 0 0 0 0 0 0 0 0 0 0 0 0 0 0 0 0 0 0 0 0 0 0 0 0 0 0 0 0 0 0 0 0 0 5 0 0 0 0 0 0 0
0 0 0 0 0 0 0 0 0 0 0 0 0 0 0 0 0 0 0 0 0 0 0 0 0 0 0 0 0 0 0 0 0 0 0 3 1 0 0 0 0 0 0 0
0 0 0 0 0 0 0 0 0 0 0 0 0 0 0 0 0 0 0 0 0 0 0 0 0 0 0 0 0 0 0 0 0 0 0 4 0 0 0 0 0 0 0 0
0 0 0 0 0 0 0 0 0 0 0 0 0 0 0 0 0 0 0 0 0 0 0 0 0 0 0 0 0 0 0 0 0 0 0 1 0 0 0 0 0 0 0 0
0 0 0 0 0 0 0 0 0 0 0 0 0 0 0 0 0 0 0 0 0 0 0 0 0 0 0 0 0 0 0 0 0 0 0 0 0 0 0 0 0 0 0 0
0 0 0 0 0 0 0 0 0 0 0 0 0 0 0 0 0 0 0 0 0 0 0 0 0 0 0 0 0 0 0 0 0 0 0 0 0 0 0 0 0 0 0 0
0 0 0 0 0 0 0 0 0 0 0 0 0 0 0 0 0 0 0 0 0 0 0 0 0 0 0 0 0 0 0 0 0 0 0 0 0 0 0 0 0 0 0 0
0 0 0 0 0 0 0 0 0 0 0 0 0 0 0 0 0 0 0 0 0 0 0 0 0 0 0 0 0 0 0 0 0 0 0 0 0 0 0 0 0 0 0 0
0 0 0 0 0 0 0 0 0 0 0 0 0 0 0 0 0 0 0 0 0 0 0 0 0 0 0 0 0 0 0 0 0 0 0 0 0 0 0 0 0 0 0 0
0 0 0 0 0 0 0 0 0 0 0 0 0 0 0 0 0 0 0 0 0 0 0 0 0 0 0 0 0 0 0 0 0 0 0 0 0 0 0 0 0 0 0 0
0 0 0 0 0 0 0 0 0 0 0 0 0 0 0 0 0 0 0 0 0 0 0 0 0 0 0 0 0 0 0 0 0 0 0 0 0 0 0 0 0 0 0 0
0 0 0 0 0 0 0 0 0 0 0 0 0 0 0 0 0 0 0 0 0 0 0 0 0 0 0 0 0 0 0 0 0 0 0 0 0 0 0 0 0 0 0 0
0 0 1 1 0 0 0 0 0 0 0 0 0 0 0 0 0 0 0 0 0 0 0 0 0 0 0 0 0 0 0 0 0 0 0 0 0 0 0 0 0 0 0 0
0 0 0 2 1 0 0 0 0 0 0 0 0 0 0 0 0 0 0 0 0 0 0 0 0 0 0 0 0 0 0 0 0 0 0 0 0 0 0 0 0 0 0 0
1 2 3 0 0 0 0 0 0 0 0 0 0 0 0 0 0 0 0 0 0 0 0 0 0 0 0 0 0 0 0 0 0 0 0 0 0 0 0 0 0 0 0 0
0 0 0 2 0 0 0 0 0 0 0 0 0 0 0 0 0 0 0 0 0 0 0 0 0 0 0 0 0 0 0 0 0 0 0 0 0 0 0 0 0 0 0 0
0 0 0 0 0 0 0 0 0 0 0 0 0 0 0 0 0 0 0 0 0 0 0 0 0 0 0 0 0 0 0 0 0 0 0 0 0 0 0 0 0 0 0 0

GFSCGP_con_mlcape_006.txt.gz
CAPE
0 0 0 0 0 0 0 0 0 0 0 0 0 0 0 0 0 0 0 0 0 0 0 0 0 0 0 0 0 0 0 0 0 0 2 0 3 0 0 0 0 0 7 7
0 0 0 0 0 0 0 0 0 0 0 0 0 0 0 0 0 0 0 0 0 0 0 0 0 0 0 0 0 0 0 0 0 0 0 0 0 0 0 0 5 8 7 0
0 0 0 0 0 0 0 0 0 0 0 0 0 0 0 0 0 0 0 0 0 0 0 0 0 0 0 0 0 0 0 0 0 1 0 0 0 0 0 0 0 0 0 3
0 0 0 0 0 0 0 0 0 0 0 0 0 0 0 0 0 0 0 0 0 0 0 0 0 0 0 0 0 0 0 0 0 0 0 0 0 0 0 0 0 0 0 5
0 0 0 0 0 0 0 0 0 0 0 0 0 0 0 0 0 0 0 0 0 0 0 0 0 0 0 0 0 0 0 0 0 0 0 0 0 0 0 0 0 0 0 10
0 0 0 0 0 0 0 0 0 0 0 0 0 0 0 0 0 0 0 0 0 0 0 0 0 0 0 0 0 0 0 0 0 0 0 0 0 0 0 0 0 0 0 20
0 0 0 0 0 0 0 0 0 0 0 0 0 0 0 0 0 0 0 0 0 0 0 0 0 0 0 0 0 0 0 0 0 0 0 0 0 0 0 0 0 0 0 10
0 0 0 0 0 0 0 0 0 0 0 0 0 0 0 0 0 0 0 0 0 0 0 0 0 0 0 0 0 0 0 0 0 0 0 0 0 0 0 0 0 0 0 0
0 0 0 0 0 0 0 0 0 0 0 0 0 0 0 0 0 0 0 0 0 0 0 0 0 0 0 0 0 0 0 0 0 0 0 0 0 0 0 0 0 0 0 0
0 0 0 0 0 0 0 0 0 0 0 0 0 0 0 0 0 0 0 0 0 0 0 0 0 0 0 0 0 0 0 0 0 0 0 0 0 0 0 0 0 0 0 0
0 0 0 0 0 0 0 0 0 0 0 0 0 0 0 0 0 0 0 0 0 0 0 0 0 0 0 0 0 0 0 0 0 0 0 1 1 0 0 0 0 0 0 0
0 0 0 0 0 0 0 0 0 0 0 0 0 0 0 0 0 0 0 0 0 0 0 0 0 0 0 0 0 0 0 0 0 0 0 1 2 0 0 0 0 0 0 0
0 0 0 0 0 0 0 0 0 0 0 0 0 0 0 0 0 0 0 0 0 0 0 0 0 0 0 0 0 0 0 0 0 0 0 0 3 0 0 0 0 0 0 0
0 0 0 0 0 0 0 0 0 0 0 0 0 0 0 0 0 0 0 0 0 0 0 0 0 0 0 0 0 0 0 0 0 0 0 0 0 0 0 0 0 0 0 0
0 0 0 0 0 0 0 0 0 0 0 0 0 0 0 0 0 0 0 0 0 0 0 0 0 0 0 0 0 0 0 0 0 0 0 0 0 0 0 0 0 0 0 0
0 0 0 0 0 0 0 0 0 0 0 0 0 0 0 0 0 0 0 0 0 0 0 0 0 0 0 0 0 0 0 0 0 0 0 0 0 0 0 0 0 0 0 0
0 0 0 0 0 0 0 0 0 0 0 0 0 0 0 0 0 0 0 0 0 0 0 0 0 0 0 0 0 0 0 0 0 0 0 0 0 0 0 0 0 0 0 0
0 0 0 0 0 0 0 0 0 0 0 0 0 0 0 0 0 0 0 0 0 0 0 0 0 0 0 0 0 0 0 0 0 0 0 0 0 0 0 0 0 0 0 0
0 2 0 0 0 0 0 0 0 0 0 0 0 0 0 0 0 0 0 0 0 0 0 0 0 0 0 0 0 0 0 0 0 0 0 0 0 0 0 0 0 0 0 0
0 0 0 0 0 0 1 0 0 0 0 0 0 0 0 0 0 0 0 0 0 0 0 0 0 0 0 0 0 0 0 0 0 0 0 0 0 0 0 0 0 0 0 0
0 1 0 0 0 0 0 0 0 0 0 0 0 0 0 0 0 0 0 0 0 0 0 0 0 0 0 0 0 0 0 0 0 0 0 0 0 0 0 0 0 0 0 0
0 0 0 0 0 0 0 0 0 0 0 0 0 0 0 0 0 0 0 0 0 0 0 0 0 0 0 0 0 0 0 0 0 0 0 0 0 0 0 0 0 0 0 0
0 0 0 1 1 0 0 0 0 0 0 0 0 0 0 0 0 0 0 0 0 0 0 0 0 0 0 0 0 0 0 0 0 0 0 0 0 0 0 0 0 0 0 0
0 1 0 0 0 0 0 0 0 0 0 0 0 0 0 0 0 0 0 0 0 0 0 0 0 0 0 0 0 0 0 0 0 0 0 0 0 0 0 0 0 0 0 0
0 0 0 0 0 0 0 0 0 0 0 0 0 0 0 0 0 0 0 0 0 0 0 0 0 0 0 0 0 0 0 0 0 0 0 0 0 0 0 0 0 0 0 0
2 0 0 0 0 0 0 0 0 0 0 0 0 0 0 0 0 0 0 0 0 0 0 0 0 0 0 0 0 0 0 0 0 0 0 0 0 0 0 0 0 0 0 0

GFSCGP_con_mlcape_009.txt.gz
CAPE
0 0 0 0 0 0 0 0 0 0 0 0 0 0 0 0 0 0 0 0 0 0 0 0 0 0 0 0 0 0 0 0 0 0 0 2 28 61 78 77 95 162 224 160
0 0 0 0 0 0 0 0 0 0 0 0 0 0 0 0 0 0 0 0 0 0 0 0 0 0 0 0 0 0 0 0 0 0 0 40 82 110 103 103 143 254 268 224
0 0 0 0 0 0 0 0 0 0 0 0 0 0 0 0 0 0 0 0 0 0 0 0 0 0 0 0 0 0 0 0 0 0 0 10 15 7 50 59 104 124 79 51
0 0 0 0 0 0 0 0 0 0 0 0 0 0 0 0 0 0 0 0 0 0 0 0 0 0 0 0 0 0 0 0 0 0 0 11 83 82 5 31 33 55 0 67
0 0 0 0 0 0 0 0 0 0 0 0 0 0 0 0 0 0 0 0 0 0 0 0 0 0 0 0 0 0 0 0 0 0 3 48 80 0 0 4 0 26 54 99
0 0 0 0 0 0 0 0 0 0 0 0 0 0 0 0 0 0 0 0 0 0 0 0 0 0 0 0 0 0 0 0 0 2 14 95 27 0 0 0 17 27 57 78
0 0 0 0 0 0 0 0 0 0 0 0 0 0 0 0 0 0 0 0 0 0 0 0 0 0 0 0 0 0 0 0 0 4 11 15 3 0 0 0 5 27 32 32
0 0 0 0 0 0 0 0 0 0 0 0 0 0 0 0 0 0 0 0 0 0 0 0 0 0 0 0 0 0 0 0 0 3 32 0 0 0 0 0 0 0 19 58
0 0 0 0 0 0 0 0 0 0 0 0 0 0 0 0 0 0 0 0 0 0 0 0 0 0 0 0 0 0 0 0 0 2 0 0 0 0 0 0 0 2 2 16
0 0 0 0 0 0 0 0 0 0 0 0 0 0 0 0 0 0 0 0 0 0 0 0 0 0 0 0 0 0 0 0 0 0 0 0 0 0 0 0 0 2 0 17
0 0 0 0 0 0 0 0 0 0 0 0 0 0 0 0 0 0 0 0 0 0 0 0 0 0 0 0 0 0 0 0 0 0 0 1 1 0 0 0 0 0 0 0
0 0 0 0 0 0 0 0 0 0 0 0 0 0 0 0 0 0 0 0 0 0 0 0 0 0 0 0 0 0 0 0 0 0 0 6 9 5 0 0 0 0 0 0
1 0 0 0 0 0 0 0 0 0 0 0 0 0 0 0 0 0 0 0 0 0 0 0 0 0 0 0 0 0 0 0 0 0 0 16 20 17 1 0 0 0 0 0
3 0 0 0 0 0 0 0 0 0 0 0 0 0 0 0 0 0 0 0 0 0 0 0 0 0 0 0 0 0 0 0 0 0 0 15 11 0 0 0 0 0 0 0
1 0 0 0 0 0 0 0 0 0 0 0 0 0 0 0 0 0 0 0 0 0 0 0 0 0 0 0 0 0 0 0 0 0 0 10 0 0 0 0 0 0 3 44
0 0 0 0 0 0 0 0 0 0 0 0 0 0 0 0 0 0 0 0 0 0 0 0 0 0 0 0 0 0 0 0 0 0 0 0 0 0 0 0 0 0 0 62
0 0 0 0 0 0 0 0 0 0 0 0 0 0 0 0 0 0 0 0 0 0 0 0 0 0 0 0 0 0 0 0 0 0 0 0 0 0 0 0 0 0 12 63
5 2 0 0 0 0 0 0 0 0 0 0 0 0 0 0 0 0 0 0 0 0 0 0 0 0 0 0 0 0 0 0 0 0 0 0 0 0 0 0 1 0 6 17
4 0 0 0 0 0 0 0 0 0 0 0 0 0 0 0 0 0 0 0 0 0 0 0 0 0 0 0 0 0 0 0 0 0 0 0 0 0 0 0 0 0 0 0
1 1 1 0 0 0 0 0 0 0 0 0 0 0 0 0 0 0 0 0 0 0 0 0 0 0 0 0 0 0 0 0 0 0 0 0 0 0 0 0 0 0 0 0
1 1 1 0 0 0 0 0 0 0 0 0 0 0 0 0 0 0 0 0 0 0 0 0 0 0 0 0 0 0 0 0 0 0 0 0 0 0 0 0 0 0 0 0
0 0 0 0 0 0 0 0 0 0 0 0 0 0 0 0 0 0 0 0 0 0 0 0 0 0 0 0 0 0 0 0 0 0 0 0 0 0 0 0 0 0 0 0
0 0 0 0 1 0 0 0 0 0 0 0 0 0 0 0 0 0 0 0 0 0 0 0 0 0 0 0 0 0 0 0 0 0 0 0 0 0 0 0 0 0 0 0
2 8 1 1 1 0 0 0 0 0 0 0 0 0 0 0 0 0 0 0 0 0 0 0 0 0 0 0 0 0 0 0 0 0 0 0 0 0 0 0 0 0 0 0
8 6 2 1 1 0 0 0 0 0 0 0 0 0 0 0 0 0 0 0 0 0 0 0 0 0 0 0 0 0 0 0 0 0 0 0 0 0 0 0 0 0 0 0
4 3 1 0 0 2 0 0 0 0 0 0 0 0 0 0 0 0 0 0 0 0 0 0 0 0 0 0 0 0 0 0 0 0 0 0 0 0 0 0 0 0 0 0

GFSCGP_con_mlcape_012.txt.gz
CAPE
0 0 0 0 0 0 0 0 0 0 0 0 0 0 0 0 0 0 0 0 0 0 0 0 0 0 0 0 0 50 253 612 513 279 45 17 24 159 306 385 581 578 551 494
0 0 0 0 0 0 0 0 0 0 0 0 0 0 0 0 0 0 0 0 0 0 0 0 0 0 0 0 9 99 279 442 242 41 3 15 53 157 236 373 598 585 545 423
0 0 0 0 0 0 0 0 0 0 0 0 0 0 0 0 0 0 0 0 0 0 0 0 0 0 0 0 42 144 258 245 45 43 154 340 432 362 223 379 410 460 470 368
0 0 0 0 0 0 0 0 0 0 0 0 0 0 0 0 0 0 0 0 0 0 0 0 0 0 0 2 19 115 157 121 136 135 28 30 7 28 137 236 238 298 291 161
0 0 0 0 0 0 0 0 0 0 0 0 0 0 0 0 0 0 0 0 0 0 0 0 0 0 0 0 9 73 106 119 164 91 59 115 120 134 216 127 295 280 279 238
0 0 0 0 0 0 0 0 0 0 0 0 0 0 0 0 0 0 0 0 0 0 0 0 0 0 0 0 16 52 95 101 133 120 213 258 452 349 160 145 144 176 232 323
0 0 0 0 0 0 0 0 0 0 0 0 0 0 0 0 0 0 0 0 0 1 0 0 0 0 0 0 0 23 29 75 79 109 184 457 554 452 339 207 132 196 185 271
0 0 0 0 0 0 0 0 0 0 0 0 0 0 0 0 0 0 0 0 0 7 0 0 0 0 0 0 0 0 16 23 39 41 208 370 503 133 80 112 53 118 148 123
7 0 0 0 0 0 0 0 0 0 0 0 0 0 0 0 0 0 0 0 0 0 0 0 0 0 0 0 0 11 8 0 0 40 341 343 377 122 123 126 68 93 166 65
0 1 0 0 0 0 0 0 0 0 0 0 0 0 0 0 0 0 0 0 0 1 0 0 0 0 0 0 17 15 2 0 10 224 247 258 215 241 133 68 5 89 89 42
0 0 7 0 0 0 0 0 0 0 0 0 0 0 0 0 0 0 0 0 0 0 0 0 0 0 0 7 36 39 0 1 19 153 186 172 189 206 104 52 8 30 64 52
1 5 0 0 0 0 0 0 0 0 0 0 0 0 0 0 0 0 0 6 5 0 0 0 0 0 0 15 13 0 0 0 12 51 92 160 98 191 95 24 23 8 20 14
0 0 0 6 0 0 0 0 0 0 0 0 0 0 0 0 0 0 0 0 1 0 0 0 0 0 0 0 0 0 0 0 0 30 55 180 105 92 82 17 24 8 9 3
16 0 0 6 0 0 0 0 0 0 0 0 0 0 0 0 0 0 0 0 3 0 0 0 0 0 0 0 0 0 0 0 0 10 21 126 64 87 62 9 15 12 10 3
10 0 0 0 0 0 0 0 0 0 0 0 0 0 0 0 0 0 0 0 0 7 0 0 0 0 0 0 0 0 0 0 0 0 18 69 236 131 16 11 16 15 12 63
19 0 0 0 0 0 0 0 0 0 0 0 0 0 0 0 0 0 0 0 23 34 0 0 0 0 0 0 0 0 0 0 0 0 11 54 95 20 12 6 6 48 108 144
15 4 0 0 0 0 0 0 0 0 0 0 0 0 0 0 0 0 0 0 4 57 1 0 0 0 0 0 0 0 0 0 0 0 18 61 21 0 1 5 33 90 151 245
5 1 8 0 1 2 34 0 0 0 0 0 0 0 0 0 0 0 0 0 0 51 19 5 1 5 0 0 0 0 0 0 0 0 15 24 0 7 4 18 36 102 203 315
2 6 0 27 19 15 25 0 0 0 0 0 0 0 0 0 0 0 0 0 0 8 69 28 13 36 0 0 0 0 0 0 0 0 19 24 1 11 45 114 270 271 245 288
0 8 3 22 13 33 5 0 0 0 0 0 0 0 0 0 0 0 0 0 0 64 167 94 40 42 0 0 0 0 0 0 0 0 6 63 5 0 17 49 47 259 261 129
1 3 1 0 38 10 0 0 0 0 0 0 0 0 0 0 0 0 0 0 0 7 122 173 85 54 0 0 0 0 0 0 0 0 0 38 69 43 136 185 34 23 8 17
0 2 3 0 26 5 0 0 0 0 0 0 0 0 0 0 0 0 0 0 0 0 55 167 135 80 0 0 0 0 0 0 0 0 0 0 39 54 159 321 63 0 0 96
0 0 0 1 2 6 1 1 0 1 0 0 0 0 0 0 0 0 0 0 0 0 46 152 156 88 0 0 0 0 0 0 0 0 0 0 0 39 98 141 144 1 2 1
3 5 0 1 2 8 3 1 0 0 0 0 0 0 0 0 0 0 0 0 4 0 42 118 161 108 0 0 0 0 0 0 0 0 0 0 0 28 55 27 30 0 0 0
8 10 1 1 13 11 1 0 0 0 0 0 0 0 0 0 0 0 0 3 18 19 12 127 162 145 1 0 0 0 0 0 0 0 0 0 0 0 100 6 39 0 0 0
3 3 2 0 14 13 10 0 0 0 0 0 0 0 0 0 0 0 0 113 222 144 3 122 172 196 19 0 0 0 0 0 0 0 0 0 0 0 0 41 40 0 0 0

GFSCGP_con_mlcape_015.txt.gz
CAPE
0 0 0 0 0 0 0 0 0 0 0 1 0 2 23 1 0 0 0 0 0 0 0 0 0 7 62 87 417 721 792 1214 1792 1590 1099 570 334 322 289 372 472 674 701 595
0 0 0 0 0 0 0 0 0 0 0 4 0 10 5 1 0 0 0 0 0 0 0 0 0 223 138 300 421 462 719 1303 1584 1196 678 326 281 230 350 360 497 707 652 659
0 0 0 0 0 0 0 0 0 0 0 0 1 0 0 0 0 0 0 0 0 0 0 0 0 284 231 321 422 502 736 1284 1099 647 383 235 277 418 455 183 367 693 536 547
0 0 0 0 0 0 0 0 0 0 0 0 0 0 0 0 0 0 0 0 0 0 0 0 0 342 339 392 483 606 900 868 474 307 370 494 337 135 135 357 228 516 393 302
0 0 0 0 0 0 0 0 0 0 0 0 0 0 0 0 0 0 0 0 0 0 0 0 49 336 348 388 499 657 691 427 340 351 302 267 100 78 212 65 354 564 554 324
0 0 0 0 0 0 0 0 0 0 0 0 0 0 0 0 0 0 0 0 0 0 0 17 331 324 339 329 482 552 466 389 369 220 298 318 294 216 109 241 391 436 487 534
0 0 0 0 0 0 0 0 0 0 0 0 0 0 0 0 0 0 0 0 0 13 134 227 253 269 263 335 388 421 350 396 250 223 283 323 398 473 481 390 211 390 310 504
0 0 0 0 0 0 0 0 0 0 0 0 0 0 0 0 0 0 0 0 63 198 206 214 227 255 280 316 285 206 284 241 170 196 193 264 336 249 131 236 221 128 374 376
10 0 0 0 0 0 0 0 0 0 0 0 0 0 0 0 0 0 0 0 77 281 304 283 267 253 244 224 177 198 213 163 150 118 209 208 313 184 439 399 155 135 285 65
28 9 0 0 0 0 0 0 0 0 0 0 0 0 0 0 0 0 0 0 28 303 310 259 248 239 214 157 138 187 157 144 60 113 166 203 270 275 258 255 166 23 151 34
0 47 23 1 1 0 0 0 0 0 0 0 0 0 0 0 5 0 0 6 239 336 282 243 210 209 203 154 200 229 121 29 26 127 86 192 140 221 122 119 41 77 9 6
39 14 31 13 10 0 0 0 0 0 0 0 4 1 0 0 1 34 91 214 362 282 233 193 183 205 170 203 238 187 23 0 25 52 117 75 94 269 254 66 7 20 13 8
29 10 1 70 23 0 0 0 0 0 0 0 0 0 0 0 11 50 90 261 302 232 173 148 170 153 201 249 222 31 0 0 14 64 71 51 64 289 293 63 6 19 17 8
8 1 15 48 29 0 0 0 0 0 0 0 0 0 0 3 8 23 176 296 232 154 160 142 122 122 196 205 54 0 0 0 5 36 55 142 256 276 163 10 10 13 10 9
7 0 0 0 1 28 2 0 0 0 0 0 0 0 0 27 0 0 117 231 188 176 146 143 105 93 150 73 0 0 0 0 7 30 62 137 267 216 12 11 17 14 10 13
1 5 0 0 0 0 16 3 0 3 0 0 0 0 0 0 0 0 7 130 206 208 144 157 84 105 104 8 0 0 0 0 0 22 99 179 78 26 26 20 21 15 11 23
14 18 21 0 1 0 19 5 0 0 0 0 0 0 0 0 1 0 0 25 196 239 177 160 96 135 77 0 0 0 0 0 4 46 198 104 16 15 34 43 30 85 77 62
3 2 8 3 1 3 13 8 1 5 0 0 0 0 0 0 0 0 4 25 2 254 216 181 154 203 48 0 0 0 0 0 4 73 187 76 14 12 41 63 86 149 294 395
0 3 6 5 0 72 33 35 30 11 4 0 0 0 0 0 0 0 3 4 89 142 329 300 253 290 37 0 0 0 0 0 0 100 171 60 73 125 124 138 206 299 529 604
10 24 3 5 0 1 36 7 0 31 18 0 0 0 0 0 0 0 0 0 5 382 358 381 322 346 29 0 0 0 0 0 0 77 153 120 180 210 208 275 433 468 421 268
0 4 0 53 49 26 1 2 0 0 2 0 0 0 0 0 0 0 0 0 0 122 525 468 386 403 30 0 0 0 0 0 0 23 158 151 193 185 304 154 234 266 247 188
1 12 30 46 43 24 0 0 12 1 2 0 1 0 0 0 0 0 0 0 0 53 432 576 489 474 54 0 0 0 0 0 0 0 121 256 220 209 382 247 34 9 87 302
0 1 0 0 0 2 1 1 0 0 2 0 0 0 0 0 0 0 3 14 65 85 357 572 572 549 80 0 0 0 0 0 0 0 40 221 308 273 373 333 4 1 45 194
2 4 1 1 3 0 4 0 0 1 0 0 0 0 0 0 0 0 21 143 88 256 330 540 649 603 195 0 0 0 0 0 0 0 0 50 223 187 256 147 17 0 0 34
3 3 1 4 0 1 5 2 2 1 0 0 0 0 0 0 0 0 6 350 335 391 243 537 670 656 331 0 0 0 0 0 0 0 0 0 14 106 221 58 4 1 0 0
9 4 2 1 6 7 4 1 2 0 0 0 0 0 0 0 0 0 0 20 305 608 344 478 643 687 455 3 0 0 0 0 0 0 0 0 0 12 179 56 85 0 0 0

GFSCGP_con_mlcape_018.txt.gz
CAPE
0 0 0 0 0 0 0 0 0 0 0 0 0 0 0 0 0 2 0 0 0 0 2 0 0 0 0 108 312 685 1064 1920 2256 2261 1900 1810 1285 673 503 432 523 582 722 703
0 0 0 0 0 0 0 0 0 0 0 0 3 1 0 0 0 1 0 0 0 0 0 0 0 0 160 247 472 989 1389 1981 2251 2226 1854 1528 883 568 488 416 553 674 716 734
0 0 0 0 0 0 0 0 0 0 0 0 0 0 0 0 0 0 0 0 0 0 0 0 0 0 367 443 653 950 1097 1973 2104 1915 1538 1054 582 566 494 639 659 785 655 647
0 0 0 0 0 0 0 0 0 0 0 0 0 0 0 0 0 0 0 0 0 0 0 0 0 323 475 614 743 884 1471 1963 1746 1377 975 454 287 447 497 375 541 773 812 466
0 0 0 0 0 0 0 0 0 0 0 0 0 0 0 0 0 0 0 0 0 0 0 0 0 572 609 718 843 1059 1543 1543 1276 770 388 509 524 498 506 329 556 423 639 394
0 0 0 0 0 0 0 0 0 0 0 0 0 0 0 0 0 0 0 0 0 0 0 0 352 605 699 812 1026 1320 1219 1105 539 754 660 342 252 460 475 187 491 453 434 605
0 0 0 0 0 0 0 0 0 0 0 0 0 0 0 0 0 0 0 0 0 22 9 415 535 673 724 840 1046 1051 867 746 450 547 467 651 564 428 510 573 263 460 433 390
0 1 0 0 0 0 0 0 0 0 0 0 0 0 0 0 0 0 0 0 16 213 420 565 613 674 677 870 904 761 809 654 471 480 370 540 572 350 487 316 325 264 279 305
10 20 1 0 0 0 0 0 0 0 0 0 0 0 0 0 0 0 0 0 208 315 446 532 574 592 705 800 756 714 664 519 432 452 536 452 408 494 444 445 284 237 303 29
4 0 0 0 0 0 0 0 0 0 0 0 0 0 20 2 0 0 0 10 375 538 493 515 553 680 734 629 673 552 474 380 429 339 477 375 165 299 215 334 109 91 44 47
6 1 0 0 2 0 0 0 0 0 0 0 0 3 52 3 1 0 0 0 451 563 545 545 559 662 589 537 515 555 445 387 298 366 303 204 190 71 67 11 34 172 9 6
32 14 0 16 26 0 0 0 0 0 0 0 0 0 1 0 14 17 0 100 504 531 498 450 469 492 410 420 465 392 338 194 220 254 232 138 191 128 95 52 21 8 4 13
13 2 4 14 15 16 6 0 0 0 4 0 0 0 0 0 3 38 155 535 541 514 392 366 418 396 406 453 443 360 151 91 152 189 135 134 212 260 347 2 9 2 9 8
0 7 1 11 44 3 22 1 0 4 0 0 0 9 5 13 3 120 413 532 468 397 365 362 369 367 413 466 388 121 50 34 77 209 149 191 330 240 140 11 5 16 14 4
0 0 16 3 0 2 3 20 0 6 0 0 2 1 66 96 0 169 445 469 391 310 327 370 337 368 481 464 170 9 4 30 66 190 239 220 432 405 16 7 22 4 5 6
6 0 8 13 0 8 0 0 1 0 0 0 4 3 49 0 0 102 345 320 266 309 310 303 319 376 425 259 7 0 2 39 46 384 255 168 220 216 8 9 14 6 9 14
17 6 0 1 1 0 0 0 2 0 11 3 2 23 78 45 20 0 96 266 269 254 284 299 289 350 300 81 0 0 1 8 61 291 164 316 98 93 20 14 9 10 12 28
7 1 9 16 0 0 37 11 12 11 40 32 8 0 59 32 0 0 33 160 184 278 306 339 344 414 272 8 0 1 0 0 54 229 201 94 47 15 19 8 51 26 16 52
1 0 6 0 0 8 66 50 89 10 9 70 19 44 18 0 0 0 4 20 84 299 418 440 462 465 239 2 0 0 0 0 69 252 219 117 66 68 70 30 86 59 40 127
1 2 3 2 0 0 3 0 21 114 0 2 36 41 2 0 0 9 12 10 26 233 670 492 523 537 203 0 0 0 0 0 79 250 205 152 198 145 61 80 174 164 135 222
1 11 6 0 2 1 2 0 0 75 38 17 9 0 0 0 0 0 0 20 53 154 539 578 638 610 218 0 0 0 0 0 28 218 218 259 248 523 486 348 326 296 189 149
0 0 9 13 16 4 0 0 0 15 6 1 0 0 0 0 0 0 0 36 94 177 652 699 807 699 160 0 0 0 0 0 0 189 254 384 360 446 319 273 236 230 122 73
0 2 0 1 0 0 3 0 0 0 0 0 0 0 0 0 0 13 57 122 138 217 513 777 820 742 148 2 0 0 0 0 0 184 424 412 246 642 400 158 166 69 215 131
0 3 1 3 3 0 2 0 0 0 0 0 0 0 0 0 0 5 149 380 237 355 365 795 874 841 293 8 0 0 0 0 0 164 532 434 292 714 523 244 13 30 218 310
3 2 1 3 0 2 1 0 0 0 0 2 0 0 0 0 0 0 35 156 505 481 395 724 961 970 521 35 0 0 0 0 0 52 385 598 434 547 379 275 0 15 2 92
15 7 1 0 6 3 1 0 0 0 0 0 0 0 0 0 0 0 0 24 149 611 632 632 1050 1055 718 100 0 0 0 0 8 2 194 267 368 250 401 212 0 0 0 0

GFSCGP_con_mlcape_021.txt.gz
CAPE
0 0 0 0 0 0 0 0 0 0 0 0 0 0 0 0 0 0 0 0 0 0 0 0 0 0 0 31 14 225 533 1246 1705 1801 1695 1430 1287 967 718 276 335 415 492 686
0 0 0 0 0 0 0 0 0 0 0 0 0 0 0 0 0 0 0 0 0 0 0 0 0 0 0 12 289 751 1252 1605 1925 1835 1738 1386 1129 665 486 330 300 396 471 477
0 0 0 0 0 0 0 0 0 0 0 0 0 0 0 0 0 0 0 0 0 0 0 0 0 0 7 137 451 845 1571 1838 2039 1857 1667 1354 811 553 485 253 301 373 435 538
0 0 0 0 0 0 0 0 0 0 0 0 0 0 0 0 0 0 0 0 0 0 0 0 0 0 25 386 685 951 1986 2083 1978 1734 1438 1118 678 492 333 313 407 526 438 418
0 0 0 0 0 0 0 0 0 0 0 0 0 0 0 0 0 0 0 0 0 0 0 0 0 3 420 591 689 1041 1698 1864 1668 1353 1036 701 369 397 252 318 317 473 323 230
0 0 0 0 0 0 0 0 0 0 0 0 0 0 0 0 0 0 0 0 0 0 0 0 166 458 590 762 992 1491 1638 1462 1106 884 504 228 172 251 274 245 232 268 248 289
1 2 0 0 0 0 0 0 0 0 0 0 0 0 0 0 0 0 0 0 0 0 13 116 259 545 774 932 1147 1248 1250 1014 751 468 235 325 195 312 211 206 173 200 266 171
2 0 0 0 0 0 0 0 0 0 0 0 0 0 0 0 0 0 0 0 117 115 184 314 525 717 882 1043 1071 1001 849 552 550 347 287 337 203 127 115 107 51 152 109 157
38 8 0 0 0 0 0 0 0 0 0 0 0 0 0 0 0 0 0 0 257 333 424 525 585 743 932 944 787 794 553 338 426 188 366 264 213 240 284 123 25 26 94 0
26 0 0 0 0 0 0 0 0 0 0 0 0 0 0 0 0 0 0 40 322 419 488 460 544 765 805 747 661 696 439 342 319 306 268 199 310 200 126 71 12 14 0 26
3 0 0 0 0 0 0 0 0 0 0 0 0 0 0 0 0 0 0 190 308 380 415 416 571 678 628 666 632 543 380 342 269 365 156 62 86 50 14 0 1 1 0 17
0 0 0 0 0 0 0 0 0 0 0 0 0 0 0 21 0 0 0 245 375 407 390 472 562 540 599 518 513 405 285 346 143 344 160 40 89 15 2 0 2 0 0 0
4 0 0 0 0 3 3 0 0 0 0 0 0 0 0 0 49 53 146 435 495 443 418 499 429 424 456 452 407 345 231 130 121 310 44 58 88 74 35 0 6 0 0 10
0 0 0 0 1 0 0 0 0 0 0 0 0 0 0 0 179 274 416 451 432 395 418 359 308 306 367 382 284 282 118 57 166 57 39 100 159 91 23 2 10 4 1 7
0 0 0 0 1 4 0 0 0 0 0 0 0 0 0 192 395 468 462 434 373 354 361 308 282 292 357 340 253 92 67 25 126 145 104 137 171 72 0 4 4 10 13 9
1 4 9 0 4 9 0 0 0 0 0 0 0 0 30 232 612 557 446 364 350 370 329 285 273 317 329 313 93 16 23 29 156 172 160 321 173 26 9 9 11 0 13 22
0 10 2 0 4 0 0 0 0 0 0 0 0 0 71 13 269 433 379 373 347 398 291 294 315 337 337 150 0 0 4 64 117 156 173 388 54 1 4 9 5 10 11 11
0 2 0 2 0 0 0 73 0 0 0 39 3 61 134 129 45 19 29 214 268 316 239 270 319 323 207 5 0 0 13 8 152 177 234 205 75 0 6 6 8 12 4 9
0 0 0 3 0 0 0 1 4 8 151 195 109 4 0 65 27 25 8 3 29 246 218 263 315 235 33 0 0 0 0 0 31 145 110 67 34 5 62 8 14 2 9 15
3 0 0 0 0 0 2 0 0 0 22 28 11 0 0 14 26 0 0 0 0 105 297 357 309 111 0 0 0 0 0 0 7 159 77 55 31 87 17 6 21 17 69 42
0 2 0 0 0 0 0 0 0 40 1 4 1 7 7 19 0 0 0 0 3 71 314 444 278 76 0 0 0 0 0 0 3 154 101 77 102 43 32 41 38 104 164 87
0 0 0 2 0 0 0 0 1 1 6 1 0 9 80 74 46 23 21 28 31 79 371 524 293 76 0 0 0 0 0 0 5 145 159 195 156 311 213 120 144 155 80 63
0 1 0 2 1 7 1 4 13 11 3 0 1 0 1 3 5 17 190 197 81 129 185 618 355 65 0 0 0 0 0 0 11 140 272 275 281 222 61 148 177 77 30 48
0 4 0 2 1 6 8 1 0 0 0 0 0 0 0 0 0 0 8 27 61 108 179 661 387 119 0 0 0 0 0 0 39 275 243 289 330 198 15 12 122 64 63 109
0 1 1 1 4 3 10 0 0 0 0 0 0 0 0 0 0 0 0 0 0 95 288 385 453 179 25 0 0 0 0 0 53 299 219 214 346 237 84 0 8 5 123 212
2 0 0 1 2 4 3 0 0 0 0 0 0 0 0 0 0 0 0 0 0 41 267 600 685 295 89 0 0 0 0 0 47 360 274 223 438 421 233 0 0 0 0 16

GFSCGP_con_mlcape_024.txt.gz
CAPE
0 0 0 0 0 0 0 0 0 0 0 0 0 0 0 0 0 0 0 0 0 0 0 0 0 0 0 0 0 0 181 556 700 830 1182 1126 1035 889 790 753 722 755 775 403
0 0 0 0 0 0 0 0 0 0 0 0 0 0 0 0 0 0 0 0 0 0 0 0 0 0 0 0 0 4 137 563 909 1084 1239 1202 834 558 457 314 268 304 352 417
0 0 0 0 0 0 0 0 0 0 0 0 0 0 0 0 0 0 0 0 0 0 0 0 0 0 0 2 11 118 344 845 1350 1388 1221 990 757 455 383 257 279 279 291 414
0 0 0 0 0 0 0 0 0 0 0 0 0 0 0 0 0 0 0 0 0 0 0 0 0 0 0 0 432 867 1078 1399 1634 1576 1340 1147 942 851 489 317 207 363 393 380
0 0 0 0 0 0 0 0 0 0 0 0 0 0 0 0 0 0 0 0 0 0 0 0 0 0 0 312 816 1302 1498 1751 1689 1588 1323 1110 960 629 495 298 223 265 269 284
0 0 0 0 0 0 0 0 0 0 0 0 0 0 0 0 0 0 0 0 0 0 0 0 0 0 279 820 1323 1564 1804 1812 1604 1392 1109 1006 797 444 300 266 335 281 243 166
1 8 0 0 0 0 0 0 0 0 0 0 0 0 0 0 0 0 0 0 0 0 0 0 5 208 610 851 1074 1426 1661 1536 1211 879 563 349 257 223 269 251 208 152 120 152
0 1 0 6 0 0 0 0 0 0 0 0 0 0 0 0 0 0 0 0 0 0 19 94 307 577 798 1009 1233 1258 1153 1019 715 289 153 101 103 145 133 126 108 79 101 23
6 3 4 0 0 0 0 0 0 0 0 0 0 0 0 0 0 0 0 0 0 26 149 269 554 788 869 958 1068 974 763 432 235 190 107 72 70 89 30 18 38 14 0 7
0 0 0 0 0 0 0 0 0 0 0 0 0 0 0 0 0 0 0 0 37 200 279 461 654 803 831 869 803 562 395 220 225 155 117 60 100 93 71 1 0 0 0 0
0 0 0 0 0 0 0 0 0 0 0 0 0 0 0 0 0 0 0 0 140 279 378 511 658 733 691 648 519 305 261 146 177 113 85 100 39 11 0 0 0 0 0 0
1 1 0 0 0 0 0 0 0 0 0 0 0 0 0 0 0 0 0 63 283 361 408 540 625 648 527 526 412 260 231 143 170 72 54 51 8 0 0 0 0 0 0 0
1 0 0 0 0 5 0 2 0 0 0 0 0 0 0 0 0 0 1 292 321 333 484 534 566 544 535 506 347 205 207 119 146 78 47 26 10 0 0 0 0 0 0 0
6 0 0 0 0 0 0 0 0 0 0 0 0 0 0 0 0 3 100 315 353 439 488 485 488 469 487 422 301 198 202 55 120 169 30 8 2 9 0 0 0 0 0 7
0 0 0 0 0 0 0 0 0 0 0 0 0 0 0 0 0 0 250 331 386 485 473 423 386 409 358 326 251 170 107 34 147 40 48 57 70 20 0 0 0 2 6 6
0 0 0 0 0 0 0 0 0 0 0 0 0 0 0 0 28 189 317 359 421 471 451 362 344 322 327 246 201 109 29 21 131 84 98 90 89 2 8 0 0 9 13 3
0 0 0 0 10 36 0 0 0 0 0 0 0 0 0 243 306 170 347 425 450 457 398 353 308 310 285 208 119 13 23 19 116 114 186 143 2 0 6 4 0 4 15 11
0 0 0 0 0 2 0 54 52 2 0 0 1 0 0 0 175 139 52 346 417 404 373 343 313 300 247 163 10 0 7 33 106 119 259 48 0 0 2 3 0 5 5 8
0 0 0 0 0 1 24 2 2 20 47 122 27 1 27 19 85 102 1 72 327 380 377 338 313 255 149 71 0 0 7 41 67 95 158 49 0 0 1 3 0 0 0 0
0 0 0 0 0 0 0 1 0 3 26 38 0 73 114 66 59 1 0 8 182 264 275 332 263 173 112 0 0 0 0 8 70 114 88 34 0 0 2 3 1 0 0 7
0 1 0 0 0 0 1 0 0 46 23 0 0 2 40 16 6 0 0 19 38 168 288 290 191 147 10 0 0 0 0 0 20 83 46 25 3 13 0 0 3 9 33 33
0 0 0 0 0 0 1 1 4 2 2 0 0 2 28 39 8 0 7 12 58 212 328 286 131 9 0 0 0 0 0 0 0 26 9 4 16 0 0 0 6 46 41 42
0 0 0 0 0 1 2 5 1 0 0 0 0 0 0 2 0 0 0 1 41 264 365 148 54 0 0 0 0 0 0 0 2 8 0 6 64 13 2 7 16 41 31 2
1 4 0 0 4 4 3 0 1 7 0 0 0 0 0 0 0 0 0 0 78 230 411 168 40 0 0 0 0 0 0 0 0 36 18 33 86 110 50 32 32 30 24 1
10 2 1 0 2 4 11 9 0 0 0 0 0 0 0 0 0 0 0 0 0 4 152 294 57 0 0 0 0 0 0 0 25 51 60 86 112 71 0 13 11 23 14 4
10 6 0 2 0 0 0 0 1 0 0 0 0 0 0 0 0 0 0 0 0 0 2 288 87 0 0 0 0 0 0 0 26 63 113 116 92 22 0 0 0 0 0 5

GFSCGP_con_mlcape_027.txt.gz
CAPE
0 0 0 0 0 0 0 0 0 0 0 0 0 0 0 0 0 0 0 0 0 0 0 0 0 0 0 0 0 0 0 1 164 346 507 603 727 689 678 727 769 678 657 430
0 0 0 0 0 0 0 0 0 0 0 0 0 0 0 0 0 0 0 0 0 0 0 0 0 0 0 0 0 0 0 12 108 397 651 716 699 561 643 756 797 812 824 749
0 0 0 0 0 0 0 0 0 0 0 0 0 0 0 0 0 0 0 0 0 0 0 0 0 0 0 0 0 0 1 46 299 570 685 579 485 498 642 775 851 734 680 532
0 0 0 0 0 0 0 0 0 0 0 0 0 0 0 0 0 0 0 0 0 0 0 0 0 0 0 0 0 2 79 292 669 823 863 816 850 871 453 595 448 203 340 349
0 0 0 0 0 0 0 0 0 0 0 0 0 0 0 0 0 0 0 0 0 0 0 0 0 0 0 0 0 137 539 836 970 1012 923 779 653 388 287 246 223 215 189 270
0 0 0 0 0 0 0 0 0 0 0 0 0 0 0 0 0 0 0 0 0 0 0 0 0 0 0 7 375 940 1028 1136 1208 1146 895 861 703 415 248 164 201 232 196 120
12 0 0 0 0 0 0 0 0 0 0 0 0 0 0 0 0 0 0 0 0 0 0 0 0 0 70 521 994 1191 1315 1315 1292 1141 947 840 702 582 465 198 143 122 77 25
1 5 0 23 0 0 0 0 0 0 0 0 0 0 0 0 0 0 0 0 0 0 0 0 1 236 615 1098 1157 1353 1378 1261 1152 950 796 603 444 294 176 134 140 131 99 27
1 0 3 0 0 0 0 0 0 0 0 0 0 0 0 0 0 0 0 0 0 0 0 2 250 601 776 927 1135 1305 1070 771 556 405 221 117 116 139 151 112 63 6 2 6
0 0 0 0 0 0 0 0 0 0 0 0 0 0 0 0 0 0 0 0 0 0 0 201 488 681 747 781 911 940 682 353 60 26 45 60 52 36 38 27 4 0 0 0
0 0 0 0 0 0 0 0 0 0 0 0 0 0 0 0 0 0 0 0 0 0 121 435 578 654 781 670 602 378 228 91 41 14 7 11 17 28 7 0 0 0 0 0
0 0 0 0 0 0 1 0 0 0 0 0 0 0 0 0 0 0 0 0 0 61 370 520 573 687 689 580 354 177 126 83 39 12 9 2 0 0 0 0 0 0 0 0
0 0 0 0 0 1 0 0 0 0 0 0 0 0 0 0 0 0 0 2 16 294 512 576 592 582 544 354 204 107 91 42 5 0 3 0 0 0 0 0 0 0 0 0
5 0 0 0 0 0 0 1 1 0 0 0 0 0 0 0 0 0 0 79 227 483 564 585 491 395 410 252 163 98 58 32 13 0 8 8 1 0 0 0 0 0 0 0
0 0 0 0 0 0 0 0 0 0 0 0 0 0 0 0 0 0 0 10 364 543 551 534 394 347 388 200 112 87 20 23 25 27 18 9 12 3 0 0 0 0 0 6
1 0 0 0 0 1 0 0 0 0 0 0 0 0 0 0 0 27 0 37 405 493 519 488 364 404 365 139 73 56 30 8 71 136 78 42 83 19 0 0 0 0 1 10
18 2 0 0 0 1 0 0 0 0 0 0 0 0 0 0 0 6 179 239 450 460 476 433 369 380 283 153 70 31 51 2 78 161 117 125 31 0 1 1 0 0 7 9
0 7 13 0 0 0 2 81 36 0 0 0 0 0 0 0 0 20 78 305 432 450 447 385 361 320 210 113 54 4 1 4 103 208 146 45 0 0 0 0 0 0 7 16
0 0 3 1 0 0 0 25 2 2 0 25 23 4 0 0 34 218 168 106 215 337 328 346 301 233 132 42 8 0 0 7 84 156 151 0 0 0 0 0 0 0 0 0
0 0 0 0 0 0 6 5 1 1 0 27 19 3 0 1 1 4 96 7 1 142 227 242 237 197 129 19 0 0 0 9 54 87 103 0 0 0 0 0 0 0 0 0
0 0 0 0 0 0 0 4 3 2 5 1 3 0 2 13 0 2 2 0 5 66 212 159 176 173 115 0 0 0 0 12 9 69 87 9 0 0 0 0 0 0 0 0
0 0 0 0 0 0 4 0 12 2 1 4 1 0 0 0 0 7 0 0 19 84 250 201 187 120 4 0 0 0 0 0 8 33 23 0 0 0 0 0 0 0 1 4
0 0 0 0 0 2 0 2 1 4 3 2 4 0 0 0 0 0 0 0 96 196 244 203 175 52 0 0 0 0 0 0 0 15 0 0 0 0 0 0 11 0 4 2
0 3 0 0 1 3 2 11 2 0 0 0 0 0 0 0 0 0 0 0 25 274 142 130 69 64 20 0 0 0 0 0 0 6 0 0 0 0 0 6 17 6 1 2
4 1 0 0 2 6 9 8 0 4 1 0 0 0 0 0 0 0 0 0 0 4 114 46 91 70 12 0 0 0 0 0 0 1 0 0 0 0 1 0 8 6 0 0
8 1 7 0 1 3 6 7 0 1 3 1 0 0 0 0 0 0 0 0 0 0 33 36 1 2 0 0 0 0 0 0 0 1 22 3 0 17 0 0 0 0 0 4

GFSCGP_con_mlcape_030.txt.gz
CAPE
0 0 0 0 0 0 0 0 0 0 0 0 0 0 0 0 0 0 0 0 0 0 0 0 0 0 0 0 0 0 0 0 0 24 85 245 365 416 432 423 414 386 308 214
0 0 0 0 0 0 0 0 0 0 0 0 0 0 0 0 0 0 0 0 0 0 0 0 0 0 0 0 0 0 0 0 0 74 161 356 396 347 421 569 568 511 379 266
0 0 0 0 0 0 0 0 0 0 0 0 0 0 0 0 0 0 0 0 0 0 0 0 0 0 0 0 0 0 0 0 0 107 287 331 330 305 470 620 711 573 520 495
0 0 0 0 0 0 0 0 0 0 0 0 0 0 0 0 0 0 0 0 0 0 0 0 0 0 0 0 0 0 0 0 0 86 235 352 408 478 584 710 689 631 578 559
0 0 0 0 0 0 0 0 0 0 0 0 0 0 0 0 0 0 0 0 0 0 0 0 0 0 0 0 0 0 0 6 66 233 403 521 535 437 513 712 784 508 401 429
0 0 0 0 0 0 0 0 0 0 0 0 0 0 0 0 0 0 0 0 0 0 0 0 0 0 0 0 0 0 37 191 382 547 497 542 603 622 677 552 433 290 131 255
2 0 0 0 0 0 0 0 0 0 0 0 0 0 0 0 0 0 0 0 0 0 0 0 0 0 0 3 170 247 475 573 646 644 536 481 551 540 553 373 229 123 70 95
0 0 22 0 0 0 0 0 0 0 0 0 0 0 0 0 0 0 0 0 0 0 0 0 0 0 77 365 725 790 819 781 726 629 428 274 287 312 246 159 89 74 77 63
0 0 2 7 0 0 1 0 0 0 0 0 0 0 0 0 0 0 0 0 0 0 0 0 0 196 537 889 949 905 864 775 605 437 285 229 199 173 76 11 14 22 11 3
0 0 0 0 0 0 0 0 0 0 0 0 0 0 0 0 0 0 0 0 0 0 0 0 153 589 882 842 776 756 713 752 461 362 329 208 74 30 27 36 27 0 0 0
0 0 0 0 0 0 0 0 0 0 0 0 0 0 0 0 0 0 0 0 0 0 0 67 410 647 656 784 700 550 452 318 243 127 18 8 12 13 6 4 2 0 0 0
0 0 0 0 0 0 0 0 0 0 0 0 0 0 0 0 0 0 0 0 0 0 98 364 568 585 656 764 610 319 70 33 0 0 0 0 0 0 0 0 0 0 0 0
0 0 0 0 4 0 0 0 0 0 0 0 0 0 0 0 0 0 0 0 10 121 388 487 605 614 617 556 369 105 10 0 0 0 0 0 0 0 0 0 0 0 0 0
15 0 0 0 0 0 0 0 0 0 0 0 0 0 0 0 0 0 0 0 24 309 528 545 555 545 496 309 115 38 5 0 0 0 0 0 0 0 0 0 0 0 0 0
3 0 0 0 0 0 0 0 0 0 0 0 0 0 0 0 0 0 0 0 41 361 567 581 495 477 375 179 62 21 0 0 0 0 0 0 0 0 0 0 0 0 0 0
0 1 0 0 0 0 0 0 0 0 0 0 1 0 0 0 0 0 0 0 86 384 624 552 416 384 310 152 50 17 0 0 0 0 0 2 10 7 0 0 0 0 0 17
3 4 0 0 0 0 0 0 0 0 0 0 0 0 0 0 0 0 0 0 168 406 601 501 340 317 226 110 49 6 0 0 2 11 16 12 14 1 0 0 0 0 3 9
4 7 4 0 0 0 0 0 0 0 0 0 0 0 0 0 0 0 0 11 289 426 526 399 287 270 160 36 10 0 0 0 27 102 70 38 11 0 0 0 0 1 6 8
1 2 1 0 0 0 0 0 3 4 0 0 0 0 0 0 0 0 43 51 292 362 354 335 268 171 72 18 0 0 0 1 40 134 86 40 0 0 0 0 0 0 8 4
1 0 1 0 0 0 0 1 0 3 0 15 23 0 0 0 0 0 94 81 162 136 242 299 223 131 82 11 0 0 0 2 40 120 57 5 0 0 0 0 0 0 0 0
0 0 0 0 0 0 1 2 0 0 1 18 2 3 1 0 0 0 89 52 65 145 90 168 182 147 40 0 0 0 0 2 5 69 65 0 0 0 0 0 0 0 0 0
0 0 0 0 0 0 2 0 0 5 9 1 1 1 1 0 0 2 0 1 39 10 36 119 188 104 4 0 0 0 0 0 0 53 44 0 0 0 0 0 0 0 0 0
0 0 0 0 0 2 4 2 0 0 0 2 2 0 0 0 0 0 0 0 2 25 73 133 176 76 14 0 0 0 0 0 1 8 9 0 0 0 0 0 0 9 5 6
0 2 0 0 0 1 5 0 7 2 2 4 0 0 0 0 0 0 0 0 0 127 59 146 95 90 56 2 0 0 0 0 0 2 5 0 0 0 0 0 0 0 3 1
4 1 0 0 2 1 3 6 3 2 0 0 0 0 0 0 0 0 0 0 0 18 56 80 75 106 79 13 0 0 0 0 0 0 3 0 0 6 5 0 0 8 0 0
9 2 0 5 6 5 6 12 6 0 2 0 4 0 0 0 0 0 0 0 0 0 0 20 11 2 20 4 0 0 0 0 0 0 0 0 0 4 6 0 0 0 0 5

GFSCGP_con_mlcape_033.txt.gz
CAPE
0 0 0 0 0 0 0 0 0 0 0 0 0 0 0 0 0 0 0 0 0 0 0 0 0 0 0 0 0 0 0 0 0 0 22 129 241 471 473 473 485 447 509 525
0 0 0 0 0 0 0 0 0 0 0 0 0 0 0 0 0 0 0 0 0 0 0 0 0 0 0 0 0 0 0 0 0 0 51 308 514 500 538 535 658 719 690 660
0 0 0 0 0 0 0 0 0 0 0 0 0 0 0 0 0 0 0 0 0 0 0 0 0 0 0 0 0 0 0 0 0 1 222 384 461 280 484 640 650 721 687 683
0 0 0 0 0 0 0 0 0 0 0 0 0 0 0 0 0 0 0 0 0 0 0 0 0 0 0 0 0 0 0 0 0 30 193 272 403 297 570 545 681 697 780 706
0 0 0 0 1 0 0 0 0 0 0 0 0 0 0 0 0 0 0 0 0 0 0 0 0 0 0 0 0 0 0 0 0 87 288 483 568 745 855 882 848 874 914 813
0 0 0 0 0 0 0 0 0 0 0 0 0 0 0 0 0 0 0 0 0 0 0 0 0 0 0 0 0 0 0 2 71 191 327 558 641 671 855 1019 1026 984 897 860
0 0 0 0 0 0 0 1 0 0 1 0 0 0 0 0 0 0 0 0 0 0 0 0 0 0 0 0 0 0 162 129 353 491 616 762 838 896 1057 1133 936 593 604 663
0 0 0 0 0 0 0 0 8 0 0 0 0 0 0 0 0 0 0 0 0 0 0 0 0 0 0 50 171 344 575 482 649 700 704 710 852 1007 1065 824 637 481 443 465
0 0 5 80 97 3 4 2 0 0 0 0 0 0 0 0 0 0 0 0 0 0 0 0 0 0 244 450 669 1005 931 894 822 660 603 679 692 738 612 534 435 345 387 416
3 0 16 0 41 43 0 5 1 0 0 0 0 0 0 0 0 0 0 0 0 0 0 0 0 200 675 944 1080 1055 956 887 714 670 566 515 505 463 329 270 267 326 332 272
2 0 3 6 12 0 1 0 9 1 0 0 0 0 0 0 0 0 0 0 0 41 1 30 362 758 914 1078 1075 934 796 733 645 516 407 360 268 183 180 236 258 260 195 130
16 3 0 0 0 0 0 0 0 14 0 0 0 0 0 0 0 0 0 0 0 82 129 352 639 914 1082 1146 986 892 723 641 440 291 234 186 157 172 176 162 153 113 54 0
5 0 0 0 33 0 0 0 0 1 0 2 0 0 0 0 0 0 0 0 0 70 322 383 652 965 1088 966 762 618 514 314 165 148 117 84 65 88 98 78 43 32 1 0
9 4 1 1 0 0 0 0 0 0 0 3 0 0 0 0 0 0 0 0 0 131 400 425 670 965 1013 853 528 318 183 122 96 70 9 2 15 34 51 51 13 17 10 10
11 4 7 0 0 0 0 0 0 0 0 0 0 0 0 0 0 0 0 0 0 12 414 559 639 780 815 748 416 234 140 84 23 0 0 6 23 53 59 27 4 1 1 12
3 1 6 2 0 0 0 0 0 0 0 0 0 0 0 0 0 0 0 0 0 0 361 591 582 730 765 596 373 223 99 26 0 0 4 19 30 61 68 19 0 0 5 68
5 3 3 2 0 0 0 0 0 0 0 0 0 0 0 0 0 0 0 0 0 0 536 703 704 833 731 499 312 190 57 0 4 15 36 50 51 61 11 0 0 8 20 29
2 1 14 1 1 0 0 0 0 8 7 3 0 0 0 0 0 0 0 0 0 101 569 915 896 823 620 418 292 174 42 0 11 70 85 71 89 30 5 3 6 14 15 15
2 4 1 2 5 0 0 0 4 4 0 0 0 0 0 0 0 0 0 0 27 381 648 908 825 637 503 353 242 78 0 32 80 202 247 141 73 6 9 12 17 16 12 8
0 2 1 6 1 1 7 7 3 3 0 0 0 0 0 0 0 0 2 211 324 644 744 833 699 551 456 332 178 27 0 26 109 318 291 123 19 2 0 0 5 17 18 19
0 0 0 0 0 0 1 3 2 0 1 6 14 17 14 0 0 0 2 232 490 631 700 751 610 526 400 122 77 45 16 46 154 355 287 56 15 0 1 0 3 7 11 11
0 0 0 0 0 0 0 0 0 0 0 1 0 21 0 0 1 0 0 220 334 333 553 673 674 548 372 98 33 24 28 116 129 367 215 25 1 0 0 0 6 11 28 50
0 0 0 0 0 2 5 1 0 1 1 0 0 12 2 2 1 0 14 110 144 184 388 584 646 440 232 98 51 11 111 76 172 400 157 65 0 0 24 28 40 71 77 72
0 1 0 0 0 2 4 6 10 8 5 10 2 1 0 0 0 2 0 21 68 94 283 397 459 334 56 43 4 36 82 71 207 302 81 60 19 26 75 102 145 155 92 55
1 2 0 0 1 1 5 6 14 2 2 2 2 1 1 1 4 0 0 0 0 12 163 352 330 401 243 68 6 55 13 67 201 250 51 108 52 91 139 128 121 209 153 97
8 1 1 0 6 3 5 13 6 3 0 3 3 1 1 1 2 2 0 0 12 54 104 179 147 302 317 141 139 63 8 55 192 225 133 200 131 141 127 29 3 0 0 0

GFSCGP_con_mlcape_036.txt.gz
CAPE
0 0 0 0 0 0 0 0 0 0 0 0 0 0 0 0 0 0 0 0 0 0 0 0 0 0 0 0 0 0 0 0 0 0 95 503 593 805 773 810 921 976 988 928
0 0 0 0 0 0 0 0 0 0 0 0 0 0 0 0 0 0 0 0 0 0 0 0 0 0 0 0 0 0 0 0 0 0 368 599 826 864 1027 986 1047 1018 1039 1080
0 0 0 0 0 0 0 0 0 0 0 0 0 0 0 0 0 0 0 0 0 0 0 0 0 0 0 0 0 0 0 0 0 13 669 1067 1189 1176 1147 869 1073 1154 1211 1044
0 0 0 0 0 0 0 0 0 0 1 0 0 0 0 0 0 0 0 0 0 0 0 0 0 0 0 0 0 0 0 0 0 423 595 1052 1030 880 964 1195 1055 973 952 991
0 3 11 0 0 0 0 0 0 6 1 0 0 0 0 0 0 0 0 0 0 0 0 0 0 0 0 0 0 0 0 0 0 380 649 1208 1047 1218 1331 1156 806 988 999 997
3 21 26 9 5 1 12 10 2 23 8 10 0 0 0 0 0 0 0 0 0 0 0 0 0 0 0 0 0 0 6 24 314 801 1102 1361 1365 1385 1463 1568 1131 1311 1289 1342
21 47 41 18 16 18 18 22 22 17 19 6 0 1 0 0 0 0 0 0 0 0 0 0 0 0 0 0 0 131 489 683 924 1025 1235 1416 1717 1646 1874 1730 1630 1626 1533 1429
2 0 19 8 28 37 9 13 24 21 17 1 0 3 0 0 0 0 0 0 0 0 0 0 0 0 0 0 116 624 706 1034 1129 1301 1480 1679 1864 1875 1886 1873 1773 1562 1301 1186
23 4 0 47 125 42 52 20 43 20 1 19 0 0 0 0 0 0 0 0 0 0 0 0 0 0 12 531 1004 1288 1315 1327 1431 1609 1721 1880 1901 1926 1783 1606 1323 1102 995 1159
17 7 21 18 0 45 110 49 14 29 7 29 0 0 0 0 0 0 0 0 0 32 103 84 83 185 829 1259 1787 1715 1639 1649 1638 1685 1750 1793 1741 1652 1561 1259 777 751 898 810
31 21 23 17 19 14 19 30 29 55 13 1 6 0 0 0 0 0 0 0 0 5 294 492 609 953 1339 1797 1844 1919 1811 1713 1659 1537 1504 1472 1377 1261 996 845 861 1000 992 949
35 29 1 21 12 2 0 1 0 86 22 0 0 1 0 0 0 0 0 0 0 27 356 446 701 1085 1740 1744 1713 1724 1645 1570 1486 1416 1364 1213 882 750 806 828 851 844 679 376
23 21 14 25 67 12 12 17 2 0 1 22 1 12 0 0 0 0 0 0 0 0 513 540 818 1238 1512 1690 1633 1607 1460 1322 1187 999 873 812 802 785 761 716 636 459 226 92
19 15 17 24 16 10 12 21 31 40 11 7 34 0 7 0 0 0 0 0 0 0 540 612 847 1179 1299 1468 1452 1269 1036 824 678 600 616 620 580 544 481 420 350 215 101 107
19 26 27 53 72 18 3 1 14 14 8 17 2 0 0 0 0 0 0 0 0 0 66 642 742 1090 1133 1069 1037 830 600 454 332 177 105 117 189 240 222 174 147 121 112 100
10 3 32 24 42 21 0 0 0 0 8 30 2 0 0 0 0 0 0 0 0 0 0 678 665 959 980 868 782 582 396 186 0 0 36 147 218 209 155 128 136 75 52 52
4 4 4 16 20 18 8 26 7 0 0 12 1 0 0 0 0 0 0 0 0 0 0 743 673 996 1127 790 588 452 153 0 0 18 70 120 196 210 156 56 24 24 63 126
0 3 21 12 2 0 0 0 10 32 25 8 0 0 0 0 0 0 0 0 0 0 1 910 967 1213 1071 675 611 304 0 1 8 25 81 139 174 154 79 30 29 38 90 38
1 4 8 9 7 0 0 2 17 0 3 16 1 0 0 0 0 0 0 0 0 0 326 1174 1336 1172 890 707 521 47 0 6 28 94 130 131 105 76 18 22 38 42 79 30
1 3 9 2 1 0 9 7 9 21 0 7 2 2 0 0 0 0 0 299 472 802 1041 1300 1268 1084 891 651 330 0 12 34 98 144 123 106 76 45 32 28 46 66 30 24
0 0 0 2 2 1 6 3 2 0 6 3 2 3 20 0 0 0 0 0 181 989 1209 1258 1084 904 724 506 177 0 42 109 95 178 154 122 31 4 14 22 89 117 68 72
0 0 1 3 1 1 2 1 0 2 0 2 0 0 0 15 0 0 0 0 88 868 1214 1127 1036 820 600 418 34 0 110 88 180 242 178 94 15 13 9 40 64 100 242 264
0 0 0 0 0 2 1 2 2 2 3 0 0 0 0 18 5 10 4 88 559 874 1153 1095 880 647 420 103 0 41 172 183 311 226 68 59 13 26 110 137 191 341 415 399
10 0 0 0 7 1 7 9 6 3 0 0 0 2 14 9 28 26 162 265 576 866 1050 942 549 253 75 0 0 96 245 218 333 334 126 78 70 154 174 181 380 503 435 291
22 4 0 0 4 7 6 10 6 5 4 2 3 3 1 1 57 55 141 364 594 561 1089 848 222 36 0 0 12 132 194 222 298 397 218 120 126 257 268 324 273 532 420 108
17 2 8 3 19 11 5 12 1 3 5 3 3 3 1 1 3 10 162 410 459 518 723 1075 425 72 0 0 27 103 135 254 385 344 260 39 53 188 162 195 72 0 0 0

GFSCGP_con_mlcape_039.txt.gz
CAPE
0 0 0 0 0 0 0 0 0 0 0 0 0 0 0 0 0 0 0 0 0 0 0 4 5 0 0 0 0 0 40 108 40 27 84 6 173 468 1051 1088 1225 1241 1463 1482
0 0 0 0 0 0 0 0 0 0 0 0 0 0 0 0 0 0 0 0 0 0 0 0 0 0 0 0 0 0 26 84 255 79 139 39 337 654 1086 1188 1293 1470 1497 1469
0 0 0 0 0 0 0 0 0 0 0 0 0 0 0 0 0 0 0 0 0 0 0 0 0 0 0 0 0 0 6 101 400 308 120 659 1080 1441 1273 1369 1495 1558 1497 1396
0 0 0 0 0 0 0 0 0 0 0 0 0 0 0 0 0 0 0 0 0 0 0 0 0 0 0 0 0 0 0 109 437 887 113 655 1144 1225 1364 1639 1567 1266 1391 1391
0 0 1 1 0 0 0 0 0 0 0 0 0 0 0 0 0 0 0 0 0 0 0 0 0 0 0 0 0 0 0 178 373 533 435 759 1277 1217 1400 1434 1700 1249 1306 1250
10 24 21 11 6 14 17 2 1 1 0 0 0 0 0 0 0 0 0 0 0 0 0 0 0 0 0 0 0 0 0 68 341 228 1021 1433 1581 1677 1763 1646 1081 1044 1079 1058
31 29 8 42 61 63 52 21 7 3 0 0 0 8 0 0 0 0 0 0 0 0 0 0 0 0 0 0 0 0 0 0 167 584 1128 1535 1992 2306 2218 1512 1131 1234 1257 1381
22 18 27 0 118 131 14 34 30 18 3 5 8 9 4 0 1 7 0 0 0 0 0 0 0 0 0 0 0 0 0 466 1016 1255 1562 1844 2161 2074 2227 1644 1840 1707 1621 1643
23 35 2 16 128 15 94 54 74 61 13 9 0 0 8 0 2 0 0 0 0 0 0 0 0 0 0 0 0 179 621 941 1409 1438 1745 2071 2145 2171 1956 2465 2207 1877 1782 1711
47 13 20 59 126 95 30 134 11 58 17 13 1 8 10 1 0 2 0 6 0 0 131 180 80 50 0 216 1016 1190 1277 1589 1641 1880 2063 2085 2460 2415 2387 2025 1781 1482 1486 1170
40 50 17 58 145 143 111 46 145 67 1 29 8 10 3 7 0 0 12 0 0 69 708 646 780 847 1404 1391 1864 1914 1805 1824 1785 1884 2238 2092 2144 2022 1811 1553 1289 1243 941 853
44 29 10 13 54 64 12 0 0 15 0 19 1 0 0 2 53 0 5 2 0 226 981 686 967 1307 1589 1762 1893 1995 1805 1940 1969 1845 1841 1764 1802 1492 1307 1143 994 832 702 608
40 33 47 21 47 53 49 83 39 76 14 3 3 1 0 25 59 16 4 1 0 0 1054 1007 1148 1891 1623 1806 1865 1853 1839 1734 1679 1599 1503 1406 1284 1160 1032 895 811 652 524 307
6 15 27 17 20 0 0 18 38 74 19 8 10 0 0 0 27 16 7 0 0 0 1180 980 1240 1602 1716 1675 1653 1503 1432 1385 1358 1226 1106 1060 996 936 845 698 525 309 235 182
7 3 29 35 27 32 37 47 30 8 0 9 0 0 0 0 0 0 0 0 0 0 135 1059 1066 1385 1644 1650 1450 1238 1148 979 851 795 785 780 719 568 381 247 186 169 160 159
7 1 24 14 7 15 43 69 35 7 0 0 1 0 0 0 0 0 0 0 0 0 0 1049 958 1351 1261 1380 1162 978 783 654 541 416 315 217 97 86 174 236 155 124 102 37
9 8 13 14 16 49 45 97 86 11 0 0 0 0 0 1 0 0 0 0 0 0 0 780 986 1145 1062 1088 896 743 518 236 89 51 34 84 107 186 186 141 106 102 69 20
1 11 18 5 10 2 28 46 50 32 0 0 0 0 0 0 0 0 0 0 0 0 0 604 939 1069 1096 977 721 486 63 16 18 20 52 109 141 136 113 71 52 105 164 216
1 7 1 14 8 0 7 37 47 86 67 6 0 14 37 0 0 0 0 0 0 0 2 477 1018 1338 1004 826 591 130 40 19 11 34 72 117 60 51 53 46 89 79 153 210
1 0 4 4 2 0 6 2 15 19 0 146 137 90 15 17 0 0 0 25 124 162 312 974 1329 1207 768 968 422 51 26 12 33 55 152 75 95 48 39 44 56 105 202 80
0 0 0 0 2 7 7 2 3 0 0 4 0 24 31 34 28 6 0 0 0 16 392 1100 1353 1147 947 711 197 18 11 94 147 115 111 118 50 90 66 127 76 39 96 30
0 0 2 2 1 1 0 2 0 4 0 1 1 3 20 17 1 0 0 0 0 107 1115 1065 1290 1146 886 555 82 18 81 212 214 175 123 99 48 68 68 82 146 127 243 341
2 0 0 0 0 1 14 5 7 7 3 1 3 0 4 12 0 0 6 0 77 300 869 1147 875 789 729 379 7 18 236 246 268 180 135 39 41 18 60 196 257 410 640 588
20 0 0 0 1 6 9 0 3 3 4 25 5 1 0 1 29 106 24 109 154 636 763 881 831 678 461 63 2 119 170 321 235 104 67 43 115 191 229 355 535 625 868 604
27 16 10 1 4 5 7 22 8 0 0 4 3 2 6 2 24 155 113 223 100 411 792 603 423 258 113 1 14 261 283 280 186 45 55 127 157 286 455 318 411 771 165 26
36 10 14 0 25 14 13 21 2 3 5 3 4 4 3 2 1 63 81 181 224 389 982 211 98 19 0 2 97 245 414 325 202 173 39 157 69 329 415 256 57 0 0 0

GFSCGP_con_mlcape_045.txt.gz
CAPE
0 0 0 0 0 0 0 0 0 0 0 0 0 0 0 0 0 0 0 0 0 0 0 0 0 0 0 0 0 0 0 90 278 490 553 517 296 522 964 1256 1061 1111 1541 1395
0 0 0 0 0 0 0 0 0 0 0 0 0 0 0 0 0 0 0 0 0 0 0 0 0 0 0 3 152 105 11 30 172 256 243 197 188 409 618 355 430 891 1393 1607
0 0 0 0 0 0 0 0 0 0 0 0 0 0 0 0 0 0 0 0 0 0 0 0 0 0 0 5 138 127 24 4 0 31 124 128 94 72 191 608 502 891 1469 1678
0 0 0 0 0 0 0 0 0 0 0 0 0 0 0 0 0 0 0 0 0 0 0 0 0 0 0 41 259 67 6 0 0 0 0 0 0 0 0 6 561 1273 1685 1679
0 0 0 0 0 0 0 0 0 0 0 0 0 0 0 0 0 0 0 0 0 0 0 0 0 0 0 0 107 8 0 0 0 0 0 0 0 3 97 388 1160 1487 1587 1624
0 0 0 0 0 2 1 1 0 1 0 0 0 0 0 0 0 0 0 0 0 0 0 0 0 0 0 0 0 0 0 0 0 0 0 0 0 105 475 1006 1472 1440 1409 1518
0 0 0 0 0 0 0 1 5 0 0 0 0 1 0 0 0 0 0 0 0 0 0 0 0 0 0 0 0 0 0 0 0 0 0 1 43 149 560 1360 1608 1428 1393 1346
0 0 0 0 0 0 0 11 1 0 0 0 0 0 0 0 0 0 0 0 0 0 0 0 0 0 0 0 0 0 0 0 0 0 99 234 247 724 1173 1649 1441 1320 1292 1172
0 0 0 0 0 10 0 0 4 1 0 0 0 0 0 1 1 0 0 0 0 0 0 0 0 0 0 0 0 0 0 0 0 6 315 358 396 622 1542 1539 1377 1255 1130 999
0 0 0 0 0 5 16 14 3 11 0 0 0 0 0 5 0 0 0 0 0 0 0 0 0 0 0 0 0 0 0 0 136 400 443 679 914 1057 1242 1518 1373 1137 805 929
0 0 0 0 0 0 2 4 3 0 2 0 0 0 68 0 0 0 0 0 0 0 0 0 7 171 336 98 53 0 30 40 359 525 593 859 1387 1863 1876 1562 1196 1020 1076 1203
0 0 0 0 0 0 7 34 5 9 1 0 0 0 13 0 0 0 0 0 0 0 0 0 10 882 1358 755 582 204 304 537 1090 1442 1641 1786 1857 2340 2038 1556 1673 1415 1568 1532
0 0 0 0 0 0 0 0 0 0 0 0 0 0 50 0 0 0 0 0 0 0 0 0 0 0 1324 1425 1294 1284 1468 1546 1638 1526 1670 2125 2059 2077 1794 1769 1600 1544 1314 1120
0 0 0 0 0 0 0 0 0 3 0 0 0 0 6 2 0 0 0 0 0 0 0 0 0 0 466 1192 1590 1687 1704 1747 1516 1685 1863 1723 1551 1627 1439 1298 1086 852 725 580
1 0 0 0 0 0 7 0 3 2 1 4 0 6 0 3 0 0 0 0 0 0 0 0 57 378 850 1100 1339 1351 1578 1594 1676 1561 1562 1437 1181 1041 911 767 603 427 219 49
9 1 0 0 0 0 2 0 0 2 31 11 24 3 0 0 0 0 0 0 0 0 0 0 534 801 938 596 467 1378 1522 1667 1594 1434 1250 1174 1005 820 674 508 224 104 37 44
0 0 0 0 1 0 0 0 40 39 10 2 12 1 3 36 0 0 0 0 0 0 0 33 307 722 234 102 655 986 1424 1329 1296 1182 1079 954 835 668 514 29 3 11 43 34
0 0 6 0 0 0 0 1 9 0 0 24 10 64 120 116 94 25 26 101 31 0 5 10 375 388 79 261 768 956 1196 1083 895 804 708 571 374 227 3 6 19 28 14 50
0 1 0 0 0 0 0 1 2 1 0 2 3 1 0 0 0 1 22 16 43 156 25 0 211 63 0 72 494 588 478 407 433 304 210 117 10 5 17 42 34 37 28 90
0 2 1 0 0 0 0 1 2 0 0 0 2 0 0 0 0 0 0 0 0 0 0 11 31 228 52 149 267 250 138 84 97 152 131 66 50 28 47 63 53 67 46 55
10 2 0 0 0 0 0 2 1 0 0 0 0 1 1 0 0 0 0 0 0 0 0 56 132 110 344 179 148 48 11 41 165 163 89 30 5 15 46 73 56 46 54 73
2 0 0 0 0 0 0 0 1 0 1 2 2 1 2 1 0 0 0 0 0 0 2 122 9 164 502 151 85 18 59 59 63 54 7 22 24 33 33 26 58 74 109 109
1 8 0 0 0 0 0 2 10 7 22 6 3 1 1 1 0 0 0 0 0 6 89 168 48 194 507 170 105 76 56 6 24 48 57 32 17 17 19 14 53 21 56 44
0 4 1 0 0 1 22 3 2 7 4 1 0 1 2 2 5 6 2 0 0 0 100 21 229 11 170 174 95 100 58 23 11 38 18 15 102 47 11 18 19 5 26 27
0 5 1 4 0 2 0 6 2 19 3 2 0 5 2 2 0 0 0 0 0 47 89 100 248 258 261 253 169 165 134 20 9 16 38 77 79 4 0 0 0 12 1 29
10 3 5 3 0 3 0 7 8 5 0 3 2 0 2 1 1 0 0 0 10 75 44 46 193 311 338 290 190 211 119 13 12 6 24 62 50 10 0 0 0 0 0 0

GFSCGP_con_mlcape_048.txt.gz
CAPE
0 0 0 0 0 0 0 0 0 0 0 0 0 0 0 0 0 0 0 0 0 0 0 0 0 0 0 0 0 0 0 6 285 858 897 1199 1195 1203 1072 875 1047 1278 1372 1016
0 0 0 0 0 0 0 0 0 0 0 0 0 0 0 0 0 0 0 0 0 0 0 0 0 0 0 0 0 0 1 184 921 785 630 893 1066 753 590 600 603 764 962 1159
0 0 0 0 0 0 0 0 0 0 0 0 0 0 0 0 0 0 0 0 0 0 0 0 0 0 0 0 0 0 0 67 955 853 1122 772 720 399 342 353 463 619 802 1083
0 0 0 0 0 0 0 0 0 0 0 0 0 0 0 0 0 0 0 0 0 0 0 0 0 0 0 0 0 0 13 58 637 834 474 403 103 20 3 17 95 160 669 990
0 0 0 0 0 0 0 0 0 0 0 0 0 0 0 0 0 0 0 0 0 0 0 0 0 0 0 0 0 0 9 97 147 245 125 116 15 0 0 0 0 8 217 832
0 0 0 0 0 0 0 0 0 0 0 0 0 0 0 0 0 0 0 0 0 0 0 0 0 0 0 0 0 0 2 48 115 40 11 0 0 0 0 0 0 237 574 1119
0 0 0 0 0 0 0 0 0 0 0 0 0 0 0 0 0 0 0 0 0 0 0 0 0 0 0 0 0 0 1 15 9 0 0 0 0 0 0 0 123 567 993 1310
0 0 0 0 0 0 0 0 0 0 0 0 0 0 0 0 0 0 0 0 0 0 0 0 0 0 0 0 0 0 0 0 0 0 0 0 0 0 0 39 437 906 1176 1331
0 0 0 0 0 0 0 0 0 4 0 5 0 0 0 0 0 0 0 0 0 0 0 0 0 0 0 0 0 0 0 0 0 0 0 0 0 24 35 393 883 945 1098 1172
0 0 0 0 0 0 0 0 0 3 0 0 0 0 0 0 0 0 0 0 0 0 0 0 0 0 0 0 0 0 0 0 0 0 0 0 32 308 498 820 892 1282 1188 1138
0 0 0 0 0 0 0 0 4 0 0 0 0 0 0 0 0 0 0 0 0 0 0 0 0 0 0 0 0 0 0 0 0 0 0 101 323 788 888 845 1193 1272 1089 965
0 0 0 0 0 0 0 2 3 7 20 0 0 0 0 0 0 0 0 0 0 0 0 0 0 0 0 0 0 308 0 0 0 17 206 679 1024 899 791 835 1076 1171 863 800
0 0 0 0 0 0 0 0 0 2 0 0 0 0 0 0 0 0 0 0 0 0 0 0 0 0 0 0 0 463 180 79 246 616 831 925 936 946 1202 1520 1273 859 874 995
0 0 0 0 0 0 0 0 0 4 0 0 0 0 0 0 0 0 0 0 0 0 0 0 0 0 0 0 0 934 785 499 670 900 1231 1449 1738 1762 1708 1442 1163 1098 1159 1138
2 1 2 1 1 0 0 0 1 6 0 0 0 0 0 0 0 0 0 0 0 0 0 0 0 0 0 0 0 617 1121 1184 1589 1598 1555 1689 1663 1560 1344 1192 1057 952 985 512
4 0 2 0 0 0 0 0 0 0 0 5 1 0 5 0 5 2 0 0 0 0 0 0 0 1 47 13 208 146 933 1154 1522 1350 1380 1339 1258 1186 1118 1039 690 439 310 147
0 0 0 0 0 0 0 1 3 9 2 0 0 0 0 1 0 0 3 4 15 2 83 83 176 124 30 397 301 0 271 1012 1130 1207 1163 1123 1140 902 655 324 207 36 8 1
0 0 1 0 0 0 0 0 0 0 0 0 0 0 0 0 0 0 0 25 0 0 2 28 125 89 8 71 6 0 231 921 1128 1002 932 847 708 500 208 101 52 0 3 6
0 0 0 0 0 0 0 0 0 0 0 0 1 0 0 1 0 0 0 0 0 0 0 0 80 93 2 0 2 0 215 857 932 836 781 635 403 89 0 0 0 10 54 32
0 0 0 0 0 0 0 0 1 1 0 1 0 0 2 0 0 0 0 0 0 0 0 0 75 48 0 0 0 0 544 498 547 498 391 193 32 0 0 4 17 21 13 12
4 9 0 0 0 0 0 0 0 0 0 0 0 1 3 2 3 0 0 0 0 0 0 9 160 32 15 37 56 127 291 349 303 226 61 0 0 8 8 17 16 18 21 14
0 0 0 0 0 0 0 0 2 0 0 5 1 9 3 2 1 1 3 0 0 0 0 2 241 47 14 2 2 71 251 149 143 49 8 2 7 9 16 16 17 23 13 0
0 2 9 6 0 0 0 1 14 8 10 4 11 9 2 2 1 2 0 0 0 0 0 7 195 89 0 0 34 94 76 88 71 24 6 7 9 20 20 14 17 11 0 0
0 0 4 0 0 0 0 3 2 0 1 8 3 4 1 1 2 0 0 0 0 0 0 13 205 0 0 88 72 85 78 90 27 13 15 18 14 23 18 22 16 7 0 0
0 0 0 0 0 0 0 2 0 9 6 5 2 1 3 4 1 0 0 0 0 0 0 51 55 18 72 88 84 137 86 51 27 11 11 15 18 13 7 1 0 0 0 0
3 7 2 2 3 2 0 0 0 0 8 1 3 0 1 2 1 0 0 0 1 0 0 12 57 51 87 167 117 77 89 73 22 22 13 7 2 0 0 0 0 0 0 0

GFSCGP_con_mlcape_051.txt.gz
CAPE
0 0 0 0 0 0 0 0 0 0 0 0 0 0 0 0 0 0 0 0 0 0 0 0 0 0 0 19 40 122 165 97 69 209 270 296 170 214 245 627 773 619 581 482
0 0 0 0 0 0 0 0 0 0 0 0 0 0 0 0 0 0 0 0 0 0 0 0 0 0 0 0 1 8 21 2 0 98 399 527 528 673 731 1067 1047 1059 1084 877
0 0 0 0 0 0 0 0 0 0 0 0 0 0 0 0 0 0 0 0 0 0 0 0 0 0 0 0 0 0 0 0 0 25 442 610 626 621 885 975 979 1010 1158 901
0 0 0 0 0 0 0 0 0 0 0 0 0 0 0 0 0 0 0 0 0 0 0 0 0 0 0 0 0 0 0 0 0 0 76 311 394 642 616 740 668 617 572 507
0 0 0 0 0 0 0 0 0 0 0 0 0 0 0 0 0 0 0 0 0 0 0 0 0 0 0 0 0 0 0 0 0 0 102 291 546 484 397 329 381 214 319 600
0 0 0 0 0 0 0 0 0 0 0 0 0 0 0 0 0 0 0 0 0 0 0 0 0 0 0 0 0 0 0 0 0 3 137 442 470 454 301 187 113 22 64 121
0 0 0 0 0 0 0 0 0 0 0 0 0 0 0 0 0 0 0 0 0 0 0 0 0 0 0 0 0 0 0 0 3 0 83 224 339 372 298 142 0 0 0 83
0 0 0 0 0 0 0 0 0 0 0 0 0 0 0 0 0 0 0 0 0 0 0 0 0 0 0 0 0 0 0 0 0 12 1 92 161 299 120 13 0 0 2 63
0 0 0 0 0 0 0 0 0 0 0 0 0 0 0 0 0 0 0 0 0 0 0 0 0 0 0 0 0 0 0 0 0 0 36 20 117 113 41 0 0 3 173 424
0 0 0 0 0 0 0 0 0 1 0 0 0 0 0 0 0 0 0 0 0 0 0 0 0 0 0 0 0 0 0 0 0 0 0 0 0 23 31 32 36 223 364 727
0 0 0 0 0 0 0 0 0 0 8 1 0 0 0 0 0 0 0 0 0 0 0 0 0 0 0 0 0 0 0 0 0 0 0 0 0 24 50 84 200 388 562 910
0 0 0 0 0 0 0 0 0 0 0 0 7 0 0 0 0 0 0 0 0 0 0 0 0 0 0 0 0 0 0 0 21 0 0 0 0 62 131 265 391 637 843 1076
0 0 0 0 0 0 0 0 0 0 0 0 0 0 0 0 0 0 0 0 0 0 0 0 0 0 0 0 0 0 0 53 320 0 0 0 39 130 338 692 930 993 1173 1105
0 0 0 0 0 0 0 0 1 0 0 0 0 0 0 0 0 0 0 0 0 0 0 0 0 0 0 0 0 0 0 395 581 101 50 154 339 720 1015 998 929 1120 1199 995
2 0 0 0 0 1 2 2 1 2 0 2 0 0 0 0 0 0 0 0 0 3 2 1 21 60 70 0 0 0 0 935 1028 623 637 1061 1263 1193 1085 1123 1301 1234 955 980
0 0 0 0 0 0 0 0 0 0 0 0 0 0 0 0 0 0 0 0 0 52 0 0 0 55 264 53 20 99 161 1481 1435 1273 1208 1096 1085 1187 1419 1441 1268 1010 980 826
0 0 0 0 0 0 0 0 0 1 5 0 0 0 0 0 0 0 0 0 0 0 0 0 0 0 82 98 49 321 443 1159 1392 1155 1184 1204 1336 1418 1395 1096 936 779 635 303
0 1 2 0 0 0 0 0 0 0 0 0 0 0 2 0 0 0 0 0 0 0 0 0 0 0 24 18 5 12 252 338 760 870 893 1002 1043 999 705 615 579 337 190 108
0 0 0 0 0 0 0 0 1 0 0 0 1 1 0 0 0 0 0 0 0 0 0 0 0 0 59 2 17 16 0 0 63 739 783 664 560 568 549 364 153 43 0 0
0 0 1 0 0 0 0 0 0 2 0 1 0 0 2 2 1 0 0 0 0 0 0 0 0 0 26 72 33 1 0 0 0 433 518 194 306 280 161 61 23 0 0 0
0 0 0 1 3 0 0 0 0 0 0 0 0 0 4 1 8 3 0 0 0 0 0 0 3 52 3 0 40 10 4 32 192 435 102 105 81 73 2 0 0 1 3 1
0 0 0 0 0 0 0 0 2 4 16 0 0 0 8 10 2 0 0 0 0 0 0 0 0 17 0 0 23 17 26 142 55 48 102 22 0 0 0 0 10 21 3 0
0 0 1 2 0 0 0 3 0 16 26 0 8 16 14 2 1 0 1 1 0 0 0 0 1 9 0 0 1 0 19 1 66 25 2 0 0 0 0 18 21 12 11 0
0 0 0 1 0 1 0 0 7 0 0 0 5 14 3 3 2 4 2 0 1 0 0 0 5 9 1 0 0 4 2 34 23 0 0 0 1 11 13 19 23 16 4 0
0 0 0 0 0 1 0 0 0 0 0 3 9 1 1 3 3 2 1 1 1 1 0 1 17 58 52 76 10 24 59 25 5 0 2 0 1 10 3 0 8 11 6 1
0 2 4 3 2 10 20 7 0 0 1 9 1 0 2 3 1 1 1 2 3 1 1 13 59 24 38 99 41 46 46 34 7 7 3 0 0 0 0 0 0 0 0 0

GFSCGP_con_mlcape_054.txt.gz
CAPE
0 0 0 0 0 0 0 0 0 0 0 0 0 0 0 0 0 0 0 0 0 0 0 0 0 0 0 0 0 0 203 683 636 521 302 147 24 85 17 131 134 187 172 165
0 0 0 0 0 0 0 0 0 0 0 0 0 0 0 0 0 0 0 0 0 0 0 0 0 0 0 0 0 0 0 39 266 430 386 288 207 111 154 229 374 342 393 356
0 0 0 0 0 0 0 0 0 0 0 0 0 0 0 0 0 0 0 0 0 0 0 0 0 0 0 0 0 0 0 0 0 15 226 249 210 211 334 415 500 684 611 631
0 0 0 0 0 0 0 0 0 0 0 0 0 0 0 0 0 0 0 0 0 0 0 0 0 0 0 0 0 0 0 0 0 0 1 121 199 210 275 361 561 778 871 1010
0 0 0 0 0 0 0 0 0 0 0 0 0 0 0 0 0 0 0 0 0 0 0 0 0 0 0 0 0 0 0 0 0 0 0 0 0 112 264 251 435 552 752 930
0 0 0 0 0 0 0 0 0 0 0 0 0 0 0 0 0 0 0 0 0 0 0 0 0 0 0 0 0 0 0 0 0 0 0 0 21 82 59 51 262 470 502 462
0 0 0 0 0 0 0 0 0 0 0 0 0 0 0 0 0 0 0 0 0 0 0 0 0 0 0 0 0 0 0 0 0 0 0 0 7 50 3 77 244 340 326 220
0 0 0 0 0 0 0 0 0 0 0 0 0 0 0 0 0 0 0 0 0 0 0 0 0 0 0 0 0 0 0 0 0 0 0 0 19 84 229 226 253 359 277 92
0 0 0 0 0 0 0 0 0 0 0 0 0 0 0 0 0 0 0 0 0 0 0 0 0 0 0 0 0 0 0 0 0 0 0 0 0 27 114 302 314 378 281 81
0 0 0 0 0 0 0 0 0 0 0 0 0 0 0 0 0 0 0 0 0 0 0 0 0 0 0 0 0 0 0 0 0 0 0 0 0 0 32 147 211 302 194 126
0 0 0 0 0 0 0 0 0 0 0 0 0 0 0 0 0 0 0 0 0 0 0 0 0 0 0 0 0 0 0 0 0 0 0 0 0 0 6 113 192 196 103 155
0 0 0 0 0 0 0 0 0 0 0 0 0 0 0 0 0 0 0 0 0 0 0 0 0 0 0 0 0 0 0 0 0 0 0 0 0 0 0 37 130 114 165 465
0 0 0 0 0 0 0 0 0 0 0 0 0 0 0 0 0 0 0 0 0 0 0 0 0 0 0 0 0 0 0 0 0 0 6 0 0 0 0 0 108 210 387 657
6 0 0 0 0 0 0 0 0 3 1 0 0 0 0 0 0 0 0 0 0 0 0 0 0 0 0 0 0 0 0 0 0 10 231 0 0 0 0 66 188 422 653 883
0 0 0 0 0 0 0 0 0 0 0 3 0 0 0 0 0 0 0 0 0 0 0 0 0 0 0 0 0 1 17 0 0 513 374 2 1 92 203 387 531 890 1121 1279
0 0 0 0 0 0 0 0 0 0 0 0 0 0 0 0 0 0 0 0 0 0 0 0 0 0 0 0 0 0 33 49 450 950 636 429 451 480 523 804 1156 1191 1246 1239
8 0 0 0 0 0 0 0 0 0 0 0 0 0 0 0 0 0 0 0 0 0 0 0 0 0 0 0 0 3 61 52 1084 1070 1083 959 895 1017 1096 1147 1100 1144 1119 846
0 0 2 0 0 0 0 0 0 0 0 0 0 0 0 2 0 0 0 0 0 0 0 0 0 0 1 0 1 2 74 79 810 1132 1256 1142 1278 1106 1086 1074 1135 895 681 749
0 1 0 0 0 0 0 0 0 0 0 0 0 0 0 0 1 0 0 0 0 0 0 0 0 0 0 0 1 22 98 49 381 1105 1059 1121 1036 972 993 914 653 390 478 182
0 0 3 0 0 0 0 0 0 1 0 0 1 1 4 10 1 0 2 0 0 0 0 0 0 0 0 9 5 21 60 26 83 966 961 899 805 812 623 459 305 200 42 1
1 1 0 0 0 0 0 0 0 0 0 1 7 2 7 9 12 7 11 1 0 0 0 0 0 0 0 0 21 8 43 1 0 835 537 413 361 308 225 139 45 7 0 0
0 0 0 0 0 0 0 0 0 0 0 6 2 0 2 9 14 8 1 1 3 2 1 0 1 0 0 0 14 9 51 16 15 457 316 194 102 142 94 47 0 0 0 0
0 0 3 3 0 0 0 0 4 8 10 0 0 0 4 29 7 3 3 7 3 0 0 0 2 2 2 6 7 13 5 86 73 192 135 114 76 19 2 0 0 0 0 0
0 0 0 0 0 0 0 2 14 16 8 0 0 0 15 7 3 3 2 1 1 1 1 2 3 3 3 13 13 0 37 117 88 155 74 39 6 0 0 0 0 2 4 0
0 0 0 0 0 1 0 23 20 0 0 0 7 7 6 4 2 2 2 2 2 2 3 3 4 3 2 6 20 18 1 75 48 27 3 0 0 0 0 0 11 4 3 0
0 0 1 1 0 14 28 17 0 0 0 0 4 5 4 3 2 2 3 2 3 4 1 3 15 3 77 43 4 12 1 0 1 4 1 0 0 0 6 1 0 0 0 0

GFSCGP_con_mlcape_057.txt.gz
CAPE
0 0 0 0 0 0 0 0 0 0 0 0 0 0 0 0 0 0 0 0 0 0 0 0 0 0 0 0 0 0 0 869 1218 758 221 34 0 0 0 0 0 0 3 54
0 0 0 0 0 0 0 0 0 0 0 0 0 0 0 0 0 0 0 0 0 0 0 0 0 0 0 0 0 0 0 0 258 1011 1038 670 394 108 52 40 72 307 297 177
0 0 0 0 0 0 0 0 0 0 0 0 0 0 0 0 0 0 0 0 0 0 0 0 0 0 0 0 0 0 0 0 0 75 716 874 787 626 395 213 316 439 361 306
0 0 0 0 0 0 0 0 0 0 0 0 0 0 0 0 0 0 0 0 0 0 0 0 0 0 0 0 0 0 0 0 0 0 6 331 586 843 823 684 521 798 735 613
0 0 0 0 0 0 0 0 0 0 0 0 0 0 0 0 0 0 0 0 0 0 0 0 0 0 0 0 0 0 0 0 0 0 0 0 176 604 916 988 838 1069 1112 1116
0 0 0 0 0 0 0 0 0 0 0 0 0 0 0 0 0 0 0 0 0 0 0 0 0 0 0 0 0 0 0 0 0 0 0 0 0 9 237 488 584 593 653 1060
0 0 0 0 0 0 0 0 0 0 0 0 0 0 0 0 0 0 0 0 0 0 0 0 0 0 0 0 0 0 0 0 0 0 0 0 0 0 3 53 219 368 679 923
0 0 0 0 0 0 0 0 0 0 0 0 0 0 0 0 0 0 0 0 0 0 0 0 0 0 0 0 0 0 0 0 0 0 0 0 0 0 30 99 107 157 286 664
0 0 0 0 0 0 0 0 0 0 0 0 0 0 0 0 0 0 0 0 0 0 0 0 0 0 0 0 0 0 0 0 0 0 0 0 0 0 17 254 322 223 386 696
0 0 0 0 0 0 0 0 0 0 0 0 0 0 0 0 0 0 0 0 0 0 0 0 0 0 0 0 0 0 0 0 0 0 0 0 0 0 0 78 338 306 567 708
0 0 0 0 0 0 0 0 0 0 0 0 0 0 0 0 0 0 0 0 0 0 0 0 0 0 0 0 0 0 0 0 0 0 0 0 0 0 0 0 45 376 685 760
5 5 0 0 0 0 0 0 0 5 2 0 1 0 0 0 0 0 0 0 0 0 0 0 0 0 3 0 0 0 0 0 0 0 0 0 0 0 0 0 0 400 593 758
8 2 0 0 0 0 0 0 0 0 0 1 4 0 0 0 0 0 0 0 0 0 0 0 0 0 6 0 0 0 0 0 0 0 0 0 0 0 1 0 0 341 612 757
5 4 2 0 0 0 0 0 0 6 2 0 3 0 0 0 0 0 0 0 0 0 0 0 0 0 10 3 0 0 0 0 0 0 1 0 0 8 62 44 107 370 645 834
7 1 6 1 0 0 0 0 0 0 0 0 0 0 0 0 0 0 0 0 0 0 0 0 0 0 0 0 0 0 0 0 0 0 10 49 45 255 202 161 267 601 925 1030
7 2 4 1 0 0 0 0 0 0 0 0 0 0 0 0 0 0 0 0 0 0 0 0 0 0 0 0 0 0 0 2 3 2 1 266 480 387 345 361 559 748 1130 1425
9 12 3 0 0 0 0 0 0 0 0 0 0 0 0 0 0 0 0 2 3 0 0 0 0 0 0 0 0 3 0 0 1 13 40 351 930 583 527 524 589 948 1280 1694
5 1 4 1 0 1 0 0 0 0 0 0 0 0 1 1 2 2 2 1 20 9 5 12 6 0 0 0 0 0 0 1 9 27 54 893 1001 728 749 786 1073 1433 1746 1827
0 7 0 1 5 0 0 0 0 3 0 0 0 0 3 2 6 0 9 9 1 8 17 14 6 0 0 0 0 0 0 0 0 97 41 934 774 699 1028 1376 1478 1391 1438 1251
3 1 0 3 2 0 0 0 0 7 0 0 0 2 3 14 7 0 5 2 5 16 8 9 2 5 4 0 1 0 2 0 25 65 47 913 905 1075 1396 1174 1020 930 934 588
0 1 0 0 1 0 0 0 3 0 2 3 10 9 23 17 11 9 8 20 15 13 8 2 5 7 4 0 6 1 3 13 40 86 177 808 811 1015 845 741 621 440 260 58
0 0 0 2 2 0 1 1 2 3 1 10 30 18 18 11 14 10 8 4 4 5 3 0 2 3 1 1 1 11 3 42 102 42 481 721 573 475 398 333 138 43 5 4
0 0 1 0 0 0 0 3 3 7 31 29 8 1 5 13 15 16 7 3 5 2 1 2 4 4 2 1 1 3 0 67 192 305 408 406 350 232 159 112 22 0 0 0
1 0 0 0 0 0 0 0 10 2 2 0 0 0 9 3 6 2 3 3 2 2 2 2 4 4 3 2 3 1 1 41 207 453 257 235 148 57 17 12 20 0 0 0
0 1 1 1 0 8 5 4 9 0 0 0 0 1 5 4 3 4 3 2 2 2 3 4 4 4 1 0 0 2 2 25 164 156 126 111 50 15 13 15 10 13 9 0
2 0 0 0 1 12 6 0 1 1 0 3 2 2 2 4 3 2 3 3 4 4 4 3 4 1 0 0 3 0 62 123 105 33 68 7 1 1 0 0 0 0 0 0

GFSCGP_con_mlcape_060.txt.gz
CAPE
0 0 0 0 0 0 0 0 0 0 0 0 0 0 0 0 0 0 0 0 0 0 0 0 0 0 0 0 0 0 0 168 1500 338 196 182 160 90 71 0 12 28 67 58
0 0 0 0 0 0 0 0 0 0 0 0 0 0 0 0 0 0 0 0 0 0 0 0 0 0 0 0 0 0 0 0 33 1304 1527 889 431 168 103 59 81 56 3 30
0 0 0 0 0 0 0 0 0 0 0 0 0 0 0 0 0 0 0 0 0 0 0 0 0 0 0 0 0 0 0 0 0 0 400 1712 1816 1657 1048 385 142 134 265 51
0 0 0 0 0 0 0 0 0 0 0 0 0 0 0 0 0 0 0 0 0 0 0 0 0 0 0 0 0 0 0 0 0 0 0 105 1083 1414 1598 1612 1167 582 929 790
0 0 0 0 0 0 0 0 0 0 0 0 0 0 0 0 0 0 0 0 0 0 0 0 0 0 0 0 0 0 0 0 0 0 0 0 8 174 742 1466 1784 1445 1366 1686
0 0 0 0 0 0 0 0 0 0 0 0 0 0 0 0 0 0 0 0 0 0 0 0 0 0 0 0 0 0 0 0 0 0 0 0 1 12 106 479 1486 1772 1774 2216
4 0 0 0 0 0 0 0 0 0 0 0 0 0 0 0 0 0 0 0 0 0 0 0 0 0 0 0 0 0 0 0 0 0 0 0 4 57 44 180 378 1072 1258 1434
1 5 0 0 0 2 8 9 6 0 0 0 0 0 0 0 0 0 0 0 0 0 0 0 0 0 0 0 0 0 0 0 0 0 0 0 0 0 31 48 95 222 397 613
11 13 0 0 0 0 0 0 6 3 0 0 0 0 0 0 0 0 0 0 0 0 0 0 0 0 0 0 0 0 0 0 0 0 0 0 0 0 0 115 352 372 589 681
23 9 5 2 0 0 0 2 17 6 0 0 0 0 0 0 0 0 0 0 0 0 0 0 0 0 0 0 0 0 0 0 0 0 0 0 0 0 0 40 282 589 976 1014
30 33 21 1 9 6 0 6 20 10 12 10 0 0 0 0 0 0 0 0 0 0 0 0 0 0 0 0 0 0 0 0 0 0 0 0 0 0 0 0 255 653 1318 1326
17 26 19 9 13 2 1 26 31 17 7 8 9 0 0 0 0 0 0 1 0 0 0 0 0 0 0 0 0 0 0 0 0 0 0 0 0 0 0 0 176 554 743 1373
19 14 14 6 3 0 6 2 5 20 15 17 19 0 0 0 4 5 0 0 0 0 0 0 0 0 0 0 0 0 0 0 0 0 0 0 0 0 0 0 216 637 645 1198
2 7 15 13 0 6 8 16 21 11 15 18 2 0 5 5 9 26 20 8 5 3 5 0 0 0 0 0 0 19 6 2 0 0 0 5 12 87 14 17 245 713 690 1064
23 8 19 24 37 25 12 11 8 1 0 14 5 1 4 7 19 32 31 28 10 8 4 1 0 0 0 0 0 8 9 20 23 0 2 29 50 162 251 126 377 800 734 916
31 5 12 14 5 0 0 1 4 3 14 22 20 6 3 28 22 25 8 4 14 12 2 1 0 0 0 1 6 0 0 21 61 65 61 58 65 133 285 403 699 905 847 1025
14 15 7 3 5 11 2 43 55 33 16 27 20 45 39 30 30 4 0 8 15 8 1 12 0 12 24 16 11 1 0 34 54 144 131 159 127 177 286 614 882 961 1128 1482
12 18 10 3 4 0 46 6 0 0 4 1 19 34 30 27 20 10 19 12 12 7 9 23 9 9 22 20 18 17 7 25 42 137 221 189 165 194 463 863 1033 1209 1543 2036
1 11 8 11 31 6 0 84 60 9 0 0 5 11 8 7 16 0 1 10 5 3 17 25 18 17 8 12 18 24 18 9 57 107 197 176 247 418 959 1171 1290 1388 1855 2140
1 8 5 15 4 4 13 24 15 16 0 6 7 5 12 16 6 13 17 10 4 19 11 8 17 12 4 13 21 29 15 44 25 79 121 257 339 301 1100 1104 1026 1437 1825 2053
0 2 0 7 9 0 31 30 6 10 15 2 5 17 18 11 26 13 6 4 6 21 10 7 1 9 7 9 31 33 11 21 3 40 99 254 331 448 944 861 1252 1727 1618 1558
1 6 5 6 2 4 12 2 4 5 8 22 17 17 17 11 9 6 7 1 1 4 2 2 6 2 1 1 2 9 45 1 0 2 58 245 117 732 964 1237 1242 1097 1093 855
3 14 9 15 9 7 3 20 19 18 29 31 18 15 17 10 10 1 3 4 3 4 4 5 3 2 2 2 0 7 27 41 15 27 76 121 576 871 918 777 858 957 800 444
7 4 0 2 6 8 1 5 25 45 30 18 19 9 9 13 3 3 3 4 5 4 4 5 6 4 3 2 4 9 6 11 13 27 121 537 541 447 464 544 675 789 376 182
10 2 1 2 6 6 6 13 30 16 2 10 20 10 2 5 4 4 6 3 2 4 6 6 6 6 4 4 4 5 10 27 31 25 301 410 284 316 362 269 401 206 118 141
1 0 1 1 0 0 6 24 2 3 11 14 6 3 3 5 4 3 3 3 4 4 4 4 3 5 1 2 2 2 1 6 29 69 139 187 143 65 40 13 0 0 0 0

GFSCGP_con_mlcape_063.txt.gz
CAPE
0 0 0 0 0 0 0 0 0 0 0 0 0 0 0 0 0 0 0 0 0 0 0 0 0 0 0 0 0 0 0 220 1049 284 797 768 624 498 511 395 147 402 474 578
0 0 0 0 0 0 0 0 0 0 0 0 0 0 0 0 0 0 0 0 0 0 0 0 0 0 0 0 0 0 0 5 114 1597 479 541 482 447 599 527 340 336 399 610
0 0 0 0 0 0 0 0 0 0 0 0 0 0 0 0 0 0 0 0 0 0 0 0 0 0 0 0 0 0 0 0 0 1 561 1798 1130 336 234 423 328 357 561 562
0 0 0 0 0 0 0 0 0 0 0 0 0 0 0 0 0 0 0 0 0 0 0 0 0 0 0 0 0 0 0 0 0 0 0 44 1543 1096 1090 1260 1138 770 476 586
0 0 0 0 0 0 0 0 0 0 0 0 0 0 0 0 0 0 0 0 0 0 0 0 0 0 0 0 0 0 0 0 0 0 11 0 16 132 1442 2179 2272 2261 1789 948
5 2 0 0 0 0 0 0 0 0 0 0 0 0 0 0 0 0 0 0 0 0 0 0 0 0 0 0 0 0 0 0 0 0 0 1 25 78 98 205 804 2310 1435 1250
24 17 4 0 0 0 1 2 0 8 2 0 0 0 0 0 0 0 0 0 0 0 0 0 0 0 0 0 0 0 0 0 0 0 0 0 0 15 116 254 83 497 1683 2212
40 40 55 12 0 2 1 6 8 29 5 0 0 0 0 0 0 0 0 0 0 0 0 0 0 0 0 0 0 0 0 0 0 0 0 0 0 0 0 4 105 49 157 699
72 68 7 0 2 5 11 2 8 0 0 0 0 0 1 0 0 0 0 0 0 0 0 0 0 0 0 0 0 0 0 0 0 0 0 0 0 0 0 0 78 297 409 325
15 11 96 29 0 4 14 17 35 29 4 4 2 3 1 0 0 0 0 0 0 0 0 0 0 0 0 0 0 0 0 0 0 0 0 0 0 0 0 1 33 86 342 1012
28 32 43 20 62 45 14 9 7 29 23 11 3 0 0 0 0 0 0 0 0 0 0 0 0 0 0 0 0 0 0 0 0 0 0 0 0 0 0 0 0 41 355 716
47 128 29 24 45 41 58 52 90 33 8 8 3 0 0 0 0 0 0 0 16 4 0 0 0 0 0 0 0 0 0 0 0 0 0 0 0 0 0 0 0 8 266 972
91 40 45 16 42 10 11 11 24 19 1 6 22 1 0 0 17 16 43 46 25 12 16 4 0 0 0 0 0 0 0 0 0 0 0 0 0 0 15 4 0 26 130 453
10 3 8 6 9 0 1 24 64 51 22 10 10 16 17 8 13 37 53 56 52 27 41 13 6 6 1 0 0 0 0 0 1 2 0 0 0 5 33 89 51 23 27 265
9 7 12 25 19 21 11 24 28 33 29 20 22 34 41 12 40 42 46 49 44 38 16 24 8 1 1 3 0 0 0 3 15 18 4 8 7 28 51 47 108 45 47 270
29 10 15 21 29 11 0 1 16 27 39 42 50 23 52 66 63 60 32 25 26 12 41 26 12 10 0 0 0 0 19 17 37 18 4 18 20 44 84 90 232 399 220 492
16 49 24 7 25 46 18 22 65 47 37 2 22 64 63 25 15 29 8 1 1 13 12 14 20 4 1 4 21 0 3 24 37 27 6 40 45 59 114 128 154 182 600 1033
15 12 19 3 5 0 22 36 24 21 9 6 14 21 15 37 25 5 6 8 11 21 16 7 20 13 9 10 16 22 14 7 5 31 8 66 105 123 195 158 242 276 875 1284
2 6 12 15 37 21 27 94 77 53 0 0 8 64 37 0 15 15 11 17 17 21 22 14 17 10 23 10 0 0 19 6 6 14 25 91 156 198 283 200 394 476 937 1368
7 1 7 22 21 6 30 56 33 6 0 112 53 10 5 7 5 0 9 8 8 7 15 4 1 11 30 6 2 3 4 18 23 10 44 102 179 272 410 282 517 664 1044 1627
4 7 2 10 10 1 35 63 13 16 22 3 14 15 8 12 21 2 7 5 8 4 16 7 0 2 3 5 3 6 28 24 21 37 43 108 170 266 402 388 598 1094 1228 1710
10 23 8 17 14 12 65 5 38 39 22 17 25 35 28 25 9 4 7 6 11 8 1 1 4 2 0 0 4 2 0 0 25 53 106 25 131 242 378 522 862 1248 1367 1353
18 20 5 18 24 30 41 55 24 45 29 19 20 7 2 11 17 20 13 9 1 2 5 4 3 4 4 2 8 7 3 8 96 72 50 48 71 175 443 673 996 1092 1018 1229
9 8 0 6 14 0 11 0 12 22 24 13 4 16 11 8 7 4 2 5 7 8 9 5 4 4 5 4 2 0 1 6 30 43 36 26 15 227 492 864 1007 967 1145 1228
2 6 2 1 5 0 0 0 13 20 14 9 4 1 4 5 3 5 4 3 5 5 7 8 7 4 2 1 4 4 2 5 10 7 0 24 152 213 709 769 888 1126 1230 1233
1 0 0 2 0 3 0 1 11 9 11 15 1 4 5 6 4 4 3 5 6 6 8 8 10 8 4 8 1 0 4 1 1 12 104 109 370 455 174 208 83 2 22 88

GFSCGP_con_mlcape_066.txt.gz
CAPE
0 0 0 0 0 0 0 0 0 0 0 0 0 0 0 0 0 0 0 0 0 0 0 0 0 0 0 0 14 0 435 1982 712 1242 844 783 496 852 577 314 445 498 900 1219
0 0 0 0 0 0 0 0 0 0 0 0 0 0 0 0 0 0 0 0 0 0 0 0 0 0 0 0 0 0 32 56 1433 1119 558 563 966 874 918 752 521 332 380 763
0 0 1 0 0 0 0 0 0 0 0 0 0 0 0 0 0 0 0 0 0 0 0 0 0 0 0 0 0 0 0 1 57 871 1033 481 252 593 553 777 903 531 520 433
0 0 1 0 0 0 0 0 0 0 0 0 1 0 0 0 0 0 0 0 0 0 0 0 0 0 0 0 0 0 0 0 0 1 102 426 1469 431 214 312 502 661 409 280
0 0 7 0 0 0 0 0 0 0 0 0 0 0 0 0 0 0 0 0 0 0 0 0 0 0 0 0 0 0 0 0 0 0 0 45 68 96 486 1471 1230 971 721 460
0 0 5 3 4 0 0 0 0 1 0 0 0 0 0 0 0 0 0 0 0 0 0 0 0 0 0 0 0 0 0 0 0 0 0 0 8 69 118 192 205 1066 912 608
40 22 5 33 1 0 0 0 0 0 3 0 0 0 0 0 0 0 0 0 0 0 0 0 0 0 0 0 0 0 0 0 0 0 0 0 0 0 26 31 98 54 40 430
2 41 37 23 1 3 1 0 5 2 0 7 0 0 0 0 0 0 0 0 0 0 0 0 0 0 0 0 0 0 0 0 0 0 0 0 0 0 0 3 0 0 0 65
55 59 0 0 12 8 2 6 38 44 0 0 0 0 0 0 0 0 0 0 0 0 0 0 2 0 0 0 0 0 0 0 0 0 0 0 0 0 0 0 0 3 14 279
22 1 4 91 55 3 5 35 39 66 5 1 0 0 1 1 0 0 0 0 0 0 0 0 0 0 0 0 0 0 0 0 0 0 0 0 0 22 0 0 0 9 18 0
8 46 1 134 82 0 1 11 18 44 50 5 0 1 0 0 0 0 0 0 0 0 0 0 0 0 0 3 0 0 1 0 0 4 0 0 0 0 12 8 0 13 34 63
0 23 16 52 63 41 3 99 73 7 0 13 39 0 0 0 0 0 0 0 0 0 4 0 0 0 0 0 0 0 0 0 0 0 0 0 0 0 0 19 68 0 0 4
8 48 4 0 66 42 5 1 80 76 105 22 8 0 42 27 25 0 0 0 3 47 21 4 0 0 0 0 0 0 0 0 0 0 0 0 4 0 0 0 122 146 39 23
0 0 9 5 3 2 0 0 0 10 20 7 1 0 29 0 0 0 0 0 47 12 39 36 25 14 2 1 0 0 0 0 0 0 0 0 5 0 0 0 46 101 415 146
6 6 14 16 12 20 2 23 46 31 20 27 18 6 1 7 13 0 0 0 17 32 28 23 9 0 0 0 0 0 0 0 0 0 0 0 5 19 19 0 0 30 167 352
4 3 15 3 23 16 28 33 46 12 31 23 19 3 20 73 22 94 81 4 0 3 0 0 0 0 0 0 0 0 0 0 0 0 0 0 17 35 36 3 15 47 119 288
7 15 16 1 11 5 2 51 103 113 48 35 40 14 6 0 0 0 0 0 2 0 0 0 0 0 0 0 0 0 0 0 0 0 0 0 6 30 30 16 20 31 62 205
6 11 15 4 5 0 0 8 7 3 16 0 24 66 55 8 0 0 0 0 0 1 1 0 0 0 8 10 14 3 0 0 3 28 1 0 3 16 32 19 22 43 131 261
3 7 4 6 7 0 43 73 23 12 14 118 26 0 1 0 0 0 0 0 0 0 0 4 20 1 0 0 0 0 1 1 6 1 1 5 3 0 38 47 99 168 455 219
12 6 3 8 5 3 23 48 9 1 0 11 2 2 3 3 3 0 0 0 0 0 0 6 8 12 10 0 0 4 11 29 7 11 10 25 3 0 8 99 143 211 308 276
1 2 2 8 11 1 38 14 7 0 17 0 3 2 8 2 4 1 9 3 2 10 15 9 9 15 4 7 9 7 12 15 1 0 9 21 2 1 5 258 295 255 438 299
21 8 7 11 15 7 13 0 9 21 21 20 11 15 11 4 0 0 0 1 1 1 0 0 2 2 0 0 2 7 2 0 0 0 4 9 17 23 69 310 305 357 404 371
25 48 4 24 15 34 0 2 0 1 10 3 14 2 7 8 0 0 3 5 8 8 7 5 7 7 2 2 0 1 0 3 0 0 1 6 21 57 82 163 363 329 440 485
14 1 9 6 13 0 0 0 0 2 13 20 0 6 7 8 4 4 8 6 7 8 6 6 6 6 5 6 2 1 0 1 9 4 6 33 66 75 115 209 253 269 516 589
1 1 1 0 0 0 0 0 1 0 0 6 12 0 0 3 6 6 3 3 5 6 8 9 7 7 5 6 2 2 3 3 1 2 4 53 41 35 71 68 54 285 482 833
5 0 1 1 0 4 1 0 0 2 8 0 2 0 3 8 4 3 3 4 5 5 3 4 7 6 4 1 1 2 1 1 6 3 5 3 16 20 35 108 69 1 376 567

GFSCGP_con_mlcape_069.txt.gz
CAPE
0 0 0 0 0 0 0 0 0 0 0 0 0 0 0 0 0 0 0 0 0 0 0 0 0 0 0 0 0 0 120 1132 1475 1217 817 718 456 953 943 766 814 632 1393 1528
0 0 0 0 0 0 0 0 0 0 0 0 0 0 0 0 0 0 0 0 0 0 0 0 0 0 0 0 0 0 11 948 1167 1360 1148 823 787 708 834 812 612 439 489 892
0 0 0 0 0 0 0 0 0 0 0 0 0 0 0 0 0 0 0 0 0 0 0 0 0 0 0 0 0 0 0 39 319 906 1390 981 834 815 672 612 516 314 349 266
0 0 0 0 0 0 0 0 0 0 0 0 0 0 0 0 0 0 0 0 0 0 0 0 0 0 0 0 0 0 0 0 0 9 528 1180 652 199 380 626 647 728 588 428
0 0 0 0 0 0 0 0 0 0 0 0 0 0 0 0 0 0 0 0 0 0 0 0 0 0 0 0 0 0 0 0 0 0 5 50 387 768 763 758 534 348 347 518
0 0 0 1 7 0 0 0 0 0 0 0 0 0 0 0 0 0 0 0 0 0 0 0 0 0 0 0 0 0 0 0 0 0 0 0 0 71 189 252 326 647 933 677
0 0 5 14 26 8 10 0 0 0 0 0 0 25 0 0 0 0 0 0 0 0 0 0 0 0 0 0 0 0 0 0 0 0 0 0 0 0 0 0 46 92 142 179
3 3 3 0 28 5 1 2 0 0 0 0 2 0 0 0 0 0 0 0 0 0 0 0 0 0 0 0 0 0 0 0 0 0 0 0 0 0 0 0 0 0 0 12
1 0 0 2 1 7 24 0 0 0 0 0 0 0 0 0 0 0 0 0 0 0 0 0 0 0 0 0 0 0 0 0 0 0 0 0 0 0 0 0 0 0 0 0
0 0 4 5 18 73 72 50 3 0 1 0 0 0 0 0 0 8 0 0 0 0 0 0 0 0 0 0 0 0 0 0 0 0 0 0 0 0 0 0 0 0 0 0
12 2 0 0 116 83 18 0 0 0 1 0 0 0 0 9 1 0 0 0 0 0 0 0 0 0 0 0 0 0 0 0 0 0 0 0 0 0 0 0 0 0 0 0
0 1 0 0 4 21 8 34 0 0 0 0 0 0 0 0 0 1 0 0 0 0 0 0 0 0 0 0 0 0 0 0 0 0 0 4 0 0 0 0 0 0 9 3
15 8 0 0 14 1 0 0 0 0 0 1 0 0 24 0 0 0 0 0 0 0 0 1 0 0 0 0 0 0 0 0 0 0 0 0 0 0 0 0 0 0 0 0
0 0 0 2 2 0 0 0 0 2 0 0 0 0 5 25 11 1 0 9 0 0 0 0 0 0 0 0 0 0 0 0 0 0 0 0 0 0 0 0 0 6 0 11
1 0 2 1 0 0 0 0 0 0 0 0 3 1 30 5 1 0 10 9 0 0 0 0 0 0 0 0 0 0 0 0 0 0 0 0 0 0 0 0 0 0 1 0
6 0 0 0 0 1 0 5 19 0 0 0 0 6 0 0 0 0 0 1 0 0 0 0 0 0 0 0 0 0 0 0 0 0 0 0 0 0 0 0 0 7 0 0
0 0 0 0 0 0 0 3 14 10 7 0 0 0 0 0 8 0 0 2 0 0 0 0 0 0 0 0 0 0 0 0 0 0 0 0 0 0 0 0 0 20 5 0
0 0 2 0 0 0 12 0 0 1 3 11 9 2 0 0 0 0 0 0 0 0 0 0 0 0 0 0 0 0 0 0 0 0 0 0 0 0 0 0 0 2 3 0
0 1 0 0 0 0 16 9 1 6 3 0 0 0 0 0 0 0 0 0 0 0 0 0 0 0 0 0 0 0 0 0 0 0 0 0 0 0 0 0 0 0 6 4
1 1 0 0 0 0 3 1 0 0 0 0 0 0 0 0 0 0 0 0 0 0 0 0 0 0 0 0 0 0 0 0 0 0 0 0 0 0 0 0 0 0 4 71
0 1 0 1 0 0 0 0 0 0 0 0 2 0 0 1 1 0 0 0 0 0 0 0 4 0 0 0 1 3 0 0 0 0 0 0 0 0 0 0 0 0 0 16
0 0 0 0 0 1 0 0 0 3 0 0 0 0 0 0 4 0 0 0 0 3 6 7 2 1 0 0 1 5 0 0 0 0 1 0 0 0 0 2 0 0 0 118
3 11 1 0 3 0 0 0 0 0 0 0 2 5 8 16 5 0 4 4 8 13 9 9 12 0 0 1 4 0 0 0 0 3 0 0 0 9 0 1 0 32 124 83
1 0 0 0 0 0 0 0 0 0 0 0 0 8 1 3 3 1 4 6 7 7 8 9 10 10 7 1 0 2 7 4 1 2 4 0 2 0 0 0 21 54 8 45
0 0 0 0 0 0 0 0 0 0 0 4 17 18 2 7 6 7 3 3 5 7 7 7 9 9 8 9 4 0 4 8 3 3 5 13 1 0 0 0 2 84 157 194
0 0 0 0 0 1 1 0 0 4 11 12 25 2 0 7 6 4 1 2 2 1 2 3 3 5 5 7 3 2 7 4 5 5 3 3 0 0 0 0 3 1 9 17

GFSCGP_con_mlcape_072.txt.gz
CAPE
0 0 0 0 0 0 0 0 0 0 0 0 0 0 0 0 0 0 0 0 0 0 0 0 0 0 0 0 0 0 231 1190 1691 1820 1494 1225 1492 1330 1051 765 733 874 747 690
0 0 0 0 0 0 0 0 0 0 0 0 0 0 0 0 0 0 0 0 0 0 0 0 0 0 0 0 0 0 29 710 1110 1619 1730 1275 1078 1170 1195 913 793 853 1403 1268
0 0 0 0 0 0 0 0 0 0 0 0 0 0 0 0 0 0 0 0 0 0 0 0 0 0 0 0 0 0 0 55 456 791 1303 1339 1013 851 786 890 945 712 543 1204
0 0 0 0 0 0 0 0 0 0 0 0 0 0 0 0 0 0 0 0 0 0 0 0 0 0 0 0 0 0 0 0 0 0 178 1126 927 732 624 584 706 676 644 447
0 0 0 0 0 0 0 0 0 0 0 0 0 0 0 0 0 0 0 0 0 0 0 0 0 0 0 0 0 0 0 0 0 0 0 10 390 581 643 752 475 663 787 606
0 0 0 0 0 12 0 0 0 0 0 0 0 0 0 0 0 0 0 0 0 0 0 0 0 0 0 0 0 0 0 0 0 0 0 0 0 31 185 300 413 473 575 477
0 0 0 0 1 8 2 5 0 0 0 0 0 0 0 0 0 0 0 0 0 0 0 0 0 0 0 0 0 0 0 0 0 0 0 0 0 0 0 0 13 81 204 334
0 0 0 1 43 0 0 8 5 6 0 0 0 0 0 0 0 0 0 0 0 0 0 0 0 0 0 0 0 0 0 0 0 0 0 0 0 0 0 0 0 0 0 6
0 0 0 1 6 0 0 0 13 0 0 0 0 0 0 0 0 0 0 0 0 0 0 0 0 0 0 0 0 0 0 0 0 0 0 0 0 0 0 0 0 0 0 0
0 0 0 12 0 6 10 0 1 0 0 0 0 0 0 0 0 0 0 0 0 0 0 0 0 0 0 0 0 0 0 0 0 0 0 0 0 0 0 0 0 0 0 0
0 2 0 0 28 22 6 6 0 10 10 13 0 0 3 2 0 0 0 0 0 0 0 0 0 0 0 0 0 0 0 0 0 0 0 0 0 0 0 0 0 0 0 0
0 0 0 0 0 2 32 9 2 0 0 3 0 0 0 0 5 13 0 2 0 0 0 0 0 0 0 0 0 0 0 0 0 0 0 0 0 0 0 0 0 0 0 0
0 0 0 0 0 0 0 0 0 0 0 0 0 0 0 28 7 0 0 0 0 0 0 0 0 0 2 0 0 0 0 0 0 0 0 0 0 0 0 0 0 0 0 0
0 0 0 0 0 0 0 9 4 1 0 0 0 3 4 0 0 0 1 0 0 0 0 0 0 1 0 0 0 0 0 0 0 0 0 0 0 0 0 0 0 0 0 0
0 0 0 0 0 0 0 3 20 1 0 0 0 5 0 0 0 0 0 0 2 0 0 1 0 0 0 0 0 0 0 0 0 0 0 0 0 0 0 0 0 0 0 0
0 0 0 0 0 0 0 0 29 57 22 12 7 0 0 0 0 0 0 0 0 0 0 0 0 0 0 0 0 0 0 0 0 0 0 0 0 0 0 0 0 0 0 0
0 0 0 0 0 0 0 0 9 0 16 3 0 3 0 0 0 0 0 0 0 0 0 0 0 0 0 0 0 0 0 0 0 0 0 0 0 0 0 0 0 0 0 0
0 0 0 0 0 0 1 0 0 0 4 0 0 0 0 0 0 0 0 0 0 0 0 0 0 0 0 0 0 0 0 0 0 0 0 0 0 0 0 0 0 0 0 0
0 0 0 0 0 0 12 5 0 0 0 0 0 0 0 0 0 0 0 0 0 0 0 0 0 0 0 0 0 0 0 0 0 0 0 0 0 0 0 0 0 0 0 0
0 0 0 0 0 0 4 0 0 0 0 0 0 0 0 0 0 0 0 0 0 0 0 0 0 0 0 0 0 0 0 0 0 0 0 0 0 0 0 0 0 0 0 0
0 0 0 0 0 0 0 0 0 0 0 0 0 0 5 4 5 0 0 9 23 9 0 0 3 4 1 0 0 1 0 0 0 0 0 0 0 0 0 0 0 0 0 0
1 0 0 0 1 0 0 0 0 0 0 0 0 0 2 4 4 7 0 0 3 6 5 1 11 13 9 7 3 3 1 0 0 0 0 0 0 0 0 0 0 0 0 0
4 0 0 2 0 0 0 0 0 0 0 0 1 1 15 10 13 1 1 1 4 10 13 12 7 13 15 17 13 8 3 1 1 9 4 0 0 0 0 2 0 0 0 0
0 0 0 0 0 0 0 0 0 0 0 0 1 8 19 29 3 0 1 1 5 8 12 8 5 6 13 17 16 12 9 3 2 8 4 0 6 4 0 4 2 0 0 7
0 0 0 0 0 0 0 0 0 0 0 0 0 3 31 11 4 2 3 2 2 2 3 2 2 4 4 6 12 11 10 3 8 9 6 3 0 4 5 1 0 0 3 0
0 0 0 0 0 0 0 0 0 0 0 0 11 10 4 5 5 2 1 1 3 2 3 3 2 2 2 2 3 7 8 7 3 3 6 3 0 3 0 0 0 0 0 4

GFSCGP_con_mlcape_078.txt.gz
CAPE
0 0 0 0 0 0 0 0 0 0 0 0 0 0 0 0 0 0 0 0 0 0 0 0 0 0 0 0 138 444 677 889 1042 993 983 855 754 626 499 477 355 362 427 467
0 0 0 0 0 0 0 0 0 0 0 0 0 0 0 0 0 0 0 0 0 0 0 0 0 0 0 0 42 312 572 800 962 1153 1135 1081 843 709 605 421 506 533 509 514
0 0 0 0 0 0 0 0 0 0 0 0 0 0 0 0 0 0 0 0 0 0 0 0 0 0 0 0 66 307 608 1044 1248 1298 1283 1165 1136 915 533 507 490 499 368 448
0 0 0 0 0 0 0 0 0 0 0 0 0 0 0 0 0 0 0 0 0 0 0 0 0 0 0 0 143 643 1096 1392 1655 1664 1535 1469 1410 1169 1027 842 827 761 589 792
0 0 0 0 0 0 0 0 0 0 0 0 0 0 0 0 0 0 0 0 0 0 0 0 0 0 0 0 26 181 804 1240 1529 1981 1957 1791 1234 1182 912 875 830 766 828 579
0 0 0 0 0 0 0 0 0 0 0 0 0 0 0 0 0 0 0 0 0 0 0 0 0 0 0 0 0 0 217 309 417 586 779 923 810 741 754 762 720 571 543 514
0 0 0 0 0 0 0 0 0 0 0 0 0 0 0 0 0 0 0 0 0 0 0 0 0 0 0 0 0 0 10 5 0 0 0 0 0 0 0 46 122 198 335 433
0 0 0 0 0 0 0 0 0 0 0 0 0 0 0 0 0 0 0 0 0 0 0 0 0 0 0 0 0 0 0 0 0 0 0 0 0 0 0 0 0 0 11 79
0 0 0 0 0 0 0 0 0 25 5 0 0 0 0 0 0 0 0 0 0 0 0 0 0 0 0 0 0 0 0 0 0 0 0 0 0 0 0 0 0 0 0 0
0 0 0 0 0 4 2 10 7 17 4 1 0 0 0 0 0 0 0 0 0 0 0 0 0 0 0 0 0 0 0 0 0 0 0 0 0 0 0 0 0 0 0 0
0 0 0 0 0 0 0 0 4 3 4 3 6 0 0 0 0 0 0 0 0 0 0 0 0 0 0 0 0 0 0 0 0 0 0 0 0 0 0 0 0 0 0 0
0 0 0 0 0 0 0 0 0 0 0 0 5 0 0 0 0 0 0 0 0 0 0 0 0 0 0 0 0 0 0 0 0 0 0 0 0 0 0 0 0 0 0 0
0 0 0 0 0 0 0 0 0 0 0 0 0 0 0 0 0 0 0 0 0 0 0 0 0 0 0 0 0 0 0 0 0 0 0 0 0 0 0 0 0 0 0 0
0 0 0 0 0 0 0 0 0 0 0 0 0 0 0 0 0 0 0 0 0 0 0 0 0 0 0 0 0 0 0 0 0 0 0 0 0 0 0 0 0 0 0 0
0 0 0 0 0 0 0 0 0 0 0 0 0 0 0 0 0 0 0 0 0 0 0 0 0 0 0 0 0 0 0 0 0 0 0 0 0 0 0 0 0 0 0 0
0 0 0 0 0 0 0 0 0 0 0 0 0 0 0 0 0 0 0 0 0 0 0 0 0 0 0 0 0 0 0 0 0 0 0 0 0 0 0 0 0 0 0 0
0 0 0 0 0 0 0 0 0 0 0 0 0 0 0 0 0 0 0 0 0 0 0 0 0 0 0 0 0 0 0 0 0 0 0 0 0 0 0 0 0 0 0 0
0 0 0 0 0 0 0 0 0 0 0 0 0 0 0 0 0 0 0 0 0 0 0 0 0 0 0 0 0 0 0 0 0 0 0 0 0 0 0 0 0 0 0 0
0 0 0 0 0 0 0 0 0 0 0 0 0 0 0 0 0 0 0 0 0 0 0 0 0 0 0 0 0 0 0 0 0 0 0 0 0 0 0 0 0 0 0 0
0 0 0 0 0 0 0 0 0 0 0 0 0 0 0 0 0 0 0 0 2 4 1 3 0 0 0 2 1 0 0 0 0 0 0 0 0 0 0 0 0 0 0 0
0 0 0 0 0 0 0 0 0 0 0 0 0 0 0 0 1 0 2 10 18 16 10 2 3 10 17 22 28 14 1 0 0 0 0 0 0 0 0 0 0 0 0 0
0 0 0 0 0 0 0 0 0 0 0 0 0 0 2 1 1 7 9 11 1 14 9 13 16 13 9 14 18 15 10 7 3 1 0 0 0 0 0 0 0 0 0 0
0 0 0 0 0 0 0 0 0 0 0 0 2 2 3 4 4 7 4 3 12 10 8 7 9 8 7 7 6 4 6 17 19 16 4 1 0 0 0 0 0 0 0 0
12 1 0 0 0 0 0 0 0 0 0 0 1 3 2 4 8 6 10 3 3 3 3 3 2 2 3 2 3 4 4 4 12 24 14 13 7 6 3 1 0 0 0 0
0 0 0 0 0 0 0 0 0 0 0 1 1 1 2 12 9 3 3 4 1 1 2 2 2 2 3 2 1 2 2 5 4 13 10 1 11 8 0 0 4 0 0 0
0 0 0 0 0 0 0 0 2 1 0 1 1 1 5 12 3 3 3 3 1 1 2 2 3 3 2 3 4 2 1 3 6 14 3 11 7 12 10 12 8 2 2 0

GFSCGP_con_mlcape_081.txt.gz
CAPE
0 0 0 0 0 0 0 0 0 0 0 0 0 0 0 0 0 0 0 0 0 0 0 0 0 0 0 0 3 571 1402 1541 1680 1451 1399 1263 1165 1408 1367 1187 1276 1193 1205 1236
0 0 0 0 0 0 0 0 0 0 0 0 0 0 0 0 0 0 0 0 0 0 0 0 0 0 0 0 0 46 969 1734 1717 1602 1633 1506 1458 1387 1301 1221 1070 1003 1132 1185
0 0 0 0 0 0 0 0 0 0 0 0 0 0 0 0 0 0 0 0 0 0 0 0 0 0 0 0 0 16 580 1481 1705 1699 1751 1713 1545 1449 1297 1171 1129 1076 973 882
0 0 0 0 0 0 0 0 0 0 0 0 0 0 0 0 0 0 0 0 0 0 0 0 0 0 0 0 0 58 448 1208 1503 1753 1752 1613 1530 1524 1471 1269 1082 1035 958 833
0 0 0 0 0 0 0 0 0 0 0 0 0 0 0 0 0 0 0 0 0 0 0 0 0 0 0 0 0 13 622 1334 1741 1771 1904 1895 1935 1899 1890 1625 1403 1317 1291 1052
0 0 0 0 0 0 0 0 0 0 0 0 0 0 0 0 0 0 0 0 0 0 0 0 0 0 0 0 0 90 596 1491 1976 2235 2292 2243 2174 2219 1970 1863 1593 1646 1685 1701
0 0 0 0 0 0 0 0 0 0 0 0 0 0 0 0 0 0 0 0 0 0 0 0 0 0 0 0 0 10 263 946 1527 2215 2609 2641 2507 2429 2103 1930 1761 1649 1460 1317
0 0 0 0 0 0 0 0 0 0 0 0 0 0 0 0 0 0 0 0 0 0 0 0 0 0 0 0 0 2 107 424 795 1281 1509 1488 1310 1073 865 855 754 828 926 1112
0 0 0 0 0 0 0 0 0 0 0 0 0 0 0 0 14 12 1 0 0 0 0 0 0 0 0 18 2 0 122 455 516 595 344 189 223 164 68 36 90 87 204 364
0 0 0 0 0 0 0 0 0 2 0 0 0 1 2 0 18 16 11 0 0 0 0 0 0 1 0 0 28 24 101 240 329 135 85 57 56 92 58 9 0 0 2 0
0 0 0 0 0 0 0 0 6 2 0 1 0 0 3 0 4 0 2 0 0 0 0 0 0 0 0 1 0 39 31 11 13 122 121 131 113 101 36 0 5 28 12 0
0 0 0 0 0 0 0 0 0 4 3 10 11 0 0 39 12 0 0 0 0 0 0 0 0 0 0 0 0 0 0 39 1 0 0 33 128 75 62 61 46 77 13 10
0 0 0 0 0 0 0 0 2 8 5 0 6 0 0 8 0 0 2 0 0 0 0 0 0 0 0 0 0 0 0 0 0 0 1 0 1 52 75 125 142 129 112 6
4 0 0 0 0 0 0 0 0 1 5 0 0 0 0 0 0 0 0 0 0 0 0 0 0 0 0 0 0 0 0 0 0 0 0 0 2 3 95 163 160 49 28 1
2 1 0 0 0 0 0 0 0 0 0 1 0 0 0 0 0 0 0 0 0 0 0 0 0 0 0 0 0 0 0 0 0 0 0 0 0 0 13 27 47 2 8 3
0 0 0 0 0 0 0 0 0 0 0 0 0 0 0 0 0 0 0 0 0 0 0 0 0 0 0 0 0 0 0 0 0 0 0 0 0 0 0 0 0 0 0 10
0 0 0 0 0 0 0 0 0 0 0 0 0 0 0 0 0 0 0 0 0 0 0 0 0 0 0 0 0 0 0 0 0 0 0 0 0 0 0 0 0 0 1 0
0 0 0 0 0 0 0 0 0 0 0 0 0 0 0 0 0 0 0 0 0 0 0 0 0 1 2 0 0 0 0 0 0 0 0 0 0 0 0 0 0 0 0 0
0 0 0 0 1 0 0 0 1 1 0 0 0 0 0 0 0 0 0 0 0 0 1 2 9 0 21 9 12 5 4 0 0 0 0 0 0 0 0 0 0 0 0 0
0 0 0 1 1 0 0 0 0 0 0 0 0 0 0 0 2 0 0 0 0 14 22 45 24 21 12 12 19 3 1 1 0 0 0 0 0 0 0 0 0 0 0 0
1 0 0 1 1 2 0 0 0 1 0 0 0 0 4 3 3 3 5 8 20 18 20 23 20 20 14 17 19 16 7 5 4 9 28 13 2 0 0 0 0 0 0 0
0 3 1 2 1 0 0 0 0 0 0 1 3 3 5 4 4 6 8 9 10 13 9 6 16 4 7 8 6 4 7 5 9 14 18 19 15 6 1 0 0 0 0 0
0 2 1 0 0 0 0 0 0 0 0 3 1 1 2 4 5 6 7 6 9 8 8 14 7 5 3 3 4 3 1 3 5 9 11 13 9 9 13 6 1 0 0 0
1 3 6 0 0 0 0 0 0 0 1 1 2 3 5 3 1 5 4 3 4 6 5 6 4 2 2 2 2 2 1 1 3 5 4 15 16 18 19 19 6 0 0 0
1 2 0 0 0 0 0 0 0 0 3 1 2 3 1 6 5 2 2 2 2 2 3 3 5 5 3 2 2 3 6 4 7 3 3 9 15 13 8 7 10 6 3 0
0 3 0 0 0 0 0 0 1 1 2 1 2 1 0 8 2 2 1 2 1 1 2 3 3 4 3 2 3 3 3 3 1 3 5 6 25 10 10 9 17 12 15 3

GFSCGP_con_mlcape_087.txt.gz
CAPE
0 0 0 0 0 0 0 0 0 0 0 0 0 0 0 0 0 0 0 0 0 0 0 0 0 0 0 0 0 0 27 0 2238 2534 2606 2857 2597 2531 2605 2311 2041 1849 2079 1925
0 0 0 0 0 0 0 0 0 0 0 0 0 0 0 0 0 0 0 0 0 0 0 0 0 0 0 0 0 0 0 211 1224 2664 2900 2954 3009 2977 2731 2632 2228 2157 2319 2390
0 0 0 0 0 0 0 0 0 0 0 0 0 0 0 0 0 0 0 0 0 0 0 0 0 0 0 0 0 0 0 38 400 2411 2656 3152 3307 2947 2633 2604 2725 2747 2603 2468
0 0 0 0 0 0 0 0 0 0 0 0 0 0 0 0 0 0 0 0 0 0 0 0 0 0 0 0 0 0 0 1 208 618 2065 2327 2521 2723 2630 2673 2579 2657 2715 2489
0 0 0 0 0 0 0 0 0 0 0 0 0 0 0 0 0 0 0 0 0 0 0 0 0 0 0 0 0 0 0 0 62 587 1350 2157 2316 2512 2578 2874 2650 2752 2773 2644
0 0 0 0 0 0 0 0 0 0 0 0 0 1 1 0 0 0 0 0 0 0 0 0 1 4 7 8 8 2 0 0 58 407 907 1965 2075 2377 2515 2549 2500 2758 2739 3016
0 0 0 0 0 0 0 0 0 2 4 0 0 0 0 0 0 0 0 0 9 17 3 4 24 29 31 57 59 12 0 16 24 176 967 1609 2207 2515 2840 2335 2162 2699 2895 2851
0 1 3 0 0 0 1 9 17 7 7 5 0 0 0 0 0 0 11 37 33 36 40 40 56 72 76 108 103 70 37 72 169 103 627 1711 2064 2621 2727 2829 2349 2621 2568 2540
0 0 0 0 0 0 0 0 0 3 5 0 0 0 0 0 1 7 10 23 34 39 46 54 48 67 92 66 123 91 117 102 312 349 539 1694 1985 1922 2241 2541 2412 2766 2476 1909
0 1 1 0 0 0 0 0 1 5 1 0 0 0 0 4 0 0 2 21 22 14 40 75 74 85 87 71 50 49 108 214 257 532 556 919 1918 2248 2273 2392 2018 1659 1799 1804
0 2 0 0 0 0 1 0 0 0 7 6 2 0 0 0 0 2 11 30 35 41 39 54 105 108 85 60 53 15 69 230 242 443 660 967 1442 1740 1796 1706 992 1003 1868 2476
4 8 7 1 1 0 0 0 0 5 7 6 13 0 5 0 0 7 13 30 37 24 24 44 77 81 63 41 20 5 0 57 162 226 416 815 1038 1162 1140 1094 6 670 1415 1808
6 8 7 5 0 2 0 0 0 1 7 2 13 2 11 11 13 12 28 45 26 48 44 35 47 56 42 30 12 7 1 1 0 93 116 137 688 920 938 698 643 612 835 1006
0 12 15 8 0 20 14 3 1 12 8 16 13 20 18 11 14 12 18 40 25 37 49 53 41 30 18 14 8 2 1 0 1 0 29 93 130 563 793 882 747 656 654 658
1 11 15 14 20 3 8 0 5 6 6 9 1 5 2 6 14 33 44 47 28 23 27 23 21 21 23 29 23 17 12 5 1 2 2 1 77 58 360 787 822 668 528 395
4 7 7 2 9 4 1 0 0 1 4 8 5 0 7 26 26 33 10 2 7 1 0 3 14 10 9 14 4 3 4 0 15 14 4 1 0 28 2 57 571 976 799 567
17 27 16 3 0 7 0 1 3 0 4 17 19 25 13 20 17 0 0 0 0 0 1 0 0 0 1 6 3 8 11 2 10 0 17 7 0 0 5 0 19 641 1149 1175
14 14 18 18 5 3 0 23 1 6 0 6 24 34 30 7 2 0 0 0 0 0 1 4 12 7 14 16 18 6 9 0 12 1 0 4 16 2 0 0 0 66 531 958
21 17 4 6 3 1 2 12 19 6 4 3 24 7 0 0 0 0 0 0 0 6 12 14 10 18 13 12 16 27 10 17 0 0 1 0 3 9 13 0 0 12 12 481
4 41 19 5 23 10 26 7 0 0 0 11 2 0 0 0 0 0 0 0 3 15 17 19 21 18 17 18 20 19 13 14 10 1 0 0 0 0 0 9 0 0 26 17
10 17 1 11 13 12 29 6 5 1 27 1 0 0 0 0 2 0 0 0 11 4 13 17 19 17 15 13 8 9 6 4 9 7 4 3 2 1 0 0 28 0 0 0
7 7 7 6 12 8 7 15 7 10 0 0 0 0 0 0 0 0 1 0 2 9 12 14 12 11 8 6 3 3 3 3 6 7 4 4 4 0 0 1 0 14 1 0
10 12 23 12 22 62 63 38 14 0 4 1 0 1 1 0 0 1 0 0 6 9 11 9 7 4 3 6 6 5 2 3 5 5 4 5 6 14 3 1 0 1 43 0
4 37 28 17 35 26 20 31 6 13 3 0 0 0 0 5 1 3 0 0 5 7 5 4 7 6 4 3 2 2 2 1 3 3 2 3 3 5 10 3 0 2 22 33
1 18 8 13 24 31 48 17 11 2 0 0 0 0 1 3 4 1 0 3 6 5 4 5 6 4 4 3 2 1 2 1 2 3 3 5 3 4 3 3 3 0 15 28
5 5 16 21 19 18 31 14 4 0 0 0 0 0 0 4 3 0 3 4 4 3 4 4 4 3 3 2 2 1 1 0 2 6 4 3 5 3 4 5 3 0 0 0

GFSCGP_con_mlcape_090.txt.gz
CAPE
0 0 0 0 0 0 0 0 0 0 0 0 0 0 0 0 0 0 0 0 0 0 0 0 0 0 0 0 0 0 0 0 0 217 2092 2947 2823 2676 2486 2492 1803 1640 1686 1826
0 0 0 0 0 0 0 0 0 0 0 0 0 0 0 0 0 0 0 0 0 0 0 0 0 0 0 0 0 0 0 0 49 221 873 2403 2930 2996 2599 2622 2416 2185 1834 1647
0 0 0 0 0 0 0 0 0 0 0 0 0 0 0 0 0 0 0 0 0 0 0 0 0 0 0 0 0 0 0 50 153 324 76 1475 2206 2492 2436 2457 2288 2277 2463 1967
0 0 0 0 0 0 0 0 0 0 0 0 0 0 0 0 0 0 0 0 0 0 0 0 0 0 0 0 0 0 0 0 0 0 158 277 1218 2098 2423 2195 2565 2573 2272 2287
0 0 0 0 0 0 0 0 0 0 0 0 0 0 0 0 0 0 0 0 0 0 0 0 0 0 0 0 0 0 0 0 0 0 66 140 143 1247 2006 2528 2249 2190 2395 2479
0 0 0 0 0 0 0 0 0 0 0 0 0 0 0 0 0 0 0 0 0 0 0 0 0 0 1 1 1 2 1 4 0 0 50 138 673 416 1798 2026 2240 2194 2233 2391
0 0 0 0 0 0 0 0 0 2 1 0 1 0 0 0 0 0 0 0 0 0 0 0 0 0 0 0 1 2 9 55 78 51 44 177 251 910 1476 1911 2228 2128 2059 2252
0 7 6 1 0 0 1 0 2 6 12 3 0 0 0 0 0 0 0 0 0 0 0 0 0 5 0 6 18 17 35 67 65 51 113 200 364 892 1348 2120 1972 1925 1965 1992
2 0 0 0 0 0 0 0 2 1 0 0 0 0 0 0 0 0 0 0 1 0 0 0 3 8 6 19 33 50 87 112 93 267 211 360 412 526 1235 1710 1918 1722 2020 1729
0 0 0 1 0 0 0 0 0 0 0 0 0 0 0 0 0 0 0 0 2 0 7 13 17 21 25 24 31 65 181 109 167 177 334 241 436 769 944 1469 1888 1794 1833 1161
0 12 0 0 0 0 0 0 0 0 20 0 0 0 0 0 0 0 0 0 0 0 6 2 3 14 31 34 29 41 66 34 23 46 167 245 353 510 777 951 1419 1670 545 0
7 7 6 4 3 0 0 0 1 0 0 1 11 0 0 0 0 0 0 1 2 8 7 2 16 25 23 21 28 22 29 14 3 13 7 137 195 280 466 702 868 503 147 0
5 14 10 7 4 1 0 0 0 0 0 1 0 0 0 0 0 0 2 0 0 23 11 5 25 30 29 25 18 11 13 14 7 0 0 1 112 141 196 643 743 358 167 7
0 0 13 10 13 1 2 17 3 0 0 0 0 4 11 7 0 0 0 9 10 3 1 0 0 0 0 4 7 6 2 10 12 33 27 8 8 33 88 189 191 472 108 395
4 1 10 8 6 0 0 6 1 2 0 1 0 2 2 0 0 18 15 1 0 0 0 0 0 0 0 0 0 0 0 0 0 0 0 0 0 10 5 85 96 109 178 279
12 1 10 1 3 13 7 8 3 0 0 0 0 0 1 15 0 0 0 0 0 0 0 0 0 0 0 0 0 0 0 0 0 0 0 0 0 0 0 20 20 94 118 430
6 10 8 3 8 8 2 1 0 1 4 0 2 8 1 0 0 0 0 0 0 0 0 0 0 0 0 0 2 3 2 0 0 0 0 0 0 0 0 2 19 93 40 125
16 14 14 0 3 5 0 0 5 5 1 1 1 15 2 0 0 0 0 0 0 0 0 0 0 0 0 7 9 14 13 10 15 11 9 1 0 1 0 0 3 29 54 20
4 14 0 7 10 0 0 11 27 26 11 36 7 0 0 0 0 0 0 0 0 0 0 2 0 3 10 16 15 15 19 15 8 17 16 2 19 0 0 0 0 2 15 24
4 9 7 7 3 1 40 22 1 0 0 8 0 0 0 0 0 0 0 0 0 0 0 0 1 7 10 8 9 11 8 10 6 10 16 21 21 6 0 6 0 0 2 35
5 10 2 4 1 0 44 14 2 11 19 1 0 0 0 0 0 0 0 0 0 0 0 1 8 8 6 4 3 3 4 3 3 4 4 6 8 11 8 0 0 0 0 3
4 4 1 0 3 1 31 18 14 8 5 0 0 0 0 0 0 0 0 0 0 0 0 5 7 5 3 4 4 4 4 2 2 2 2 3 3 3 7 4 0 0 0 1
1 9 15 13 12 31 61 40 19 0 0 0 0 0 0 0 0 0 0 0 0 2 6 7 5 4 5 4 3 3 1 1 1 2 2 1 4 3 2 2 7 0 0 0
18 9 0 10 3 2 36 17 4 1 1 1 0 0 0 0 0 0 0 0 2 4 6 5 4 4 3 2 2 2 1 0 1 2 2 3 3 2 3 6 8 7 1 0
0 4 13 16 21 31 16 8 4 3 0 0 0 0 0 0 0 0 0 1 4 5 5 4 4 3 3 2 2 2 0 0 1 1 1 5 1 3 2 4 3 6 5 2
6 5 8 11 23 2 10 0 5 0 0 0 0 0 0 0 0 0 1 4 4 4 3 4 3 3 3 3 3 1 0 1 1 5 7 3 5 4 3 3 5 2 8 3

GFSCGP_con_mlcape_093.txt.gz
CAPE
0 0 0 0 0 0 0 0 0 0 0 0 0 0 0 0 0 0 0 0 0 0 0 0 0 0 0 0 0 0 0 0 0 0 0 1580 1808 1992 2059 1872 1788 1527 1110 992
0 0 0 0 0 0 0 0 0 0 0 0 0 0 0 0 0 0 0 0 0 0 0 0 0 0 0 0 0 0 0 0 0 45 23 109 463 1568 2218 2180 1955 1708 1484 1333
0 0 0 0 0 0 0 0 0 0 0 0 0 0 0 0 0 0 0 0 0 0 0 0 0 0 0 0 0 0 0 0 0 0 0 0 5 318 1256 1384 1638 1828 1824 1688
0 0 0 0 0 0 0 0 0 0 0 0 0 0 0 0 0 0 0 0 0 0 0 0 0 0 0 0 0 0 0 0 0 0 0 0 0 0 5 255 1179 1570 1722 1570
0 0 0 0 0 0 0 0 0 0 0 0 0 0 0 0 0 0 0 0 0 0 0 0 0 0 0 0 0 0 0 0 0 0 0 0 0 0 0 0 382 1067 1301 1606
0 0 0 0 0 0 0 0 0 0 0 0 0 0 0 0 0 0 0 0 0 0 0 0 0 0 0 0 0 0 0 0 0 0 0 0 0 0 0 0 0 515 1161 1445
0 0 0 0 0 0 0 0 0 0 0 0 0 0 0 0 0 0 0 0 0 0 0 0 0 0 0 0 0 0 0 0 0 0 0 0 0 0 43 4 34 385 1065 1415
0 0 0 0 0 0 1 0 8 0 0 0 0 0 0 0 0 0 0 0 0 0 0 0 0 0 0 0 0 0 0 0 0 0 0 5 5 54 88 143 266 273 568 1456
0 0 1 0 0 0 0 0 0 0 0 0 0 0 0 0 0 0 0 0 0 0 0 0 0 0 0 0 0 0 0 0 0 0 0 0 0 69 95 77 140 290 501 849
0 0 0 0 0 0 0 0 0 0 0 0 0 0 0 0 0 0 0 0 0 0 0 0 0 0 0 0 0 0 0 4 21 0 0 0 0 9 39 112 74 164 455 669
0 0 0 0 14 0 0 0 0 0 0 0 0 0 0 0 0 0 0 0 0 0 0 0 1 0 0 0 0 0 0 4 5 1 0 0 0 0 1 17 38 97 414 405
1 0 0 0 0 1 5 0 0 0 0 2 3 0 0 0 0 0 0 0 0 0 0 0 0 0 0 0 0 0 0 0 0 0 0 0 0 0 0 5 0 44 137 186
0 0 0 0 0 0 5 0 1 6 0 0 0 0 0 0 0 0 0 0 0 0 0 0 0 0 0 0 0 0 0 0 0 0 0 0 0 0 0 0 4 1 65 101
0 3 2 0 13 3 0 0 5 0 0 0 0 0 0 0 2 1 0 0 0 0 0 0 0 0 0 0 0 0 0 0 0 0 0 0 0 0 0 0 0 0 2 65
0 0 0 0 0 0 3 0 0 3 0 1 0 0 0 0 0 0 0 0 0 0 0 0 0 0 0 0 0 0 0 0 0 0 0 0 0 0 0 0 0 0 0 16
7 0 0 0 0 0 0 8 1 0 4 7 2 0 0 0 0 0 0 0 0 0 0 0 0 0 0 0 0 0 0 0 0 2 0 0 0 0 0 0 0 0 0 0
1 6 0 0 0 0 0 0 0 0 4 0 0 0 0 0 0 0 0 0 0 0 0 0 0 0 0 0 0 0 3 8 10 10 5 2 4 0 0 0 0 0 0 0
6 11 13 0 0 0 0 0 0 1 8 0 0 0 0 0 0 0 0 0 0 0 0 0 0 0 0 0 0 2 5 3 2 3 11 10 1 1 3 3 0 0 0 0
0 14 1 2 2 0 0 0 16 16 0 0 0 0 0 0 0 0 0 0 0 0 0 0 0 0 0 1 3 3 3 2 2 2 2 4 3 3 6 1 7 0 0 0
1 9 2 0 0 0 5 33 2 0 0 0 0 0 0 0 0 0 0 0 0 0 0 0 0 0 3 2 1 2 2 2 2 2 1 1 1 2 0 1 2 0 4 3
1 7 1 0 0 0 4 0 0 0 0 0 0 0 0 0 0 0 0 0 0 0 0 0 1 4 3 1 1 3 3 3 1 1 1 0 1 1 1 3 3 14 6 6
0 0 1 1 1 0 64 77 20 0 0 0 0 0 0 0 0 0 0 0 0 0 0 2 6 3 1 2 3 3 3 1 1 1 1 1 1 1 3 1 2 2 1 6
6 1 2 1 0 0 28 31 8 0 0 0 0 0 0 0 0 0 0 0 0 0 3 5 5 3 2 1 2 3 1 1 1 1 1 1 1 1 0 1 2 5 5 6
4 14 0 2 0 0 5 0 1 0 0 0 0 0 0 0 0 0 0 0 2 3 5 4 3 3 3 2 2 2 2 1 1 1 1 1 13 7 5 1 2 2 3 11
0 3 9 0 0 3 12 2 0 0 0 0 0 0 0 0 0 0 0 2 4 4 3 3 3 3 3 2 2 2 1 0 2 1 2 2 4 9 6 2 3 2 4 5
3 0 0 1 12 7 0 9 0 0 0 0 0 0 0 0 0 0 2 3 4 3 2 2 2 3 2 2 2 1 0 1 2 3 2 0 0 3 4 4 2 0 3 5

GFSCGP_con_mlcape_096.txt.gz
CAPE
0 0 0 0 0 0 0 0 0 0 0 0 0 0 0 0 0 0 0 0 0 0 0 0 0 0 0 0 0 0 0 0 0 0 0 0 301 1292 1393 1297 1326 1272 905 772
0 0 0 0 0 0 0 0 0 0 0 0 0 0 0 0 0 0 0 0 0 0 0 0 0 0 0 0 0 0 0 0 0 0 0 0 0 0 0 540 1069 826 950 923
0 0 0 0 0 0 0 0 0 0 0 0 0 0 0 0 0 0 0 0 0 0 0 0 0 0 0 0 0 0 0 0 0 0 0 0 0 0 0 0 0 78 382 869
0 0 0 0 0 0 0 0 0 0 0 0 0 0 0 0 0 0 0 0 0 0 0 0 0 0 0 0 0 0 0 0 0 0 0 0 0 0 0 0 0 0 0 0
0 0 0 0 0 0 0 0 0 0 0 0 0 0 0 0 0 0 0 0 0 0 0 0 0 0 0 0 0 0 0 0 0 0 0 0 0 0 0 0 0 0 0 0
0 0 0 0 0 0 0 0 0 0 0 0 0 0 0 0 0 0 0 0 0 0 0 0 0 0 0 0 0 0 0 0 0 0 0 0 0 0 0 0 0 0 0 0
0 0 0 0 0 0 0 0 0 0 0 0 0 0 0 0 0 0 0 0 0 0 0 0 0 0 0 0 0 0 0 0 0 0 0 0 0 0 0 0 0 0 0 0
0 0 0 0 0 0 0 0 0 0 0 0 0 0 0 0 0 0 0 0 0 0 0 0 0 0 0 0 0 0 0 0 0 0 0 0 0 0 0 0 0 0 0 0
0 0 0 0 0 0 0 0 0 0 0 0 0 0 0 0 0 0 0 0 0 0 0 0 0 0 0 0 0 0 0 0 0 0 0 0 0 0 0 0 0 0 0 0
0 0 3 0 0 0 0 0 0 0 0 0 0 0 0 0 0 0 0 0 0 0 0 0 0 0 0 0 0 0 0 0 0 0 0 0 0 0 0 0 0 0 0 0
0 0 0 0 0 0 0 1 0 0 0 0 0 0 0 0 0 0 0 0 0 0 0 0 0 0 0 0 0 0 0 0 0 0 0 0 0 0 0 0 0 0 0 0
0 0 0 0 0 0 0 1 0 0 0 0 0 0 0 0 0 0 0 0 0 0 0 0 0 0 0 0 0 0 0 0 0 0 0 0 0 0 0 0 0 0 0 0
0 0 0 0 0 0 0 0 1 0 0 0 0 0 0 0 0 0 0 0 0 0 0 0 0 0 0 0 0 0 0 0 0 0 0 0 0 0 0 0 0 0 0 0
0 0 0 0 0 0 3 2 0 0 0 0 0 0 0 0 0 0 0 0 0 0 0 0 0 0 0 0 0 0 0 0 0 0 0 0 0 0 0 0 0 0 0 0
0 0 0 0 0 0 0 0 0 0 1 1 0 0 0 0 0 0 0 0 0 0 0 0 0 0 0 0 0 0 0 0 0 0 0 0 0 0 0 0 0 0 0 0
0 0 0 0 0 0 0 0 0 0 0 6 0 0 0 0 0 0 0 0 0 0 0 0 0 0 0 0 0 0 0 0 0 1 3 0 0 0 0 3 4 0 0 0
0 0 1 0 0 0 0 0 0 0 1 6 0 0 0 0 0 0 0 0 0 0 0 0 0 0 0 0 0 0 0 0 0 1 0 1 0 2 3 0 0 0 4 0
0 5 8 3 1 0 0 0 1 0 0 0 0 0 0 0 0 0 0 0 0 0 0 0 0 0 0 0 0 1 1 1 1 1 1 1 0 1 1 1 1 1 0 0
3 10 2 0 0 0 0 2 2 0 0 0 0 0 0 0 0 0 0 0 0 0 0 0 0 0 0 0 1 1 1 1 2 2 2 1 1 1 1 0 0 0 0 0
0 0 1 0 0 0 0 17 0 0 0 0 0 0 0 0 0 0 0 0 0 0 0 0 0 0 0 1 1 2 2 2 2 2 2 1 0 1 1 1 0 0 0 2
0 4 0 2 1 0 0 1 0 0 0 0 0 0 0 0 0 0 0 0 0 0 0 0 0 1 1 1 1 3 2 3 1 1 1 1 1 1 1 1 1 0 4 1
0 0 0 2 2 0 1 10 5 0 0 0 0 0 0 0 0 0 0 0 0 0 1 0 1 2 1 1 1 3 3 1 1 1 1 1 0 1 1 1 1 1 3 2
9 0 0 0 0 0 14 5 0 0 0 0 0 0 0 0 0 0 0 0 1 3 3 1 3 3 2 1 1 3 2 1 2 2 1 1 1 1 4 6 5 1 0 2
3 7 1 1 3 9 3 2 0 0 0 0 0 0 0 0 0 0 0 1 2 3 2 3 2 3 3 2 1 1 1 1 2 3 3 3 2 0 0 2 13 3 2 2
0 2 2 0 0 5 0 0 2 0 0 0 0 0 0 0 0 0 0 3 4 2 3 2 3 3 3 2 2 1 1 1 3 5 3 3 1 0 2 1 8 4 3 1
0 0 0 0 2 3 0 0 0 0 0 0 0 0 0 0 0 0 1 3 3 3 2 2 2 2 3 2 2 1 2 2 4 2 4 4 1 0 0 1 1 2 1 0

GFSCGP_con_mlcape_099.txt.gz
CAPE
0 0 0 0 0 0 0 0 0 0 0 0 0 0 0 0 0 0 0 0 0 0 0 0 0 0 0 0 0 0 0 0 0 0 0 0 1 0 32 317 1011 1101 880 865
0 0 0 0 0 0 0 0 0 0 0 0 0 0 0 0 0 0 0 0 0 0 0 0 0 0 0 0 0 0 0 0 0 0 0 0 0 0 0 0 0 0 16 131
0 0 0 0 0 0 0 0 0 0 0 0 0 0 0 0 0 0 0 0 0 0 0 0 0 0 0 0 0 0 0 0 0 0 0 0 0 0 0 0 0 0 0 0
0 0 0 0 0 0 0 0 0 0 0 0 0 0 0 0 0 0 0 0 0 0 0 0 0 0 0 0 0 0 0 0 0 0 0 0 0 0 0 0 0 0 0 0
0 0 0 0 0 0 0 0 0 0 0 0 0 0 0 0 0 0 0 0 0 0 0 0 0 0 0 0 0 0 0 0 0 0 0 0 0 0 0 0 0 0 0 0
0 0 0 0 0 0 0 0 0 0 0 0 0 0 0 0 0 0 0 0 0 0 0 0 0 0 0 0 0 0 0 0 0 0 0 0 0 0 0 0 0 0 0 0
0 0 0 0 0 0 0 0 0 0 0 0 0 0 0 0 0 0 0 0 0 0 0 0 0 0 0 0 0 0 0 0 0 0 0 0 0 0 0 0 0 0 0 0
0 0 0 0 0 0 0 0 0 0 0 0 0 0 0 0 0 0 0 0 0 0 0 0 0 0 0 0 0 0 0 0 0 0 0 0 0 0 0 0 0 0 0 0
0 0 0 0 0 0 0 0 0 0 0 0 0 0 0 0 0 0 0 0 0 0 0 0 0 0 0 0 0 0 0 0 0 0 0 0 0 0 0 0 0 0 0 0
0 0 0 2 5 6 2 0 0 0 0 0 0 0 0 0 0 0 0 0 0 0 0 0 0 0 0 0 0 0 0 0 0 0 0 0 0 0 0 0 0 0 0 0
0 0 0 0 6 10 6 1 0 0 0 0 0 0 0 0 0 0 0 0 0 0 0 0 0 0 0 0 0 0 0 0 0 0 0 0 0 0 0 0 0 0 0 0
0 0 0 0 0 0 0 0 0 0 0 0 0 0 0 0 0 0 0 0 0 0 0 0 0 0 0 0 0 0 0 0 0 0 0 0 0 0 0 0 0 0 0 0
0 0 0 0 0 0 0 0 0 0 0 0 0 0 0 0 0 0 0 0 0 0 0 0 0 0 0 0 0 0 0 0 0 0 0 0 0 0 0 0 0 0 0 0
0 0 0 0 0 0 0 0 0 5 7 0 0 0 0 0 0 0 0 0 0 0 0 0 0 0 0 0 0 0 0 0 0 0 0 0 0 0 0 0 0 0 0 0
0 0 0 0 0 0 0 0 0 0 0 2 0 0 0 0 0 0 0 0 0 0 0 0 0 0 0 0 0 0 0 0 0 0 0 0 0 0 0 0 0 0 0 1
0 0 0 0 0 0 0 0 0 0 0 0 0 0 0 0 0 0 0 0 0 0 0 0 0 0 0 0 0 0 0 0 0 0 0 0 0 0 0 0 0 0 0 0
0 0 0 0 0 0 0 0 0 0 0 0 0 0 0 0 0 0 0 0 0 0 0 0 0 0 0 0 0 0 1 0 0 0 0 0 0 0 0 0 0 0 0 0
0 0 0 0 0 0 0 0 0 0 0 0 0 0 0 0 0 0 0 0 0 0 0 0 0 0 0 0 0 0 0 1 1 2 0 0 0 0 0 0 0 0 0 0
0 0 3 0 0 0 0 2 10 0 0 0 0 0 0 0 0 0 0 0 0 0 0 0 0 0 0 0 0 1 1 0 0 0 2 0 0 0 0 0 0 0 0 0
0 5 1 2 0 0 0 0 1 3 0 0 0 0 0 0 0 0 0 0 0 0 0 0 1 1 0 1 0 1 2 2 3 2 1 1 0 1 1 1 1 0 0 0
1 5 0 1 0 0 0 0 0 0 0 0 0 0 0 0 0 0 0 0 0 0 0 1 0 2 2 1 1 3 2 4 1 1 1 1 1 1 2 1 1 1 2 3
0 0 0 1 1 0 0 0 8 0 0 0 0 0 0 0 0 0 0 0 0 0 3 2 3 3 1 1 1 3 4 2 1 1 1 2 2 2 2 2 6 7 14 12
0 0 0 0 0 0 0 0 0 0 0 0 0 0 0 0 0 0 0 0 1 1 3 2 3 2 2 1 1 4 2 1 2 1 4 4 3 2 2 5 9 7 6 2
12 10 3 0 0 0 6 0 0 0 0 0 0 0 0 0 0 0 0 0 2 2 3 2 3 3 3 1 1 1 1 1 1 3 3 3 5 2 2 0 1 3 10 5
2 1 1 3 0 0 0 0 1 0 0 0 0 0 0 0 0 0 0 0 1 1 1 2 3 3 2 1 2 1 1 1 2 3 3 4 4 3 3 0 0 1 1 4
0 0 1 0 0 0 0 0 0 0 0 0 0 0 0 0 0 0 0 0 0 0 1 1 1 2 2 2 2 1 1 1 4 3 2 4 5 4 2 0 0 0 0 0

GFSCGP_con_mlcape_102.txt.gz
CAPE
0 0 0 0 0 0 0 0 0 0 0 0 0 0 0 0 0 0 0 0 0 0 0 0 0 0 0 33 83 199 261 384 546 597 755 681 492 577 559 673 792 926 867 763
0 0 0 0 0 0 0 0 0 0 0 0 0 0 0 0 0 0 0 0 0 0 0 0 0 0 0 0 50 91 64 3 0 0 0 0 0 0 0 0 0 0 0 0
0 0 0 0 0 0 0 0 0 0 0 0 0 0 0 0 0 0 0 0 0 0 0 0 0 0 0 0 0 0 0 0 0 0 0 0 0 0 0 0 0 0 0 0
0 0 0 0 0 0 0 0 0 0 0 0 0 0 0 0 0 0 0 0 0 0 0 0 0 0 0 0 0 0 0 0 0 0 0 0 0 0 0 0 0 0 0 0
0 0 0 0 0 0 0 0 0 0 0 0 0 0 0 0 0 0 0 0 0 0 0 0 0 0 0 0 0 0 0 0 0 0 0 0 0 0 0 0 0 0 0 0
0 0 0 0 0 0 0 0 0 0 0 0 0 0 0 0 0 0 0 0 0 0 0 0 0 0 0 0 0 0 0 0 0 0 0 0 0 0 0 0 0 0 0 0
0 0 0 0 0 0 0 0 0 0 0 0 0 0 0 0 0 0 0 0 0 0 0 0 0 0 0 0 0 0 0 0 0 0 0 0 0 0 0 0 0 0 0 0
0 0 0 0 0 0 0 0 0 0 0 0 0 0 0 0 0 0 0 0 0 0 0 0 0 0 0 0 0 0 0 0 0 0 0 0 0 0 0 0 0 0 0 0
0 0 0 0 0 0 0 0 0 0 0 0 0 0 0 0 0 0 0 0 0 0 0 0 0 0 0 0 0 0 0 0 0 0 0 0 0 0 0 0 0 0 0 0
0 0 0 0 1 0 0 0 0 0 0 0 0 0 0 0 0 0 0 0 0 0 0 0 0 0 0 0 0 0 0 0 0 0 0 0 0 0 0 0 0 0 0 0
0 0 0 0 1 9 0 0 0 0 0 0 0 0 0 0 0 0 0 0 0 0 0 0 0 0 0 0 0 0 0 0 0 0 0 0 0 0 0 0 0 0 0 0
0 0 0 0 0 0 0 2 0 3 0 0 0 0 0 0 0 0 0 0 0 0 0 0 0 0 0 0 0 0 0 0 0 0 0 0 0 0 0 0 0 0 0 0
0 0 0 0 0 0 0 0 0 0 0 0 0 0 0 0 0 0 0 0 0 0 0 0 0 0 0 0 0 0 0 0 0 0 0 0 0 0 0 0 0 0 0 0
0 0 0 0 0 0 0 0 0 0 0 0 0 0 0 0 0 0 0 0 0 0 0 0 0 0 0 0 0 0 0 0 0 0 0 0 0 0 0 0 0 0 0 0
0 0 0 0 0 0 0 0 0 0 0 1 0 0 0 0 0 0 0 0 0 0 0 0 0 0 0 0 0 0 0 0 0 0 0 0 0 0 0 0 0 0 0 0
0 0 0 0 0 0 0 0 0 0 0 0 0 0 0 0 0 0 0 0 0 0 0 0 0 0 0 0 0 0 0 1 0 1 0 0 0 0 0 0 0 0 0 0
0 0 0 0 0 0 0 0 0 0 0 0 0 0 0 0 0 0 0 0 0 0 0 0 0 0 0 0 1 1 0 0 0 0 0 0 0 0 0 0 0 0 0 0
0 0 0 0 0 0 0 0 0 0 0 0 0 0 0 0 0 0 0 0 0 0 0 0 0 0 0 0 0 0 0 0 0 0 0 0 0 0 0 0 0 0 0 0
0 0 0 0 0 0 0 0 0 1 0 0 0 0 0 0 0 0 0 0 0 0 0 0 0 1 0 0 0 1 1 1 2 2 1 1 0 0 0 0 0 0 0 0
0 1 0 1 1 0 0 0 0 0 0 0 0 0 0 0 0 0 0 0 0 0 0 0 0 0 0 0 0 1 1 2 2 1 1 1 0 1 1 1 1 0 0 1
1 7 1 0 0 0 0 0 0 0 0 0 0 0 0 0 0 0 0 0 0 0 1 0 0 1 1 0 1 2 2 3 2 1 1 1 1 2 2 1 1 1 5 20
0 0 0 0 0 0 0 0 0 0 0 0 0 0 0 0 0 0 0 0 0 2 1 2 3 2 1 1 1 2 3 1 1 1 1 1 0 1 2 2 2 2 2 4
3 0 0 0 0 0 0 0 0 0 0 0 0 0 0 0 0 0 0 0 0 0 0 0 1 2 1 0 1 3 2 1 1 2 0 0 0 2 3 4 3 1 1 7
2 1 0 0 0 0 0 0 0 0 0 0 0 0 0 0 0 0 0 0 0 0 0 0 1 2 2 1 2 1 1 1 2 3 2 2 2 3 3 3 3 1 1 4
5 15 3 1 0 0 0 0 0 0 0 0 0 0 0 0 0 0 0 0 0 0 0 1 2 1 1 1 1 1 1 1 3 4 4 2 3 5 3 3 3 1 0 0
0 0 1 0 0 0 0 0 0 0 0 0 0 0 0 0 0 0 0 0 0 0 0 1 2 2 2 2 2 1 1 1 3 4 4 3 3 4 5 4 1 0 0 0

GFSCGP_con_mlcape_105.txt.gz
CAPE
0 0 0 0 0 0 0 0 0 0 0 0 0 0 0 0 0 0 0 0 0 0 0 0 0 0 0 6 106 780 872 1223 1298 1328 1368 1492 1570 1582 1873 1976 1705 1527 1465 1385
0 0 0 0 0 0 0 0 0 0 0 0 0 0 0 0 0 4 0 0 0 0 5 0 0 0 0 35 329 720 990 1127 1309 1026 872 686 446 202 132 55 145 218 124 121
0 0 0 0 0 0 0 0 0 0 0 0 0 0 0 0 0 0 0 0 0 0 0 0 0 0 0 75 311 351 249 354 451 183 12 1 0 0 0 0 0 0 0 0
0 0 0 0 0 0 0 0 0 0 0 0 0 0 0 0 0 0 0 0 0 0 0 0 0 0 0 114 136 55 12 3 0 0 0 0 0 0 0 0 0 0 0 0
0 0 0 0 0 0 0 0 0 0 0 0 0 0 0 0 0 0 0 0 0 0 0 0 0 1 5 10 0 0 0 0 0 0 0 0 0 0 0 0 0 0 0 0
0 0 0 0 0 0 0 0 0 0 0 0 0 0 0 0 0 0 0 0 0 0 0 12 40 16 1 0 0 0 0 0 0 0 0 0 0 0 0 0 0 0 0 0
0 0 0 0 0 0 0 0 0 0 0 0 0 0 0 0 0 0 0 0 0 1 14 1 0 0 0 0 0 0 0 0 0 0 0 0 0 0 0 0 0 0 0 0
0 0 0 0 0 0 0 0 0 0 0 0 0 0 0 0 0 0 0 0 0 0 0 0 0 0 0 0 0 0 0 0 0 0 0 0 0 0 0 0 0 0 0 0
0 0 0 0 0 0 0 0 0 0 0 0 0 0 0 0 0 0 0 0 0 0 0 0 0 0 0 0 0 0 0 0 0 0 0 0 0 0 0 0 0 0 0 0
0 0 0 2 1 0 0 0 3 0 0 0 0 0 0 0 0 0 0 0 0 0 0 0 0 0 0 0 0 0 0 0 0 0 0 0 0 0 0 0 0 0 0 0
0 0 1 0 12 16 0 0 0 2 0 9 2 0 0 0 0 0 0 0 0 0 0 0 0 0 0 0 0 0 0 0 0 0 0 0 0 0 0 0 0 0 0 0
0 0 0 0 0 0 0 0 8 17 13 0 6 12 0 0 0 0 0 0 0 0 0 0 0 0 0 0 0 0 0 0 0 0 0 0 0 0 0 0 0 0 0 0
0 0 0 0 0 0 0 0 0 0 0 10 8 0 0 0 0 0 0 0 0 0 0 0 0 0 0 0 0 0 0 0 0 0 0 0 0 0 0 0 0 0 0 0
0 0 0 0 0 0 0 0 0 0 0 0 0 0 0 0 0 0 0 0 0 0 0 0 0 0 0 0 0 0 0 0 0 0 0 0 0 0 0 0 0 0 0 0
0 0 0 0 0 0 0 0 0 0 0 0 0 0 0 0 0 0 0 0 0 0 0 0 0 0 0 0 0 0 0 0 0 0 0 0 0 0 0 0 1 0 0 0
0 0 0 0 0 0 0 0 0 0 0 0 0 0 0 0 0 0 0 0 0 0 0 0 0 0 0 0 0 0 0 0 0 0 0 0 0 0 0 1 1 0 0 0
0 0 0 0 0 0 0 0 0 0 0 0 0 0 0 0 0 0 0 0 0 0 0 0 0 0 0 0 0 0 0 0 0 0 0 0 0 1 1 1 0 0 0 2
0 0 0 0 0 0 0 0 0 0 0 0 0 0 0 0 0 0 0 0 0 0 0 0 0 0 0 0 0 0 0 0 0 0 0 0 0 1 0 0 0 0 1 2
0 0 0 0 0 0 0 0 0 0 0 0 0 0 0 0 0 0 0 0 0 0 0 0 0 0 0 0 1 1 2 1 1 1 1 0 1 1 0 0 0 1 3 1
0 0 0 0 0 0 0 0 0 0 0 0 0 0 0 0 0 0 0 0 0 0 0 0 0 1 0 1 0 3 3 1 1 1 1 1 1 1 1 1 2 1 1 0
4 9 0 1 0 0 0 0 3 5 1 0 0 0 0 0 0 0 0 0 0 0 0 0 0 1 2 1 2 3 3 3 2 1 1 1 1 1 1 1 0 2 2 2
0 0 1 0 0 0 0 0 4 1 0 0 0 0 0 0 0 0 0 0 0 0 0 0 1 2 2 1 1 3 5 2 1 2 2 2 1 1 2 3 4 4 3 3
0 1 0 0 0 0 0 3 0 0 0 0 0 0 0 0 0 0 0 0 0 0 0 0 2 2 2 1 1 4 2 1 2 2 3 2 1 1 1 5 3 2 3 3
11 0 2 0 0 0 0 0 0 0 0 0 0 0 0 0 0 0 0 0 0 0 0 1 2 2 3 2 1 1 1 1 2 3 4 3 4 2 3 3 3 3 4 2
3 1 3 1 0 0 13 0 0 0 0 0 0 0 0 0 0 0 0 0 0 0 0 0 3 3 3 2 1 1 2 2 2 3 3 4 4 4 4 4 4 3 2 3
0 5 2 1 0 3 4 3 0 0 0 0 0 0 0 0 0 0 0 0 0 0 0 0 1 4 2 1 1 2 1 2 2 3 4 4 4 4 4 5 4 1 0 0

GFSCGP_con_mlcape_108.txt.gz
CAPE
0 0 0 0 0 0 0 0 0 0 0 0 0 0 0 0 0 0 0 0 0 0 17 5 0 34 0 2 66 913 1781 2287 2500 1029 2632 2492 2241 2218 2143 2176 2421 2433 2390 2266
0 0 0 0 0 0 0 0 0 0 0 0 0 0 0 0 0 0 0 0 8 0 11 53 9 0 19 247 217 904 2217 2060 2134 2057 2359 2299 2250 2179 2336 2081 1786 1455 1240 1017
0 0 0 0 0 0 0 0 0 0 0 0 0 0 0 0 0 0 0 1 5 13 25 7 11 25 8 184 42 107 1313 2505 2467 2302 1619 848 586 396 75 51 71 128 123 68
0 0 0 0 0 0 0 0 0 0 0 0 0 1 0 0 0 0 0 0 0 3 35 75 78 17 148 321 813 1406 1790 1964 1987 1555 921 137 56 39 11 0 0 2 26 1
0 0 0 0 0 0 0 0 0 0 0 0 2 0 21 0 0 0 0 0 0 29 51 15 59 19 263 769 937 530 391 194 110 207 171 78 1 5 2 3 43 62 28 1
0 0 0 0 0 0 0 0 0 0 0 5 1 17 24 12 0 0 0 0 0 162 221 238 222 381 650 704 492 199 29 8 32 61 97 86 56 10 0 11 0 0 0 0
0 0 0 0 0 0 0 0 0 0 1 2 14 2 5 0 0 0 5 37 60 146 340 413 438 451 319 225 116 43 8 0 0 0 0 0 0 0 0 0 0 0 0 0
0 0 0 0 0 0 0 0 1 17 16 29 0 0 39 5 37 42 75 106 199 355 443 462 419 275 143 112 39 0 0 0 0 0 0 0 0 0 0 0 0 0 0 0
0 0 0 0 0 0 4 0 2 23 22 10 34 4 4 0 45 72 112 157 199 226 266 254 191 110 27 2 0 0 0 0 0 0 0 0 0 0 0 0 0 0 0 0
2 1 0 0 0 0 2 16 7 15 30 34 26 40 53 19 7 53 90 143 88 31 3 0 0 0 0 0 0 0 0 0 0 0 0 0 0 0 0 0 0 0 0 0
6 23 3 12 0 3 0 9 28 79 52 61 59 31 65 56 40 80 126 116 22 0 0 0 0 0 0 0 0 0 0 0 0 0 0 0 0 0 0 0 0 0 0 0
0 10 18 4 29 16 50 54 65 61 58 50 70 74 27 18 87 119 88 53 8 0 0 0 0 0 0 0 0 0 0 0 0 0 0 0 0 0 0 0 0 0 0 0
13 18 31 26 11 24 53 67 94 132 114 34 15 32 0 13 38 72 26 0 0 0 0 0 0 0 0 0 0 0 0 0 0 0 0 0 0 0 0 0 0 0 0 0
7 38 0 8 37 36 33 50 50 73 47 50 55 65 27 8 33 11 0 0 0 0 0 0 0 0 0 0 0 0 0 0 0 0 0 0 0 0 0 0 1 1 0 0
100 32 49 25 0 0 7 59 81 21 33 30 80 22 40 34 44 21 11 3 0 0 0 0 0 0 0 0 0 0 0 0 0 0 0 0 0 0 0 0 1 0 0 1
25 48 17 0 10 13 6 45 32 4 2 24 43 34 16 43 42 40 9 3 0 0 0 0 0 0 0 0 0 0 0 0 0 0 0 0 0 0 0 1 0 0 0 0
5 57 45 30 20 27 12 1 3 1 3 6 18 17 36 28 4 8 2 0 0 0 0 0 0 0 0 0 0 0 0 0 0 0 0 0 0 0 0 0 0 0 0 1
38 18 27 21 8 0 0 0 0 0 0 0 0 0 9 38 28 2 0 0 0 0 0 0 0 0 0 0 0 0 0 0 0 0 0 0 0 0 0 0 0 0 2 4
21 31 6 1 0 0 0 0 0 0 11 0 4 8 3 13 0 0 0 0 0 0 0 0 0 0 0 0 0 0 0 0 0 0 0 1 0 0 1 0 1 1 4 1
0 0 0 0 0 0 8 2 0 0 32 0 4 0 0 0 25 0 0 0 0 0 0 0 0 0 0 0 0 0 0 0 0 1 1 0 0 1 1 2 1 3 0 3
4 4 0 0 0 0 5 0 2 8 2 4 10 5 10 3 6 0 0 0 0 0 0 0 0 0 1 1 1 1 1 2 3 3 2 1 1 2 1 1 4 1 4 2
1 3 4 1 4 1 0 0 15 17 9 18 14 0 0 0 0 0 0 0 0 0 0 0 0 2 4 3 3 3 3 3 2 3 2 1 2 2 1 2 1 3 3 4
2 6 4 3 22 6 20 36 30 29 16 5 0 0 0 0 0 0 0 0 0 0 0 0 3 3 4 3 3 3 2 2 3 3 3 2 2 3 2 3 1 1 3 3
20 3 21 2 2 11 39 20 16 13 2 5 2 0 0 0 0 0 0 0 0 0 0 0 5 5 1 3 3 3 3 1 3 4 3 3 2 1 2 4 4 1 2 3
17 6 19 19 9 10 29 32 1 0 0 0 0 0 0 0 0 0 0 0 0 0 0 0 0 3 2 2 2 2 1 2 3 2 3 3 3 3 3 3 3 3 3 2
21 0 7 19 17 21 26 7 0 0 0 0 0 0 0 0 0 0 0 0 0 0 0 0 0 0 0 3 1 1 2 1 2 3 3 2 3 3 3 4 5 0 0 0

GFSCGP_con_mlcape_111.txt.gz
CAPE
0 0 0 0 0 0 0 0 0 0 0 0 0 0 0 0 0 0 0 0 0 0 0 3 55 88 66 4 214 321 1559 2517 2549 2416 2012 2408 2272 2508 2207 2334 2239 2195 1610 1647
0 0 0 0 0 0 0 0 0 0 0 0 0 0 0 0 0 0 0 0 0 0 0 52 65 75 46 238 180 210 1433 2452 2772 1528 1890 1855 2183 1872 2140 2472 2393 2252 1909 1938
0 0 0 0 0 0 0 0 0 0 0 0 0 0 0 0 0 0 0 0 0 0 2 38 127 168 143 352 538 386 466 1756 2210 2398 2750 2708 2688 2266 1932 1557 1162 981 561 362
0 0 0 0 0 0 0 0 0 0 0 0 9 0 11 0 0 0 0 0 1 9 5 24 82 235 173 117 127 12 167 1607 3034 2894 2196 2042 1660 1111 331 70 54 107 91 47
0 0 0 0 0 0 0 0 0 0 0 0 0 1 8 2 0 0 0 0 6 4 10 57 125 198 287 363 318 418 758 2415 2256 2470 2395 1721 867 275 101 34 191 107 227 167
0 0 0 0 0 0 0 0 0 0 0 0 0 27 27 21 4 2 0 0 8 16 20 46 118 192 357 771 1073 1674 1456 878 781 611 702 774 385 342 162 198 178 67 26 90
0 0 0 0 0 0 0 0 0 0 0 0 15 27 1 2 0 4 0 10 0 41 103 133 269 361 619 964 997 757 578 471 303 152 159 197 184 141 126 81 22 36 3 0
0 0 1 0 0 0 0 0 0 11 8 17 14 23 34 4 0 0 13 30 40 107 182 304 401 540 704 786 769 468 326 162 110 69 25 35 14 0 0 0 0 0 0 0
0 6 0 0 0 0 3 0 0 15 5 19 10 12 93 27 1 0 36 107 180 233 292 315 421 368 456 491 428 342 160 53 12 3 7 1 0 0 0 0 0 0 0 0
0 0 0 0 0 0 0 6 7 5 15 54 30 29 12 3 3 1 14 106 226 301 344 394 359 298 246 155 106 72 48 6 0 0 0 0 0 0 0 0 0 0 0 0
0 13 3 5 0 0 0 1 29 34 4 1 33 9 25 36 28 4 49 159 218 211 159 175 171 112 34 4 1 0 0 0 0 0 0 0 0 0 0 0 0 0 0 0
1 0 0 5 0 0 9 12 59 79 49 41 40 45 1 0 12 82 117 201 174 113 85 29 1 0 0 0 0 0 0 0 0 0 0 0 0 0 0 0 0 0 0 0
2 0 81 15 7 13 13 44 28 61 84 63 12 46 0 2 31 76 137 143 103 98 32 3 0 0 0 0 0 0 0 0 0 0 0 0 0 0 0 0 0 0 0 0
52 10 19 73 96 69 8 77 45 17 3 9 0 0 0 0 0 22 54 70 66 45 0 0 0 0 0 0 0 0 0 0 0 0 0 0 0 0 0 0 0 0 2 3
31 27 90 56 102 182 110 27 57 85 54 70 97 23 0 0 53 33 63 24 1 0 0 0 0 0 0 0 0 0 0 0 0 0 0 0 0 0 0 0 0 0 1 0
102 83 220 25 81 42 65 137 164 164 134 84 56 44 6 25 25 11 21 19 15 12 0 0 0 0 0 0 0 0 0 0 0 0 0 0 0 0 0 0 1 1 0 2
211 223 113 88 1 3 66 3 2 100 72 31 29 20 41 30 27 33 43 38 28 25 0 0 0 0 0 0 0 0 0 0 0 0 0 0 0 0 0 1 0 1 1 2
80 158 104 40 44 19 0 1 3 11 5 10 6 0 0 34 52 20 39 38 15 1 0 0 0 0 0 0 0 0 0 0 0 0 0 0 0 0 0 0 2 2 3 4
31 18 1 18 13 2 0 0 0 0 0 0 0 1 2 37 17 0 0 0 0 1 0 0 0 0 0 0 0 0 0 0 0 0 0 0 0 0 1 2 1 3 3 0
7 4 14 10 18 12 9 0 0 0 35 7 3 25 29 33 53 6 0 0 0 0 0 0 0 0 1 1 1 1 1 0 0 0 0 0 1 1 2 0 1 4 0 0
7 9 3 9 0 38 5 0 0 2 26 18 22 22 5 9 2 2 2 0 0 0 0 0 0 0 2 2 1 2 1 1 1 0 0 1 2 3 1 0 1 1 1 0
2 9 10 15 10 12 0 0 15 42 28 5 7 8 0 0 0 0 0 0 0 0 0 0 0 1 1 1 1 2 2 1 0 1 2 3 2 2 0 2 2 1 1 2
8 8 10 16 32 11 60 118 37 38 7 9 13 12 8 1 0 0 0 0 0 0 0 0 0 1 0 0 1 3 3 2 1 1 4 2 2 3 0 3 0 0 1 4
22 24 10 25 15 18 40 32 21 7 1 1 1 5 3 0 0 0 0 0 0 0 0 0 0 2 2 1 2 2 2 1 2 2 2 1 2 2 1 3 3 2 3 2
37 13 25 24 20 12 31 8 5 6 4 3 0 0 0 0 0 0 0 0 0 0 0 0 0 0 1 0 1 1 0 2 1 1 1 3 2 2 2 2 2 1 1 1
37 27 23 29 33 37 20 9 4 9 1 0 0 0 0 0 0 0 0 0 0 0 0 0 0 0 0 0 0 1 2 2 0 1 2 2 3 3 3 2 2 0 0 0

GFSCGP_con_mlcape_114.txt.gz
CAPE
0 0 0 0 0 0 0 0 0 0 0 0 0 0 0 0 0 0 0 0 0 0 0 0 0 10 118 276 384 1232 1389 1486 641 816 894 1476 1781 2133 1431 50 0 5 571 874
0 0 0 0 0 0 0 0 0 0 0 0 0 0 0 0 0 0 0 0 0 0 0 0 0 85 239 413 1163 768 1538 1684 1780 1430 1332 1445 1287 1684 1691 1789 1898 1669 910 1544
0 0 0 0 0 0 0 0 0 0 0 0 0 0 0 0 0 0 0 0 0 0 0 0 30 79 64 392 920 1024 1974 1885 1675 1701 1562 1371 1906 1464 1466 2087 2058 1884 1677 1657
0 0 0 0 0 0 0 0 0 0 0 0 0 0 0 0 0 0 0 0 0 0 0 0 48 122 98 361 216 130 412 1395 1807 1607 1740 194 869 1080 894 445 328 172 93 50
0 0 0 0 0 0 0 0 0 0 0 0 0 0 0 3 0 0 0 0 0 0 0 0 0 172 128 439 480 176 434 550 1598 1492 2498 1071 1459 898 142 88 34 142 75 85
0 0 0 0 0 0 0 0 0 0 0 0 0 0 0 26 0 0 0 0 0 0 0 6 138 179 213 222 275 711 1026 1008 756 830 1891 1019 500 412 228 431 157 95 212 169
0 0 0 0 0 0 0 2 3 2 2 0 0 0 0 2 0 0 0 0 0 5 25 74 177 180 314 445 1404 1547 797 694 529 498 416 333 206 135 133 68 54 46 10 0
3 0 0 0 0 0 0 0 0 1 0 2 0 0 16 17 0 0 0 0 1 0 60 154 128 236 757 1072 837 562 438 319 193 159 100 22 39 0 0 0 5 1 0 0
0 5 0 0 0 0 0 0 0 3 10 0 10 33 19 8 0 0 2 30 6 32 124 236 434 506 758 595 395 349 225 161 117 66 10 0 0 0 0 0 0 0 0 0
0 8 0 0 0 0 1 0 0 0 0 2 33 76 38 29 10 1 13 56 78 144 251 296 301 364 299 246 226 146 103 56 6 0 0 0 0 0 0 0 0 0 0 0
0 0 1 0 0 0 0 0 0 27 0 25 41 32 1 0 1 6 38 80 184 262 233 196 201 179 107 62 33 12 0 0 0 0 0 0 0 0 0 0 0 0 0 0
0 1 0 0 0 0 0 0 0 0 13 1 26 0 0 14 0 0 3 143 183 272 215 123 76 26 9 0 0 0 0 0 0 0 0 0 0 0 0 0 0 0 0 0
10 8 1 9 0 12 0 0 9 87 104 113 74 1 2 4 0 0 0 14 39 124 85 37 1 0 0 0 0 0 0 0 0 0 0 0 0 0 0 0 0 0 0 0
5 1 2 0 4 0 0 1 20 51 111 48 62 42 43 19 0 38 37 1 3 2 31 11 0 0 0 0 0 0 0 0 0 0 0 0 0 0 0 0 0 0 0 0
12 0 1 0 25 29 85 7 63 16 38 1 2 4 64 24 6 64 51 47 10 0 2 0 0 0 0 0 0 0 0 0 0 0 0 0 0 0 0 0 0 0 0 0
7 0 0 22 0 0 154 55 42 21 0 15 15 0 0 0 0 2 52 44 9 0 0 0 0 0 0 0 0 0 0 0 0 0 0 0 0 0 0 0 0 0 0 2
134 4 25 15 12 2 98 172 90 93 88 99 104 93 42 1 0 3 42 9 2 0 0 0 0 0 0 0 0 0 0 0 0 0 0 0 0 0 0 0 0 0 0 0
189 147 25 0 0 2 3 49 53 25 75 49 4 17 17 1 0 0 15 8 0 0 0 0 0 0 0 0 0 0 0 0 0 0 0 0 0 0 0 0 0 0 0 0
132 124 21 3 5 0 0 0 0 12 2 0 0 0 17 5 0 0 0 0 0 0 0 0 0 0 0 0 0 0 0 0 0 0 0 0 0 0 0 0 0 0 0 0
4 0 1 9 4 0 0 0 0 0 2 0 0 0 28 4 0 0 0 0 0 0 0 0 0 0 0 0 0 0 0 1 0 0 0 0 0 1 0 0 0 0 0 0
2 0 0 0 0 15 0 0 0 0 19 1 1 3 1 0 0 0 0 0 0 0 0 0 0 0 1 1 0 1 1 1 0 1 0 0 0 0 0 0 0 0 2 1
0 0 4 3 4 3 0 0 15 3 3 0 0 0 0 0 0 0 0 0 0 0 0 0 0 0 0 0 0 1 2 1 2 1 0 0 0 0 0 1 0 0 1 1
23 59 5 13 8 47 99 62 1 0 0 0 0 0 0 0 0 0 0 0 0 0 0 0 0 0 0 0 0 3 3 1 1 1 1 0 0 0 0 0 0 1 1 0
29 36 34 17 28 26 11 2 0 0 0 0 0 0 0 0 0 0 0 0 0 0 0 0 0 0 0 0 1 3 1 1 1 1 1 0 0 0 0 0 1 1 2 2
6 2 21 8 5 7 12 2 3 1 0 0 0 0 0 0 0 0 0 0 0 0 0 0 0 0 0 0 0 1 1 0 1 1 1 0 0 0 1 1 2 1 1 1
27 28 26 24 24 2 7 14 6 0 0 0 0 0 0 0 0 0 0 0 0 0 0 0 0 0 0 0 0 1 1 1 1 1 1 1 1 1 1 3 3 1 0 0

GFSCGP_con_mlcape_117.txt.gz
CAPE
0 0 0 0 0 0 0 0 0 0 0 0 0 0 0 0 0 0 0 0 0 0 0 0 0 0 118 728 581 84 27 28 0 0 0 15 14 0 2 53 96 41 5 17
0 0 0 0 0 0 0 0 0 0 0 0 0 0 0 0 0 0 0 0 0 0 0 0 0 0 486 994 496 149 42 68 65 90 16 2 26 0 237 157 51 10 0 2
0 0 0 0 0 0 0 0 0 0 0 0 0 0 0 0 0 0 0 0 0 0 0 0 0 31 656 1031 1254 1072 1094 522 589 347 737 785 536 1117 1169 679 362 435 210 194
0 0 0 0 0 0 0 0 0 0 0 0 2 0 0 0 0 0 0 0 0 0 0 0 0 242 558 220 1593 1948 2082 1447 1557 1865 1331 805 598 1107 1008 872 1202 956 979 868
0 0 0 0 0 0 0 0 0 0 0 0 0 0 0 0 0 0 0 0 0 0 0 0 4 397 812 920 1133 1712 1790 1974 1669 1552 1298 858 763 734 811 802 303 54 1 9
0 0 0 0 0 0 0 0 0 0 0 0 0 0 0 0 0 0 0 0 0 0 0 0 1 321 811 546 784 1277 921 943 1060 1188 1076 960 514 327 273 229 172 192 189 72
8 0 0 0 0 0 0 0 0 0 0 0 0 0 0 0 2 0 0 0 0 0 0 0 21 183 952 860 965 847 420 275 276 301 255 222 311 200 150 149 63 27 40 49
0 2 0 0 0 0 0 0 0 0 0 0 0 0 0 0 0 1 0 0 5 0 70 88 220 761 943 830 565 270 117 85 84 59 8 3 8 0 0 0 0 0 0 0
4 0 0 0 0 0 0 0 0 0 2 0 0 0 35 16 38 23 1 7 48 73 161 300 605 755 645 470 211 78 21 3 0 0 0 0 0 0 0 0 0 0 0 0
11 8 0 0 0 0 0 0 0 0 0 0 1 12 69 33 5 2 8 49 260 217 292 624 605 448 227 118 3 0 0 0 0 0 0 0 0 0 0 0 0 0 0 0
14 36 0 0 0 0 0 0 0 0 0 0 0 11 18 21 0 1 36 86 301 291 230 167 13 0 1 0 0 0 0 0 0 0 0 0 0 0 0 0 0 0 0 0
9 17 0 0 0 0 0 0 0 4 0 4 0 24 1 5 0 0 0 122 5 0 55 57 12 0 0 0 0 0 0 0 0 0 0 0 0 0 0 0 0 0 0 0
26 0 0 0 0 0 0 0 0 0 0 8 32 8 2 8 0 0 0 0 0 2 3 6 0 0 0 0 0 0 0 0 0 0 0 0 0 0 0 0 0 0 0 0
0 2 0 0 0 0 0 0 0 0 0 0 25 12 14 5 0 0 0 0 1 1 0 0 0 0 0 0 0 0 0 0 0 0 0 0 0 0 0 0 0 0 0 0
8 0 4 0 9 4 6 9 0 1 25 0 28 31 24 7 44 3 0 0 4 0 0 0 0 0 0 0 0 0 0 0 0 0 0 0 0 0 0 0 0 0 0 0
2 7 1 0 0 11 13 22 31 110 59 36 0 6 0 0 1 10 1 1 0 0 0 0 0 0 0 0 0 0 0 0 0 0 0 0 0 0 0 0 0 0 0 0
2 2 0 7 0 0 0 9 88 56 14 26 3 2 3 0 0 27 5 0 0 0 0 0 0 0 0 0 0 0 0 0 0 0 0 0 0 0 0 0 0 0 0 0
1 2 27 0 0 0 0 0 14 38 37 0 0 0 0 0 0 0 0 0 0 0 0 0 0 0 0 0 0 0 0 0 0 0 0 0 0 0 0 0 0 0 0 0
0 32 27 0 0 0 0 0 3 14 4 4 0 0 1 0 0 0 0 0 0 0 0 0 0 0 0 0 0 0 0 0 0 0 0 0 0 0 0 0 0 0 0 0
0 22 9 0 0 1 0 0 0 0 0 5 5 0 0 0 0 0 0 0 0 0 0 0 0 0 0 0 0 0 0 0 0 0 0 0 0 0 0 0 0 0 0 0
1 6 0 0 1 3 0 0 0 0 0 0 0 0 0 0 0 0 0 0 0 0 0 0 0 0 0 0 0 0 0 0 0 0 0 0 0 0 0 0 0 0 0 0
0 0 0 0 0 0 0 0 0 0 0 0 0 0 0 0 0 0 0 0 0 0 0 0 0 0 0 0 0 0 4 1 0 0 0 0 0 0 0 0 0 0 0 1
0 0 0 0 7 12 2 0 0 0 0 0 0 0 0 0 0 0 0 0 0 0 0 0 0 0 0 0 0 1 1 1 1 1 1 0 0 0 0 0 0 1 1 1
8 1 0 0 9 0 0 0 0 0 0 0 0 0 0 0 0 0 0 0 0 0 0 0 0 0 0 0 0 0 0 1 1 1 1 1 1 1 0 0 1 1 3 3
3 18 9 1 4 0 0 0 0 0 0 0 0 0 0 0 0 0 0 0 0 0 0 0 0 0 0 0 0 0 0 0 1 2 2 2 1 2 1 1 1 1 1 1
9 7 0 2 0 0 0 0 0 0 0 0 0 0 0 0 0 0 0 0 0 0 0 0 0 0 0 0 0 0 0 0 2 2 2 2 1 1 1 2 3 0 0 0

GFSCGP_con_mlcape_120.txt.gz
CAPE
0 0 0 0 0 0 0 0 0 0 0 0 0 0 0 0 0 0 0 0 0 0 0 0 0 93 269 420 321 214 78 24 19 0 0 224 463 359 73 0 28 95 181 109
0 0 0 0 0 0 0 0 0 0 0 0 0 0 0 0 0 0 0 0 0 0 0 0 0 155 316 254 107 42 49 34 69 81 130 113 67 0 63 23 183 71 34 74
0 0 0 0 0 0 0 0 0 0 0 0 0 0 0 0 0 0 0 0 0 0 0 0 0 229 662 579 262 69 141 135 119 104 218 169 70 101 99 69 220 110 51 50
0 0 0 0 0 0 0 0 0 0 0 0 0 0 0 0 0 0 0 0 0 0 0 0 0 347 973 557 224 81 159 155 152 347 287 382 184 224 192 671 464 269 175 82
0 0 0 0 0 0 0 0 0 0 0 0 0 0 0 0 0 0 0 0 0 0 0 0 1 645 1128 786 356 323 300 237 222 742 964 1192 830 1072 1055 1068 776 646 715 788
12 0 0 0 0 0 0 0 0 0 0 0 0 0 0 0 0 0 0 0 0 0 0 0 122 888 1135 1538 1397 1636 978 689 1132 1056 1036 924 251 436 526 527 324 204 39 40
36 32 0 0 0 0 0 0 0 0 0 0 0 0 0 0 0 0 0 0 0 0 0 0 501 843 1293 1110 1023 1228 1200 890 895 766 596 542 310 357 354 158 52 67 49 0
8 7 2 0 0 0 0 0 0 0 0 0 0 0 0 0 0 0 0 0 0 0 0 1 838 944 1288 866 455 410 412 166 89 62 90 64 64 78 31 10 1 2 0 0
14 0 6 0 0 0 0 0 0 0 0 0 0 0 0 0 0 2 0 0 1 6 29 449 871 696 433 286 155 49 16 0 0 0 0 0 0 0 0 0 0 0 0 0
1 0 16 2 1 3 0 0 0 8 0 0 0 1 5 15 31 50 28 45 217 571 556 553 521 266 30 0 0 0 0 0 0 0 0 0 0 0 0 0 0 0 0 0
0 0 22 3 2 0 0 0 0 2 0 0 0 0 31 8 22 88 36 19 6 8 11 4 2 0 0 0 0 0 0 0 0 0 0 0 0 0 0 0 0 0 0 0
0 8 0 0 0 0 0 1 0 0 0 0 0 0 42 10 51 50 20 3 4 0 0 0 0 0 0 0 0 0 0 0 0 0 0 0 0 0 0 0 0 0 0 0
15 8 0 0 2 1 0 0 0 0 0 0 0 0 13 13 1 11 34 22 0 0 0 0 0 0 0 0 0 0 0 0 0 0 0 0 0 0 0 0 0 0 0 0
7 10 0 0 0 0 0 0 0 0 0 0 7 13 36 10 8 0 0 0 0 0 0 0 0 0 0 0 0 0 0 0 0 0 0 0 0 0 0 0 0 0 0 0
5 3 0 0 0 0 0 0 0 0 0 0 16 26 8 0 2 3 0 0 0 0 0 0 0 0 0 0 0 0 0 0 0 0 0 0 0 0 0 0 0 0 0 0
0 8 0 10 18 7 12 24 12 7 0 1 36 16 9 0 0 0 0 0 0 0 0 0 0 0 0 0 0 0 0 0 0 0 0 0 0 0 0 0 0 0 0 0
6 5 0 0 0 0 0 13 54 54 16 8 0 0 0 0 0 0 0 0 0 0 0 0 0 0 0 0 0 0 0 0 0 0 0 0 0 0 0 0 0 0 0 0
3 0 0 0 0 0 0 0 77 58 40 6 0 0 0 0 0 0 0 0 0 0 0 0 0 0 0 0 0 0 0 0 0 0 0 0 0 0 0 0 0 0 0 0
4 0 0 0 0 0 0 0 52 11 7 0 0 0 0 0 0 0 0 0 0 0 0 0 0 0 0 0 0 0 0 0 0 0 0 0 0 0 0 0 0 0 0 0
0 0 0 0 6 1 0 0 0 0 0 0 0 0 0 0 0 0 0 0 0 0 0 0 0 0 0 0 0 0 0 0 0 0 0 0 0 0 0 0 0 0 0 0
6 12 0 0 0 1 1 0 0 0 0 0 0 0 0 0 0 0 0 0 0 0 0 0 0 0 0 0 0 0 0 0 0 0 0 0 0 0 0 0 0 0 0 0
1 0 0 0 0 0 12 4 0 0 0 0 0 0 0 0 0 0 0 0 0 0 0 0 0 0 0 0 0 0 0 0 0 1 0 0 0 0 0 0 0 0 0 1
0 0 0 0 1 0 1 0 0 0 0 0 0 0 0 0 0 0 0 0 0 0 0 0 0 0 0 0 0 0 1 1 0 0 2 0 0 0 0 0 1 1 1 2
14 1 1 0 0 0 0 0 0 0 0 0 0 0 0 0 0 0 0 0 0 0 0 0 0 0 0 0 0 0 0 1 0 2 3 1 2 1 0 0 1 2 2 2
1 3 0 1 0 0 0 0 0 0 0 0 0 0 0 0 0 0 0 0 0 0 0 0 0 0 0 0 0 0 0 1 3 4 3 2 2 1 1 1 2 2 1 1
0 0 0 1 0 0 0 0 0 0 0 0 0 0 0 0 0 0 0 0 0 0 0 0 0 0 0 0 0 0 0 0 1 2 3 3 2 1 2 4 3 0 1 0

GFSCGP_con_mlcape_123.txt.gz
CAPE
0 0 0 0 0 0 0 0 0 0 0 0 0 0 0 0 0 0 0 0 0 0 0 0 112 614 952 725 528 444 343 174 33 0 31 82 222 260 337 307 295 395 526 445
0 0 0 0 0 0 0 0 0 0 0 0 0 0 0 0 0 0 0 0 0 0 0 0 25 467 549 336 483 400 414 216 82 56 30 126 338 223 81 33 42 152 179 241
0 0 0 0 0 0 0 0 0 0 0 0 0 0 0 0 0 0 0 0 0 0 0 0 0 184 475 563 557 551 523 327 179 94 30 34 48 84 319 106 34 78 110 210
0 0 0 0 0 0 0 0 0 0 0 0 0 0 0 0 0 0 0 0 0 0 0 0 0 113 364 630 613 650 544 364 261 90 85 126 115 252 133 134 72 163 78 111
0 0 0 0 0 0 0 0 0 0 0 0 0 0 0 0 0 0 0 0 0 0 0 0 0 0 398 660 504 410 346 263 175 103 138 239 186 209 285 244 346 173 151 202
0 0 0 0 0 0 0 0 0 0 0 0 0 0 0 0 0 0 0 0 0 0 0 0 90 554 883 852 500 258 287 266 208 214 366 513 817 737 628 564 594 301 324 438
17 10 0 0 0 0 0 0 0 0 0 0 0 0 0 0 0 0 0 0 0 0 0 0 39 878 1371 1160 842 480 372 302 319 333 645 874 726 570 500 358 292 176 163 133
39 33 28 0 0 0 0 0 0 0 0 0 0 0 0 0 0 0 0 0 0 0 0 31 495 1256 1109 621 477 441 284 208 185 342 299 169 133 80 46 27 23 1 0 0
10 0 9 17 1 0 0 0 0 0 0 0 0 0 6 0 0 0 0 4 3 1 356 776 606 344 447 361 410 272 111 64 67 55 21 3 0 0 0 0 0 0 0 0
5 11 11 22 43 5 0 0 0 0 0 0 0 0 0 0 0 0 1 10 84 176 149 169 219 157 106 76 29 0 0 0 0 0 0 0 0 0 0 0 0 0 0 0
5 3 0 0 14 0 6 0 0 0 0 0 0 3 0 17 1 5 9 12 12 36 32 6 0 0 0 0 0 0 0 0 0 0 0 0 0 0 0 0 0 0 0 0
3 22 1 0 0 0 0 0 0 0 0 0 0 6 0 21 30 50 5 1 7 0 0 0 0 0 0 0 0 0 0 0 0 0 0 0 0 0 0 0 0 0 0 0
1 0 0 3 1 0 0 0 0 0 0 2 0 9 0 19 14 41 13 1 0 0 0 0 0 0 0 0 0 0 0 0 0 0 0 0 0 0 0 0 0 0 0 0
6 6 0 0 0 0 0 1 1 0 0 0 0 16 25 45 51 34 15 0 0 0 0 0 0 0 0 0 0 0 0 0 0 0 0 0 0 0 0 0 0 0 0 0
0 0 0 9 1 0 0 11 3 6 0 0 3 0 43 55 52 33 0 0 0 0 1 0 0 0 0 0 0 0 0 0 0 0 0 0 0 0 0 0 0 0 0 0
0 1 1 17 50 24 1 10 13 3 0 0 0 1 0 22 10 5 0 0 0 0 0 0 0 0 0 0 0 0 0 0 0 0 0 0 0 0 0 0 0 0 0 0
1 3 1 8 14 13 4 1 11 15 11 2 0 19 4 7 5 0 0 0 0 0 0 0 0 0 0 0 0 0 0 0 0 0 0 0 0 0 0 0 0 0 0 0
5 3 0 0 0 0 0 0 6 33 35 7 29 58 47 1 0 0 0 0 0 0 0 0 0 0 0 0 0 0 0 0 0 0 0 0 0 0 0 0 0 0 0 0
2 5 0 0 0 0 0 21 35 6 1 5 39 3 0 0 0 0 0 0 0 0 0 0 0 0 0 0 0 0 0 0 0 0 0 0 0 0 0 0 0 0 0 0
10 0 0 0 0 0 0 0 0 1 3 0 0 0 0 0 0 4 0 0 0 0 0 0 0 0 0 0 0 0 0 0 0 0 0 0 0 0 0 0 0 0 0 0
2 0 0 0 0 0 0 0 0 0 0 0 0 0 0 0 0 0 0 0 0 0 0 0 0 0 0 0 0 0 0 0 1 1 1 0 0 0 0 0 0 0 0 0
3 0 0 0 0 0 0 0 0 0 0 0 0 0 0 0 0 0 0 0 0 0 0 0 0 0 0 0 0 0 0 0 0 1 1 0 0 0 0 0 0 0 0 0
0 0 0 0 0 0 0 0 0 0 0 0 0 0 0 0 0 0 0 0 0 0 0 0 0 0 0 0 0 0 0 0 2 2 2 1 1 1 0 1 0 1 1 1
2 0 0 0 1 0 0 0 0 0 0 0 0 0 0 0 0 0 0 0 0 0 0 0 0 0 0 0 0 0 0 1 1 3 2 1 2 1 0 1 1 1 2 2
1 0 0 2 0 0 0 0 0 0 0 0 0 0 0 0 0 0 0 0 0 0 0 0 0 0 0 0 0 0 0 0 0 2 2 1 2 1 1 1 2 1 1 0
0 0 0 0 0 0 0 0 0 0 0 0 0 0 0 0 0 0 0 0 0 0 0 0 0 0 0 0 0 0 0 0 0 1 2 2 2 3 2 3 1 0 0 0

GFSCGP_con_mlcape_126.txt.gz
CAPE
0 4 0 0 0 0 0 0 0 0 0 0 0 0 0 0 0 0 0 0 0 0 0 0 0 282 538 518 545 658 656 548 407 300 245 157 214 296 316 420 432 408 320 178
0 0 1 0 0 0 0 0 0 0 0 0 0 0 0 0 0 0 0 0 0 0 0 0 0 334 575 618 764 718 623 508 448 247 143 230 279 331 330 368 464 419 323 261
0 0 11 0 0 0 0 0 0 0 0 0 0 0 0 0 0 0 0 0 0 0 0 0 0 115 697 607 799 801 642 507 344 230 114 47 116 222 318 264 323 252 192 193
3 0 0 0 0 0 0 0 0 0 0 0 0 0 0 0 0 0 0 0 0 0 0 0 0 8 546 475 746 675 561 376 293 217 208 107 164 410 312 311 191 253 104 138
1 0 0 0 0 0 0 0 0 0 0 0 0 0 0 0 0 0 0 0 0 0 0 0 0 0 24 713 616 479 416 327 255 308 257 147 181 111 138 176 317 231 124 44
0 0 1 0 0 0 0 0 0 0 0 0 0 0 0 0 0 0 0 0 0 0 0 0 0 45 325 667 516 529 507 417 400 318 330 363 265 239 223 279 134 139 196 124
19 7 0 0 0 0 0 0 0 0 0 0 0 0 0 0 0 0 0 0 0 0 0 0 0 25 371 599 702 621 594 668 464 342 312 282 354 473 577 399 374 296 153 87
13 3 23 0 0 0 0 0 0 0 0 0 0 0 0 0 0 0 0 0 0 0 0 4 515 972 900 855 628 442 386 296 237 159 142 171 260 134 46 49 22 4 2 0
0 22 5 37 0 0 0 0 0 0 0 0 0 0 0 0 0 0 0 0 0 0 76 216 434 479 366 227 69 65 75 52 7 18 0 0 0 0 0 0 0 0 0 0
3 1 51 29 52 17 0 0 0 0 0 0 0 0 0 0 0 0 0 0 3 78 90 50 43 11 1 1 0 0 0 0 0 0 0 0 0 0 0 0 0 0 0 0
1 5 0 53 14 0 0 0 0 0 0 0 0 0 0 0 0 0 0 4 2 2 1 2 3 0 0 0 0 0 0 0 0 0 0 0 0 0 0 0 0 0 0 0
8 1 0 0 0 3 0 0 0 0 0 0 0 0 0 6 2 3 3 1 1 1 1 0 0 0 0 0 0 0 0 0 0 0 0 0 0 0 0 0 0 0 0 0
3 3 0 0 0 9 11 1 0 0 0 0 0 0 3 4 3 1 0 0 0 0 0 0 0 0 0 0 0 0 0 0 0 0 0 0 0 0 0 0 0 0 0 0
0 4 0 0 0 0 0 0 0 0 0 0 0 3 21 4 4 1 2 0 0 0 0 0 0 0 0 0 0 0 0 0 0 0 0 0 0 0 0 0 0 0 0 0
2 0 0 0 0 0 0 0 0 0 0 0 4 39 57 24 3 2 1 1 1 1 0 0 1 0 0 0 0 0 0 0 0 0 0 0 0 0 0 0 0 0 0 0
0 0 0 1 0 0 0 0 0 0 0 0 36 25 47 6 3 2 4 3 3 3 3 1 0 0 0 0 0 0 0 0 0 0 0 0 0 0 0 0 0 0 0 0
2 0 0 3 3 0 1 25 8 0 2 11 4 12 19 5 14 2 2 0 3 2 0 0 0 0 0 0 0 0 0 0 0 0 0 0 0 0 0 0 0 0 0 0
2 0 0 2 0 0 0 4 25 14 8 34 44 57 59 19 1 0 1 0 0 0 0 0 0 0 0 0 0 0 0 0 0 0 0 0 0 0 0 0 0 0 0 0
1 0 0 0 0 0 15 37 51 14 21 33 58 38 0 1 0 2 0 0 0 0 0 0 0 0 0 0 0 0 0 0 0 0 0 0 0 0 0 0 0 0 0 0
2 0 1 0 0 0 0 3 39 14 12 0 0 0 0 0 0 5 0 0 0 0 0 0 0 0 0 0 0 0 0 0 0 2 2 0 0 0 0 0 0 0 0 0
0 2 0 0 0 0 0 1 5 3 0 0 0 0 0 0 0 2 0 0 0 0 0 0 0 0 0 0 0 0 0 0 2 2 1 0 0 0 0 0 0 0 0 0
1 0 0 0 0 0 0 0 0 0 0 0 0 0 0 0 1 0 0 0 0 0 0 0 0 0 0 0 0 0 0 2 1 1 0 0 0 0 0 0 0 0 1 0
0 0 0 0 1 0 0 0 0 0 0 0 0 0 0 0 0 0 0 0 0 0 0 0 0 0 0 0 0 0 0 1 3 1 0 0 0 0 0 0 0 1 1 1
1 0 0 0 1 0 0 0 0 0 0 0 0 0 0 0 0 0 0 0 0 0 0 0 0 0 0 0 0 0 0 1 2 1 0 0 0 0 0 0 1 1 2 2
0 0 0 3 1 0 1 0 0 0 0 0 0 0 0 0 0 0 0 0 0 0 0 0 0 0 0 0 0 0 0 0 2 1 1 2 2 2 1 1 2 2 1 1
0 0 0 0 0 0 4 0 0 0 0 0 0 0 0 0 0 0 0 0 0 0 0 0 0 0 0 0 0 0 0 0 1 3 3 2 3 2 2 4 1 0 1 0